[[{"header":{"parameterUnit":"m.s-1","parameterCategory":1,"la1":31.0,"la2":29.5877,"lo1":-88.7671,"lo2":-86.6584,"dy":0.0162,"dx":0.0185,"nx":115,"ny":88,"refTime":"2023-06-02T06:00:00:Z","depth":0,"parameterNumber":2,"parameterNumberName":"U-component_of_WINDS"},"data":[0.0,0.0,0.0,0.0,0.0,0.0,0.0,0.0,0.0,0.0,0.0,0.0,0.0,0.0,0.0,0.0,0.0,0.0,0.0,0.0,0.0,0.0,0.0,0.0,0.0,0.0,0.0,0.0,0.0,0.0,0.0,0.0,0.0,0.0,0.0,0.0,0.0,0.0,0.0,0.0,0.0,0.0,0.0,0.0,0.0,0.0,0.0,0.0,0.0,0.0,0.0,0.0,0.0,0.0,0.0,0.0,0.0,0.0,0.0,0.0,0.0,0.0,0.0,0.0,0.0,0.0,0.0,0.0,0.0,0.0,0.0,0.0,0.0,0.0,0.0,0.0,0.0,0.0,0.0,0.0,0.0,0.0,0.0,0.0,0.0,0.0,0.0,0.0,0.0,0.0,0.0,0.0,0.0,0.0,0.0,0.0,0.0,0.0,0.0,0.0,0.0,0.0,0.0,0.0,0.0,0.0,0.0,0.0,0.0,0.0,0.0,0.0,0.0,0.0,0.0,0.0,0.0,0.0,0.0,0.0,0.0,0.0,0.0,0.0,0.0,0.0,0.0,0.0,0.0,0.0,0.0,0.0,0.0,0.0,0.0,0.0,0.0,0.0,0.0,0.0,0.0,0.0,0.0,0.0,0.0,0.0,0.0,0.0,0.0,0.0,0.0,0.0,0.0,0.0,0.0,0.0,0.0,0.0,0.0,0.0,0.0,0.0,0.0,0.0,0.0,0.0,0.0,0.0,0.0,0.0,0.0,0.0,0.0,0.0,0.0,0.0,0.0,0.0,0.0,0.0,0.0,0.0,0.0,0.0,0.0,0.0,0.0,0.0,0.0,0.0,0.0,0.0,0.0,0.0,0.0,0.0,0.0,0.0,0.0,0.0,0.0,0.0,0.0,0.0,0.0,0.0,0.0,0.0,0.0,0.0,0.0,0.0,0.0,0.0,0.0,0.0,0.0,0.0,0.0,0.0,0.0,0.0,0.0,0.0,0.0,0.0,0.0,0.0,0.0,0.0,0.0,0.0,0.0,0.0,0.0,0.0,0.0,0.0,0.0,0.0,0.0,0.0,0.0,0.0,0.0,0.0,0.0,0.0,0.0,0.0,0.0,0.0,0.0,0.0,0.0,0.0,0.0,0.0,0.0,0.0,0.0,0.0,0.0,0.0,0.0,0.0,0.0,0.0,0.0,0.0,0.0,0.0,0.0,0.0,0.0,0.0,0.0,0.0,0.0,0.0,0.0,0.0,0.0,0.0,0.0,0.0,0.0,0.0,0.0,0.0,0.0,0.0,0.0,0.0,0.0,0.0,0.0,0.0,0.0,0.0,0.0,0.0,0.0,0.0,0.0,0.0,0.0,0.0,0.0,0.0,0.0,0.0,0.0,0.0,0.0,0.0,0.0,0.0,0.0,0.0,0.0,0.0,0.0,0.0,0.0,0.0,0.0,0.0,0.0,0.0,0.0,0.0,0.0,0.0,0.0,0.0,0.0,0.0,0.0,0.0,0.0,0.0,0.0,0.0,0.0,0.0,0.0,0.0,0.0,0.0,0.0,0.0,0.0,0.0,0.0,0.0,0.0,0.0,0.0,0.0,0.0,0.0,0.0,0.0,0.0,0.0,0.0,0.0,0.0,0.0,0.0,0.0,0.0,0.0,0.0,0.0,0.0,0.0,0.0,0.0,0.0,0.0,0.0,0.0,0.0,0.0,0.0,0.0,0.0,0.0,0.0,0.0,0.0,0.0,0.0,0.0,0.0,0.0,0.0,0.0,0.0,0.0,0.0,0.0,0.0,0.0,0.0,0.0,0.0,0.0,0.0,0.0,0.0,0.0,0.0,0.0,0.0,0.0,0.0,0.0,0.0,0.0,0.0,0.0,0.0,0.0,0.0,0.0,0.0,0.0,0.0,0.0,0.0,0.0,0.0,0.0,0.0,0.0,0.0,0.0,0.0,0.0,0.0,0.0,0.0,0.0,0.0,0.0,0.0,0.0,0.0,0.0,0.0,0.0,0.0,0.0,0.0,0.0,0.0,0.0,0.0,0.0,0.0,0.0,0.0,0.0,0.0,0.0,0.0,0.0,0.0,0.0,0.0,0.0,0.0,0.0,0.0,0.0,0.0,0.0,0.0,0.0,0.0,0.0,0.0,0.0,0.0,0.0,0.0,0.0,0.0,0.0,0.0,0.0,0.0,0.0,0.0,0.0,0.0,0.0,0.0,0.0,0.0,0.0,0.0,0.0,0.0,0.0,0.0,0.0,0.0,0.0,0.0,0.0,0.0,0.0,0.0,0.0,0.0,0.0,0.0,0.0,0.0,0.0,0.0,0.0,0.0,0.0,0.0,0.0,0.0,0.0,0.0,0.0,0.0,0.0,0.0,0.0,0.0,0.0,0.0,0.0,0.0,0.0,0.0,0.0,0.0,0.0,0.0,0.0,0.0,0.0,0.0,0.0,0.0,0.0,0.0,0.0,0.0,0.0,0.0,0.0,0.0,0.0,0.0,0.0,0.0,0.0,0.0,0.0,0.0,0.0,0.0,0.0,0.0,0.0,0.0,0.0,0.0,0.0,0.0,0.0,0.0,0.0,0.0,0.0,0.0,0.0,0.0,0.0,0.0,0.0,0.0,0.0,0.0,0.0,0.0,0.0,0.0,0.0,0.0,0.0,0.0,0.0,0.0,0.0,0.0,0.0,0.0,0.0,0.0,0.0,0.0,0.0,0.0,0.0,0.0,0.0,0.0,0.0,0.0,0.0,0.0,0.0,0.0,0.0,0.0,0.0,0.0,0.0,0.0,0.0,0.0,0.0,0.0,0.0,0.0,0.0,0.0,0.0,0.0,0.0,0.0,0.0,0.0,0.0,0.0,0.0,0.0,0.0,0.0,0.0,0.0,0.0,0.0,0.0,0.0,0.0,0.0,0.0,0.0,0.0,0.0,0.0,0.0,0.0,0.0,0.0,0.0,0.0,0.0,0.0,0.0,0.0,0.0,0.0,0.0,0.0,0.0,0.0,0.0,0.0,0.0,0.0,0.0,0.0,0.0,0.0,0.0,0.0,0.0,0.0,0.0,0.0,0.0,0.0,0.0,0.0,0.0,0.0,0.0,0.0,0.0,0.0,0.0,0.0,0.0,0.0,0.0,0.0,0.0,0.0,0.0,0.0,0.0,0.0,0.0,0.0,0.0,0.0,0.0,0.0,0.0,0.0,0.0,0.0,0.0,0.0,0.0,0.0,0.0,0.0,0.0,0.0,0.0,0.0,0.0,0.0,0.0,0.0,0.0,0.0,0.0,0.0,0.0,0.0,0.0,0.0,0.0,0.0,0.0,0.0,0.0,0.0,0.0,0.0,0.0,0.0,0.0,0.0,0.0,0.0,0.0,0.0,0.0,0.0,0.0,0.0,0.0,0.0,0.0,0.0,0.0,0.0,0.0,0.0,0.0,0.0,0.0,0.0,0.0,0.0,0.0,0.0,0.0,0.0,0.0,0.0,0.0,0.0,0.0,0.0,0.0,0.0,0.0,0.0,0.0,0.0,0.0,0.0,0.0,0.0,0.0,0.0,0.0,0.0,0.0,0.0,0.0,0.0,0.0,0.0,0.0,0.0,0.0,0.0,0.0,0.0,0.0,0.0,0.0,0.0,0.0,0.0,0.0,0.0,0.0,0.0,0.0,0.0,0.0,0.0,0.0,0.0,0.0,0.0,0.0,0.0,0.0,0.0,0.0,0.0,0.0,0.0,0.0,0.0,0.0,0.0,0.0,0.0,0.0,0.0,0.0,0.0,0.0,0.0,0.0,0.0,0.0,0.0,0.0,0.0,0.0,0.0,0.0,0.0,0.0,0.0,0.0,0.0,0.0,0.0,0.0,0.0,0.0,0.0,0.0,0.0,0.0,0.0,0.0,0.0,0.0,0.0,0.0,0.0,0.0,0.0,0.0,0.0,0.0,0.0,0.0,0.0,0.0,0.0,0.0,0.0,0.0,0.0,0.0,0.0,0.0,0.0,0.0,0.0,0.0,0.0,0.0,0.0,0.0,0.0,0.0,0.0,0.0,0.0,0.0,0.0,0.0,0.0,0.0,0.0,0.0,0.0,0.0,0.0,0.0,0.0,0.0,0.0,0.0,0.0,0.0,0.0,0.0,0.0,0.0,0.0,0.0,0.0,0.0,0.0,0.0,0.0,0.0,0.0,0.0,0.0,0.0,0.0,0.0,0.0,0.0,0.0,0.0,0.0,0.0,0.0,0.0,0.0,0.0,0.0,0.0,0.0,0.0,0.0,-0.0865,0.0,0.0,0.0,0.0,0.0,0.0,0.0,0.0,0.0,0.0,0.0,0.0,0.0,0.0,0.0,0.0,0.0,0.0,0.0,0.0,0.0,0.0,0.0,0.0,0.0,0.0,0.0,0.0,0.0,0.0,0.0,0.0,0.0,0.0,0.0,0.0,0.0,0.0,0.0,0.0,0.0,0.0,0.0,0.0,0.0,0.0,0.0,0.0,0.0,0.0,0.0,0.0,0.0,0.0,0.0,0.0,0.0,0.0,0.0,0.0,0.0,0.0,0.0,0.0,0.0,0.0,0.0,0.0,0.0,0.0,0.0,0.0,0.0,0.0,0.0,0.0,0.0,0.0,0.0,0.0,0.0,0.0,0.0,0.0,0.0,0.0,0.0,0.0,0.0,0.0,0.0,0.0,0.0,0.0,0.0,0.0,0.0,0.0,0.0,0.0,0.0,0.0,0.0,0.0,0.0,0.0,0.0,0.0,0.0,0.0,0.0112,0.002,-0.015,-0.0328,-0.0473,0.0,0.0,0.0,0.0,0.0,0.0,0.0,0.0,0.0,0.0,0.0,0.0,0.0,0.0,0.0,0.0,0.0,0.0,0.0,0.0,0.0,0.0,0.0,0.0,0.0,0.0,0.0,0.0,0.0,0.0,0.0,0.0,0.0,0.0,0.0,0.0,0.0,0.0,0.0,0.0,0.0,0.0,0.0,0.0,0.0,0.0,0.0,0.0,0.0,0.0,0.0,0.0,0.0,0.0,0.0,0.0,0.0,0.0,0.0,0.0,0.0,0.0,0.0,0.0,0.0,0.0,0.0,0.0,0.0,0.0,0.0,0.0,0.0,0.0,0.0,0.0,0.0,0.0,0.0,0.0,0.0,0.0,0.0,0.0,0.0,0.0,0.0,0.0,0.0,0.0,0.0,0.0,0.0,0.0,0.0,0.0,0.0,0.0,0.0,0.0,0.0,0.0,0.0,0.0,0.0,0.0,0.0,0.0,0.0,0.0,0.0,0.0,0.0368,0.0168,-0.0055,0.0,0.0,0.0,0.0,0.0,0.0,0.0,0.0,0.0,0.0,0.0,0.0,0.0,0.0,0.0,0.0,0.0,0.0,0.0,0.0,0.0,0.0,0.0,0.0,0.0,0.0,0.0,0.0,0.0,0.0,0.0,0.0,0.0,0.0,0.0,0.0,0.0,0.0,0.0,0.0,0.0,0.0,0.0,0.0,0.0,0.0,0.0,0.0,0.0,0.0,0.0,0.0,0.0,0.0,0.0,0.0,0.0,0.0,0.0,0.0,0.0,0.0,0.0,0.0,0.0,0.0,0.0,0.0,0.0,0.0,0.0,0.0,0.0,0.0,0.0,0.0,0.0,0.0,0.0,0.0,0.0,0.0,0.0,0.0,0.0,0.0,0.0,0.0,0.0,0.0,0.0,0.0,0.0,0.0,0.0,0.0,0.0,0.0,0.0,0.0,0.0,0.0,0.0,0.0,0.0,0.0,0.0,0.0,0.0,0.0,0.0916,0.1037,0.0914,0.0,0.0367,0.0,0.0,0.0,0.0,0.0,0.0,0.0,0.0,0.0,0.0,0.0,0.0,0.0,0.0,0.0,0.0,0.0,0.0,0.0,0.0,0.0,0.0,0.0,0.0,0.0,0.0,0.0,0.0,0.0,0.0,0.0,0.0,0.0,0.0,0.0,0.0,0.0,0.0,0.0,0.0,0.0,0.0,0.0,0.0,0.0,0.0,0.0,0.0,0.0,0.0,0.0,0.0,0.0,0.0,0.0,0.0,0.0,0.0,0.0,0.0,0.0,0.0,0.0,0.0,0.0,0.0,0.0,0.0,0.0,0.0,0.0,0.0,0.0,0.0,0.0,0.0,0.0,0.0,0.0,0.0,0.0,0.0,0.0,0.0,0.0,0.0,0.0,0.0,0.0,0.0,0.0,0.0,0.0,0.0,0.0,0.0,0.0,0.0,0.0,0.0,0.0,0.0,0.0,0.0,0.0,0.0,0.0,0.0,0.0,0.0,0.1332,0.1407,0.1113,0.0843,0.0,0.0,0.0,0.0,0.0,0.0,0.0,0.0,0.0,0.0,0.0,0.0,0.0,0.0,0.0,0.0,0.0,0.0,0.0,0.0,0.0,0.0,0.0,0.0,0.0,0.0,0.0,0.0,0.0,0.0,0.0,0.0,0.0,0.0,0.0,0.0,0.0,0.0,0.0,0.0,0.0,0.0,0.0,0.0,0.0,0.0,0.0,0.0,0.0,0.0,0.0,0.0,0.0,0.0,0.0,0.0,0.0,0.0,0.0,0.0,0.0,0.0,0.0,0.0,0.0,0.0,0.0,0.0,0.0,0.0,0.0,0.0,0.0,0.0,0.0,0.0,0.0,0.0,0.0,0.0,0.0,0.0,0.0,0.0,0.0,0.0,0.0,0.0,0.0,0.0,0.0,0.0,0.0,0.0,0.0,0.0,0.0,0.0,0.0,0.0,0.0,0.0,0.0,0.0,0.0,0.0,0.0,0.0,0.0,0.0,0.1577,0.1701,0.1755,0.132,0.1025,0.0932,0.0,0.0,0.0,0.0,0.0,0.0,0.0,0.0,0.0,0.0,0.0,0.0,0.0,0.0,0.0,0.0,0.0,0.0,0.0,0.0,0.0,0.0,0.0,0.0,0.0,0.0,0.0,0.0,0.0,0.0,0.0,0.0,0.0,0.0,0.0,0.0,0.0,0.0,0.0,0.0,0.0,0.0,0.0,0.0,0.0,0.0,0.0,0.0,0.0,0.0,0.0,0.0,0.0,0.0,0.0,0.0,0.0,0.0,0.0,0.0,0.0,0.0,0.0,0.0,0.0,0.0,0.0,0.0,0.0,0.0,0.0,0.0,0.0,0.0,0.0,0.0,0.0,0.0,0.0,0.0,0.0,0.0,0.0,0.0,0.0,0.0,0.0,0.0,0.0,0.0,0.0,0.0,0.0,0.0,0.0,0.0,0.0,0.0,0.0,0.0,0.0,0.0,0.0,0.0,0.0,0.0,0.0,0.0,0.0,0.1818,0.1991,0.2144,0.1589,0.1276,0.0,0.0,0.0,0.0,0.0,0.0,0.0,0.0,0.0,0.0,0.0,0.0,0.0,0.0,0.0,0.0,0.0,0.0,0.0,0.0,0.0,0.0,0.0,0.0,0.0,0.0,0.0,0.0,0.0,0.0,0.0,0.0,0.0,0.0,0.0,0.0,0.0,0.0,0.0,0.0,0.0,0.0,0.0,0.0,0.0,0.0,0.0,0.0,0.0,0.0,0.0,0.0,0.0,0.0,0.0,0.0,0.0,0.0,0.0,0.0,0.0,0.0,0.0,0.0,0.0,0.0,0.0,0.0,0.0,0.0,0.0,0.0,0.0,0.0,0.0,0.0,0.0,0.0,0.0,0.0,0.0,0.0,0.0,0.0,0.0,0.0,0.0,0.0,0.0,0.0,0.0,0.0,0.0,0.0,0.0,0.0,0.0,0.0,0.0,0.0,0.0,0.0,0.0,0.0,0.0,0.0,0.0,0.0,0.0,0.1635,0.1851,0.2027,0.2166,0.1793,0.1511,0.0,0.0,0.0,0.0,0.0,0.0,0.0,0.0,0.0,0.0,0.0,0.0,0.0,0.0,0.0,0.0,0.0,0.0,0.0,0.0,0.0,0.0,0.0,0.0,0.0,0.0,0.0,0.0,0.0,0.0,0.0,0.0,0.0,0.0,0.0,0.0,0.0,0.0,0.0,0.0,0.0,0.0,0.0,0.0,0.0,0.0,0.0,0.0,0.0,0.0,0.0,0.0,0.0,0.0,0.0,0.0,0.0,0.0,0.0,0.0,0.0,0.0,0.0,0.0,0.0,0.0,0.0,0.0,0.0,0.0,0.0,0.0,0.0,0.0,0.0,0.0,0.0,0.0,0.0,0.0,0.0,0.0,0.0,0.0,0.0,0.0,0.0,0.0,0.0,0.0,0.0,0.0,0.0,0.0,0.0,0.0,0.0,0.0,0.0,0.0,0.0,0.0,0.0,0.0,0.0,0.0,0.0,0.0,0.0,0.177,0.0,0.2103,0.0,0.192,0.1691,0.0,0.0,0.0,0.0,0.0,0.0,0.0,0.0,0.0,0.0,0.0,0.0,0.0,0.0,0.0,0.0,0.0,0.0,0.0,0.0,0.0,0.0,0.0,0.0,0.0,0.0,0.0,0.0,0.0,0.0,0.0,0.0,0.0,0.0,0.0,0.0,0.0,0.0,0.0,0.0,0.0,0.0,0.0,0.0,0.0,0.0,0.0,0.0,0.0,0.0,0.0,0.0,0.0,0.0,0.0,0.0,0.0,0.0,0.0,0.0,0.0,0.0,0.0,0.0,0.0,0.0,0.0,0.0,0.0,0.0,0.0,0.0,0.0,0.0,0.0,0.0,0.0,0.0,0.0,0.0,0.0,0.0,0.0,0.0,0.0,0.0,0.0,0.0,0.0,0.0,0.0,0.0,0.0,0.0,0.0,0.0,0.0,0.0,0.0,0.0,0.0,0.0,0.0,0.0,0.0,0.0,0.0,0.0,0.1565,0.2071,0.2154,0.2231,0.2297,0.2037,0.1808,0.0,0.0,0.0,0.0,0.0,0.0,0.0,0.0,0.0,0.0,0.0,0.0,0.0,0.0,0.0,0.0,0.0,0.0,0.0,0.0,0.0,0.0,0.0,0.0,0.0,0.0,0.0,0.0,0.0,0.0,0.0,0.0,0.0,0.0,0.0,0.0,0.0,0.0,0.0,0.0,0.0,0.0,0.0,0.0,0.0,0.0,0.0,0.0,0.0,0.0,0.0,0.0,0.0,0.0,0.0,0.0,0.0,0.0,0.0,0.0,0.0,0.0,0.0,0.0,0.0,0.0,0.0,0.0,0.0,0.0,0.0,0.0,0.0,0.0,0.0,0.0,0.0,0.0,0.0,0.0,0.0,0.0,0.0,0.0,0.0,0.0,0.0,0.0,0.0,0.0,0.0,0.0,0.0,0.0,0.0,0.0,0.0,0.0,0.0,0.0,0.0,0.0,0.0,0.0,0.0,0.0,0.0,0.0,0.0,0.196,0.2013,0.2105,0.221,0.2064,0.1872,0.0,0.0,0.0,0.0,0.0,0.0,0.0,0.0,0.0,0.0,0.0,0.0,0.0,0.0,0.0,0.0,0.0,0.0,0.0,0.0,0.0,0.0,0.0,0.0,0.0,0.0,0.0,0.0,0.0,0.0,0.0,0.0,0.0,0.0,0.0,0.0,0.0,0.0,0.0,0.0,0.0,0.0,0.0,0.0,0.0,0.0,0.0,0.0,0.0,0.0,0.0,0.0,0.0,0.0,0.0,0.0,0.0,0.0,0.0,0.0,0.0,0.0,0.0,0.0,0.0,0.0,0.0,0.0,0.0,0.0,0.0,0.0,0.0,0.0,0.0,0.0,0.0,0.0,0.0,0.0,0.0,0.0,0.0,0.0,0.0,0.0,0.0,0.0,0.0,0.0,0.0,0.0,0.0,0.0,0.0,0.0,0.0,0.0,0.0,0.0,0.0,0.0,0.0,0.0,0.0,0.0,0.0,0.0,0.0,0.1933,0.2021,0.2121,0.2199,0.2123,0.1967,0.171,0.0,0.0,0.0,0.0,0.0,0.0,0.0,0.0,0.0,0.0,0.0,0.0,0.0,0.0,0.0,0.0,0.0,0.0,0.0,0.0,0.0,0.0,0.0,0.0,0.0,0.0,0.0,0.0,0.0,0.0,0.0,0.0,0.0,0.0,0.0,0.0,0.0,0.0,0.0,0.0,0.0,0.0,0.0,0.0,0.0,0.0,0.0,0.0,0.0,0.0,0.0,0.0,0.0,0.0,0.0,0.0,0.0,0.0,0.0,0.0,0.0,0.0,0.0,0.0,0.0,0.0,0.0,0.0,0.0,0.0,0.0,0.0,0.0,0.0,0.0,0.0,0.0,0.0,0.0,0.0,0.0,0.0,0.0,0.0,0.0,0.0,0.0,0.0,0.0,0.0,0.0,0.0,0.0,0.0,0.0,0.0,0.0,0.0,0.0,0.0,0.0,0.0,0.0,0.0,0.0,0.0,0.0,0.0,0.2008,0.2163,0.2227,0.2196,0.2196,0.2047,0.0,0.0,0.0,0.0,0.0,0.0,0.0,0.0,0.0,0.0,0.0,0.0,0.0,0.0,0.0,0.0,0.0,0.0,0.0,0.0,0.0,0.0,0.0,0.0,0.0,0.0,0.0,0.0,0.0,0.0,0.0,0.0,0.0,0.0,0.0,0.0,0.0,0.0,0.0,0.0,0.0,0.0,0.0,0.0,0.0,0.0,0.0,0.0,0.0,0.0,0.0,0.0,0.0,0.0,0.0,0.0,0.0,0.0,0.0,0.0,0.0,0.0,0.0,0.0,0.0,0.0,0.0,0.0,0.0,0.0,0.0,0.0,0.0,0.0,0.0,0.0,0.0,0.0,0.0,0.0,0.0,0.0,0.0,0.0,0.0,0.0,0.0,0.0,0.0,0.0,0.0,0.0,0.0,0.0,0.0,0.0,0.0,0.0,0.0,0.0,0.0,0.0,0.0,0.0,0.0,0.0,0.0,0.0,0.0,0.2203,0.2354,0.2378,0.2286,0.2281,0.2216,0.0,0.0,0.0,0.0,0.0,0.0,0.0,0.0,0.0,0.0,0.0,0.0,0.0,0.0,0.0,0.0,0.0,0.0,0.0,0.0,0.0,0.0,0.0,0.0,0.0,0.0,0.0,0.0,0.0,0.0,0.0,0.0,0.0,0.0,0.0,0.0,0.0,0.0,0.0,0.0,0.0,0.0,0.0,0.0,0.0,0.0,0.0,0.0,0.0,0.0,0.0,0.0,0.0,0.0,0.0,0.0,0.0,0.0,0.0,0.0,0.0,0.0,0.0,0.0,0.0,0.0,0.0,0.0,0.0,0.0,0.0,0.0,0.0,0.0,0.0,0.0,0.0,0.0,0.0,0.0,0.0,0.0,0.0,0.0,0.0,0.0,0.0,0.0,0.0,0.0,0.0,0.0,0.0,0.0,0.0,0.0,0.0,0.0,0.0,0.0,0.0,0.0,0.0,0.0,0.0,0.0,0.0,0.0,0.1863,0.2369,0.2448,0.2513,0.2614,0.2523,0.2408,0.0,0.0,0.0,0.0,0.0,0.0,0.0,0.0,0.0,0.0,0.0,0.0,0.0,0.0,0.0,0.0,0.0,0.0,0.0,0.0,0.0,0.0,0.0,0.0,0.0,0.0,0.0,0.0,0.0,0.0,0.0,0.0,0.0,0.0,0.0,0.0,0.0,0.0,0.0,0.0,0.0,0.0,0.0,0.0,0.0,0.0,0.0,0.0,0.0,0.0,0.0,0.0,0.0,0.0,0.0,0.0,0.0,0.0,0.0,0.0,0.0,0.0,0.0,0.0,0.0,0.0,0.0,0.0,0.0,0.0,0.0,0.0,0.0,0.0,0.0,0.0,0.0,0.0,0.0,0.0,0.0,0.0,0.0,0.0,0.0,0.0,0.0,0.0,0.0,0.0,0.0,0.0,0.0,0.0,0.0,0.0,0.0,0.0,0.0,0.0,0.0,0.0,0.0,0.0,0.0,0.0,0.0,0.0,0.191,0.2504,0.2559,0.2725,0.2981,0.2834,0.2625,0.0,0.0,0.0,0.0,0.0,0.0,0.0,0.0,0.0,0.0,0.0,0.0,0.0,0.0,0.0,0.0,0.0,0.0,0.0,0.0,0.0,0.0,0.0,0.0,0.0,0.0,0.0,0.0,0.0,0.0,0.0,0.0,0.0,0.0,0.0,0.0,0.0,0.0,0.0,0.0,0.0,0.0,0.0,0.0,0.0,0.0,0.0,0.0,0.0,0.0,0.0,0.0,0.0,0.0,0.0,0.0,0.0,0.0,0.0,0.0,0.0,0.0,0.0,0.0,0.0,0.0,0.0,0.0,0.0,0.0,0.0,0.0,0.0,0.0,0.0,0.0,0.0,0.0,0.0,0.0,0.0,0.0,0.0,0.0,0.0,0.0,0.0,0.0,0.0,0.0,0.0,0.0,0.0,0.0,0.0,0.0,0.0,0.0,0.0,0.0,0.0,0.0,0.0,0.0,0.0,0.0,0.0,0.0,0.2024,0.2576,0.2936,0.3131,0.3156,0.3016,0.2868,0.0,0.0,0.0,0.0,0.0,0.0,0.0,0.0,0.0,0.0,0.0,0.0,0.0,0.0,0.0,0.0,0.0,0.0,0.0,0.0,0.0,0.0,0.0,0.0,0.0,0.0,0.0,0.0,0.0,0.0,0.0,0.0,0.0,0.0,0.0,0.0,0.0,0.0,0.0,0.0,0.0,0.0,0.0,0.0,0.0,0.0,0.0,0.0,0.333,0.0,0.0,0.0,0.0,0.0,0.0,0.0,0.0,0.0,0.0,0.0,0.0,0.0,0.0,0.0,0.0,0.0,0.0,0.0,0.0,0.0,0.0,0.0,0.0,0.0,0.0,0.0,0.0,0.0,0.0,0.0,0.0,0.0,0.0,0.0,0.0,0.0,0.0,0.0,0.0,0.0,0.0,0.0,0.0,0.0,0.0,0.0,0.0,0.0,0.0,0.0,0.0,0.0,0.0,0.0,0.0,0.0,0.0,0.0,0.2162,0.2804,0.3143,0.3343,0.3465,0.3422,0.3223,0.0,0.0,0.0,0.0,0.0,0.0,0.0,0.0,0.0,0.0,0.0,0.0,0.0,0.0,0.0,0.0,0.0,0.0,0.0,0.0,0.0,0.0,0.0,0.0,0.0,0.0,0.0,0.0,0.0,0.0,0.0,0.0,0.0,0.0,0.0,0.0,0.0,0.0,0.0,0.0,0.0,0.0,0.0,0.0,0.0,0.0,0.0,0.0,0.0,0.0,0.0,0.0,0.0,0.0,0.0,0.0,0.0,0.0,0.0,0.0,0.0,0.0,0.0,0.0,0.0,0.0,0.0,0.0,0.0,0.0,0.0,0.0,0.0,0.0,0.0,0.0,0.0,0.0,0.0,0.0,0.0,0.0,0.0,0.0,0.0,0.0,0.0,0.0,0.0,0.0,0.0,0.0,0.0,0.0,0.0,0.0,0.0,0.0,0.0,0.0,0.0,0.0,0.0,0.0,0.0,0.0,0.0,0.1818,0.2317,0.3075,0.3288,0.3511,0.3792,0.3817,0.3549,0.2962,0.0,0.0,0.0,0.0,0.0,0.0,0.0,0.0,0.0,0.0,0.0,0.0,0.0,0.0,0.0,0.0,0.0,0.0,0.0,0.0,0.0,0.0,0.0,0.0,0.0,0.0,0.0,0.0,0.0,0.0,0.0,0.0,0.0,0.0,0.0,0.0,0.0,0.0,0.2336,0.2686,0.0,0.0,0.0,0.0,0.0,0.0,0.0,0.0,0.36,0.0,0.0,0.0,0.0,0.0,0.0,0.0,0.0,0.0,0.0,0.0,0.0,0.0,0.0,0.0,0.0,0.0,0.0,0.0,0.0,0.0,0.0,0.0,0.0,0.0,0.0,0.0,0.0,0.0,0.0,0.0,0.0,0.0,0.0,0.0,0.0,0.0,0.0,0.0,0.0,0.0,0.0,0.0,0.0,0.0,0.0,0.0,0.0,0.0,0.0,0.0,0.0,0.0,0.0,0.0,0.0,0.1586,0.1955,0.2447,0.3086,0.3519,0.3728,0.3795,0.3916,0.3691,0.3106,0.0,0.0,0.0,0.0,0.0,0.0,0.0,0.0,0.0,0.0,0.0,0.0,0.0,0.0,0.0,0.0,0.0,0.0,0.0,0.0,0.0,0.0,0.0,0.0,0.0,0.0,0.0,0.0,0.0,0.0,0.0,0.0,0.0,0.0,0.0,0.0,0.0,0.0,0.0,0.2968,0.3102,0.0,0.0,0.0,0.0,0.0,0.0,0.0,0.0,0.3622,0.0,0.0,0.0,0.0,0.0,0.0,0.0,0.0,0.0,0.0,0.0,0.0,0.0,0.0,0.0,0.0,0.0,0.0,0.0,0.0,0.0,0.0,0.0,0.0,0.0,0.0,0.0,0.0,0.0,0.0,0.0,0.0,0.0,0.0,0.0,0.0,0.0,0.0,0.0,0.0,0.0,0.0,0.0,0.0,0.0,0.0,0.0,0.0,0.0,0.0,0.0,0.0,0.0,0.0,0.0,0.1712,0.2123,0.2661,0.3291,0.362,0.3829,0.3926,0.3969,0.3711,0.0,0.0,0.0,0.0,0.0,0.0,0.0,0.0,0.0,0.0,0.0,0.0,0.0,0.0,0.0,0.0,0.0,0.0,0.0,0.0,0.0,0.0,0.0,0.0,0.0,0.0,0.0,0.0,0.0,0.0,0.0,0.0,0.0,0.0,0.0,0.0,0.0,0.0,0.0,0.0,0.3013,0.3158,0.3289,0.0,0.0,0.0,0.0,0.0,0.0,0.3641,0.366,0.0,0.0,0.0,0.0,0.0,0.0,0.0,0.0,0.0,0.0,0.0,0.0,0.0,0.0,0.0,0.0,0.0,0.0,0.0,0.0,0.0,0.0,0.0,0.0,0.0,0.0,0.0,0.0,0.0,0.0,0.0,0.0,0.0,0.0,0.0,0.0,0.0,0.0,0.0,0.0,0.0,0.0,0.0,0.0,0.0,0.0,0.0,0.0,0.0,0.0,0.0,0.0,0.0,0.0,0.0,0.1816,0.2287,0.2859,0.3477,0.3724,0.3887,0.4004,0.3994,0.3714,0.0,0.0,0.0,0.0,0.0,0.0,0.0,0.0,0.0,0.0,0.0,0.0,0.0,0.0,0.0,0.0,0.0,0.0,0.0,0.0,0.0,0.0,0.0,0.0,0.0,0.0,0.0,0.0,0.0,0.0,0.0,0.0,0.0,0.0,0.0,0.0,0.0,0.0,0.0,0.0,0.0,0.3168,0.3347,0.3503,0.0,0.0,0.0,0.0,0.36,0.366,0.0,0.0,0.0,0.0,0.0,0.0,0.0,0.0,0.0,0.0,0.0,0.0,0.0,0.0,0.0,0.0,0.0,0.0,0.0,0.0,0.0,0.0,0.0,0.0,0.0,0.0,0.0,0.0,0.0,0.0,0.0,0.0,0.0,0.0,0.0,0.0,0.0,0.0,0.0,0.0,0.0,0.0,0.0,0.0,0.0,0.0,0.0,0.0,0.0,0.0,0.0,0.0,0.0,0.0,0.0,0.0,0.1884,0.2409,0.2958,0.3483,0.3818,0.3984,0.4004,0.3994,0.3714,0.0,0.0,0.0,0.0,0.0,0.0,0.0,0.0,0.0,0.0,0.0,0.0,0.0,0.0,0.0,0.0,0.0,0.0,0.0,0.0,0.0,0.0,0.0,0.0,0.0,0.0,0.0,0.0,0.0,0.0,0.0,0.0,0.0,0.0,0.0,0.0,0.0,0.0,0.0,0.0,0.0,0.3225,0.3535,0.3593,0.36,0.0,0.0,0.36,0.36,0.366,0.0,0.0,0.0,0.0,0.0,0.0,0.0,0.0,0.0,0.0,0.0,0.0,0.0,0.0,0.0,0.0,0.0,0.0,0.0,0.0,0.0,0.0,0.0,0.0,0.0,0.0,0.0,0.0,0.0,0.0,0.0,0.0,0.0,0.0,0.0,0.0,0.0,0.0,0.0,0.0,0.0,0.0,0.0,0.0,0.0,0.0,0.0,0.0,0.0,0.0,0.0,0.0,0.0,0.0,0.0,0.1505,0.2002,0.2521,0.3051,0.3586,0.386,0.4,0.4004,0.3994,0.3714,0.0,0.0,0.0,0.0,0.0,0.0,0.0,0.0,0.0,0.0,0.0,0.0,0.0,0.0,0.0,0.0,0.0,0.0,0.0,0.0,0.0,0.0,0.0,0.0,0.0,0.0,0.0,0.0,0.0,0.0,0.0,0.0,0.0,0.0,0.0,0.0,0.0,0.0,0.0,0.0,0.0,0.0,0.3659,0.3723,0.0,0.0,0.0,0.3805,0.3829,0.0,0.0,0.0,0.0,0.0,0.0,0.0,0.0,0.0,0.0,0.0,0.0,0.0,0.0,0.0,0.0,0.0,0.0,0.0,0.0,0.0,0.0,0.0,0.0,0.0,0.0,0.0,0.0,0.0,0.0,0.0,0.0,0.0,0.0,0.0,0.0,0.0,0.0,0.0,0.0,0.0,0.0,0.0,0.0,0.0,0.0,0.0,0.0,0.0,0.0,0.0,0.0,0.0,0.0,0.0,0.0,0.0,0.2096,0.263,0.3151,0.3686,0.3886,0.4019,0.4036,0.4039,0.0,0.0,0.0,0.0,0.0,0.0,0.0,0.0,0.0,0.0,0.0,0.0,0.0,0.0,0.0,0.0,0.0,0.0,0.0,0.0,0.0,0.0,0.0,0.0,0.0,0.0,0.0,0.2756,0.0,0.0,0.0,0.0,0.0,0.0,0.0,0.0,0.0,0.0,0.0,0.0,0.0,0.0,0.3608,0.3781,0.3826,0.389,0.0,0.0,0.3981,0.3968,0.4013,0.4066,0.0,0.0,0.0,0.0,0.0,0.0,0.0,0.0,0.0,0.0,0.0,0.0,0.0,0.0,0.0,0.0,0.0,0.0,0.0,0.0,0.0,0.0,0.0,0.0,0.0,0.0,0.0,0.0,0.0,0.0,0.0,0.0,0.0,0.0,0.0,0.0,0.0,0.0,0.0,0.0,0.0,0.0,0.0,0.0,0.0,0.0,0.0,0.0,0.0,0.0,0.0,0.0,0.0,0.0,0.0,0.2077,0.2619,0.3151,0.3689,0.3886,0.4038,0.4184,0.4068,0.3846,0.0,0.0,0.0,0.0,0.0,0.0,0.0,0.0,0.0,0.0,0.0,0.0,0.0,0.0,0.0,0.0,0.0,0.0,0.0,0.0,0.0,0.0,0.0,0.0,0.0,0.0,0.0,0.0,0.0,0.0,0.0,0.0,0.0,0.0,0.0,0.0,0.0,0.0,0.0,0.0,0.0,0.372,0.3791,0.3914,0.3984,0.0,0.0,0.3972,0.3829,0.3923,0.4006,0.3924,0.0,0.0,0.0,0.0,0.0,0.0,0.0,0.0,0.0,0.0,0.0,0.0,0.0,0.0,0.0,0.0,0.0,0.0,0.0,0.0,0.0,0.0,0.0,0.0,0.0,0.0,0.0,0.0,0.0,0.0,0.0,0.0,0.0,0.0,0.0,0.0,0.0,0.0,0.0,0.0,0.0,0.0,0.0,0.0,0.0,0.0,0.0,0.0,0.0,0.0,0.0,0.0,0.0,0.1559,0.2107,0.2713,0.3246,0.3686,0.397,0.4151,0.42,0.405,0.3859,0.0,0.0,0.0,0.0,0.0,0.0,0.0,0.0,0.0,0.0,0.0,0.0,0.0,0.0,0.0,0.0,0.0,0.0,0.0,0.0,0.0,0.0,0.0,0.0,0.0,0.0,0.0,0.0,0.2837,0.2851,0.3079,0.0,0.0,0.0,0.0,0.0,0.0,0.0,0.0,0.0,0.0,0.3963,0.4039,0.407,0.0,0.0,0.4084,0.4002,0.3829,0.3853,0.3865,0.3855,0.404,0.0,0.0,0.0,0.0,0.0,0.0,0.0,0.0,0.0,0.0,0.0,0.0,0.0,0.0,0.0,0.0,0.0,0.0,0.0,0.0,0.0,0.0,0.0,0.0,0.0,0.0,0.0,0.0,0.0,0.0,0.0,0.0,0.0,0.0,0.0,0.0,0.0,0.0,0.0,0.0,0.0,0.0,0.0,0.0,0.0,0.0,0.0,0.0,0.0,0.0,0.0,0.0,0.158,0.2109,0.2762,0.3293,0.3705,0.4023,0.4228,0.4284,0.4099,0.3921,0.0,0.0,0.0,0.0,0.0,0.0,0.0,0.0,0.0,0.0,0.0,0.0,0.0,0.0,0.0,0.0,0.0,0.0,0.0,0.0,0.0,0.0,0.0,0.0,0.0,0.0,0.0,0.0,0.2875,0.2846,0.3004,0.0,0.0,0.0,0.0,0.0,0.0,0.0,0.0,0.0,0.0,0.4108,0.4141,0.4124,0.4111,0.4092,0.4036,0.3942,0.3707,0.3696,0.3681,0.3688,0.0,0.0,0.0,0.0,0.0,0.0,0.0,0.0,0.0,0.0,0.0,0.0,0.0,0.0,0.0,0.0,0.0,0.0,0.0,0.0,0.0,0.0,0.0,0.0,0.0,0.0,0.0,0.0,0.0,0.0,-0.2234,0.0,0.0,0.0,0.0,0.0,0.0,0.0,0.0,0.0,0.0,0.0,0.0,0.0,0.0,0.0,0.0,0.0,0.0,0.0,0.0,0.0,0.0,0.0,0.2107,0.2762,0.3296,0.3689,0.4023,0.4298,0.4474,0.4175,0.3991,0.3967,0.0,0.0,0.0,0.0,0.0,0.0,0.0,0.0,0.0,0.0,0.0,0.0,0.0,0.0,0.0,0.0,0.0,0.0,0.0,0.0,0.0,0.0,0.0,0.0,0.0,0.0,0.2907,0.2837,0.281,0.0,0.0,0.0,0.0,0.0,0.0,0.0,0.0,0.0,0.0,0.408,0.4131,0.401,0.3986,0.3963,0.3831,0.3813,0.3699,0.3441,0.3395,0.3399,0.0,0.0,0.0,0.0,0.0,0.0,0.0,0.0,0.0,0.0,0.0,0.0,0.0,0.0,0.0,0.0,0.0,0.0,0.0,0.0,0.0,0.0,0.0,0.0,0.0,0.0,0.0,-0.4418,-0.3785,0.0,0.0,0.0,0.0,0.0,0.0,0.0,0.0,0.0,0.0,0.0,0.1777,0.211,0.0,0.0,0.0,0.0,0.0,0.0,0.0,0.0,0.0,0.0,0.0,0.0,0.1759,0.2233,0.2893,0.3411,0.3755,0.4173,0.4439,0.4491,0.4247,0.4008,0.3737,0.0,0.0,0.0,0.0,0.0,0.0,0.0,0.0,0.0,0.0,0.0,0.0,0.0,0.0,0.0,0.0,0.0,0.0,0.0,0.0,0.0,0.0,0.0,0.0,0.0,0.2843,0.0,0.0,0.0,0.0,0.0,0.0,0.0,0.0,0.0,0.0,0.0,0.4039,0.41,0.4166,0.4121,0.3884,0.385,0.3751,0.0,0.0,0.0,0.0,0.0,0.0,0.0,0.0,0.0,0.0,0.0,0.0,0.0,0.0,0.4567,0.5482,0.5752,0.5898,0.6252,0.0,0.0,0.0,0.0,0.0,0.0,0.0,0.0,0.0,0.0,0.0,0.0,0.0,0.0,0.0,0.0,-0.3749,0.0,0.0,0.0,0.0,0.0,0.0,0.0,0.0,0.0811,0.1409,0.2043,0.2393,0.2587,0.0,0.2499,0.2182,0.0,0.0,0.0,0.0,0.0,0.0,0.0,0.0,0.1841,0.2373,0.2987,0.3453,0.379,0.4273,0.4491,0.4487,0.4324,0.4035,0.3666,0.3412,0.312,0.0,0.0,0.0,0.0,0.0,0.0,0.0,0.0,0.0,0.0,0.0,0.0,0.0,0.0,0.0,0.0,0.0,0.0,0.0,0.0,0.0,0.0,0.0,0.2974,0.0,0.0,0.0,0.0,0.0,0.0,0.0,0.0,0.0,0.414,0.4083,0.4094,0.4189,0.4072,0.3926,0.3763,0.0,0.0,0.0,0.0,0.0,0.0,0.0,0.2523,0.2381,0.2481,0.2523,0.2438,0.2543,0.269,0.2846,0.0,0.0,0.4585,0.4863,0.5022,0.5294,0.5355,0.5415,0.5574,0.554,0.5438,0.0,0.0,0.0,0.0,0.0,0.0,0.0,0.0,-0.6083,-0.5268,0.0,-0.419,0.0,0.0,0.0,0.0,0.0,-0.0913,0.0,0.0,0.0943,0.154,0.2118,0.2478,0.2704,0.288,0.2777,0.2574,0.23,0.1713,0.0,0.0,0.0,0.0,0.0,0.0,0.1912,0.25,0.3019,0.3462,0.3796,0.4253,0.4491,0.4487,0.4324,0.4085,0.3822,0.3679,0.3357,0.2856,0.261,0.0,0.0,0.0,0.0,0.0,0.0,0.0,0.0,0.0,0.0,0.0,0.0,0.0,0.0,0.0,0.0,0.0,0.0,0.0,0.0,0.3353,0.0,0.0,0.0,0.0,0.0,0.0,0.0,0.0,0.0,0.0,0.4393,0.4161,0.4038,0.4157,0.0,0.0,0.0,0.0,0.2845,0.2699,0.2554,0.2441,0.2301,0.2263,0.2213,0.2091,0.0,0.0,0.2055,0.2049,0.2094,0.2228,0.2362,0.2709,0.3532,0.374,0.386,0.4133,0.42,0.425,0.4403,0.4461,0.4485,-1.1634,0.0,0.0,0.0,0.0,-0.8584,-0.7717,-0.6881,-0.6065,-0.5315,-0.4602,-0.4254,0.0,0.0,0.0,0.0,0.0,0.0,-0.0347,0.0397,0.1135,0.1836,0.2465,0.2795,0.3057,0.3247,0.3112,0.2952,0.2793,0.2283,0.1851,0.1493,0.0,0.0,0.0,0.0,0.2172,0.2625,0.3034,0.3456,0.3932,0.4168,0.4359,0.4487,0.4321,0.418,0.4089,0.3698,0.339,0.3217,0.2567,0.0,0.0,0.0,0.0,0.0,0.0,0.0,0.0,0.0,0.0,0.0,0.0,0.0,0.0,0.0,0.0,0.0,0.0,0.0,0.3293,0.3404,0.3443,0.0,0.0,0.0,0.0,0.0,0.0,0.0,0.0,0.0,0.4391,0.4238,0.402,0.0,0.0,0.333,0.2998,0.2631,0.2351,0.2168,0.0,0.0,0.0,0.174,0.1706,0.1618,0.1476,0.1346,0.1253,0.1232,0.1277,0.1359,0.1407,0.1516,0.1831,0.2522,0.3042,0.3307,0.334,0.3405,0.3531,0.3503,0.3446,-1.105,-1.0542,-1.027,-0.9761,-0.9056,-0.8169,-0.7344,-0.6581,-0.581,-0.5099,-0.4433,-0.4044,-0.3575,-0.3086,-0.2696,0.0,0.0,0.0,-0.0232,0.0568,0.1256,0.1957,0.264,0.2936,0.3237,0.3474,0.339,0.3276,0.3085,0.2791,0.2435,0.1997,0.0,0.0,0.1796,0.1978,0.2325,0.2724,0.3049,0.3401,0.3827,0.4055,0.4301,0.4487,0.4375,0.4281,0.4194,0.3837,0.3522,0.3287,0.2585,0.1979,0.0,0.0,0.0,0.0,0.0,0.0,0.0,0.0,0.0,0.0,0.0,0.1935,0.2192,0.0,0.0,0.0,0.3347,0.357,0.3681,0.3839,0.0,0.0,0.0,0.0,0.0,0.0,0.0,0.4394,0.4428,0.4369,0.4202,0.3999,0.3766,0.3495,0.3215,0.2928,0.2617,0.0,0.1966,0.1844,0.1642,0.1491,0.1406,0.1291,0.1245,0.1129,0.0964,0.0819,0.075,0.0723,0.0762,0.0781,0.0787,0.0824,0.0872,0.1412,0.1949,0.2252,0.2319,0.2385,0.2517,0.2551,0.2555,-1.0689,-0.9726,-0.9557,-0.9144,-0.8598,-0.778,-0.6959,-0.6085,-0.5419,-0.472,-0.4081,-0.3679,-0.3296,-0.2903,-0.2051,0.0,-0.1167,-0.0631,0.0027,0.0723,0.1325,0.2015,0.2691,0.2965,0.3274,0.3613,0.3613,0.3468,0.3231,0.3192,0.3003,0.2629,0.2117,0.1939,0.2104,0.2137,0.2341,0.279,0.3038,0.3307,0.3608,0.3999,0.4273,0.446,0.446,0.4375,0.4217,0.4039,0.3698,0.3126,0.2561,0.1868,0.1097,0.0,0.0,0.0,0.0,0.0,0.0,0.0,0.0,0.0,0.0,0.0,0.0,0.0,0.0,0.0,0.3687,0.0,0.4313,0.4488,0.0,0.0,0.0,0.4483,0.4357,0.4662,0.4719,0.4264,0.0,0.0,0.3829,0.0,0.3327,0.3298,0.284,0.2448,0.2334,0.1906,0.1632,0.1593,0.1324,0.1141,0.1098,0.0982,0.083,0.0677,0.0497,0.0441,0.0451,0.0454,0.0459,0.0469,0.0472,0.0472,0.0472,0.0539,0.064,0.1144,0.1244,0.1312,0.1513,0.1649,0.1749,-1.0931,-1.0115,-0.9533,-0.8872,-0.818,-0.7442,-0.6823,-0.6279,-0.5455,-0.4755,-0.4136,-0.3767,-0.3176,-0.2441,-0.1947,-0.1447,-0.1028,-0.0491,0.0083,0.0721,0.1423,0.2099,0.2691,0.2965,0.3274,0.3585,0.3613,0.3566,0.3481,0.331,0.3093,0.2904,0.2457,0.2291,0.2314,0.2276,0.2433,0.2795,0.2814,0.3081,0.3583,0.3885,0.4107,0.4276,0.4276,0.426,0.4197,0.388,0.3545,0.3166,0.2211,0.1384,0.0737,-0.0128,0.0,0.0,0.0,0.0,0.0,0.0,0.0,0.0,0.0,0.1423,0.2039,0.0,0.2927,0.0,0.398,0.4391,0.4586,0.4595,0.0,0.0,0.48,0.4764,0.4636,0.4821,0.4776,0.4191,0.4019,0.386,0.3532,0.3005,0.2606,0.2516,0.2352,0.211,0.1692,0.1326,0.1049,0.0957,0.0743,0.0587,0.0589,0.0599,0.0543,0.0351,0.0325,0.0265,0.0133,0.01,0.01,0.0135,0.0101,0.0135,0.0,0.0135,0.0,0.0303,0.0505,0.0707,0.0741,0.0809,0.0843,-1.1178,-1.0362,-0.9556,-0.8847,-0.8281,-0.7538,-0.6855,-0.6241,-0.5504,-0.4818,-0.4159,-0.3497,-0.2826,-0.215,-0.1718,-0.1281,-0.0847,-0.0389,0.0112,0.0729,0.1317,0.1905,0.2465,0.2772,0.3135,0.3502,0.353,0.3557,0.3583,0.3378,0.3207,0.304,0.2695,0.2459,0.2299,0.2255,0.2303,0.2532,0.2664,0.2914,0.3357,0.3666,0.3885,0.4021,0.4135,0.4162,0.4107,0.3817,0.3479,0.3023,0.1979,0.1088,0.0359,-0.0612,-0.1347,0.0,0.0,0.0,0.0,0.0,0.0,0.0,0.0,0.0,0.0,0.0,0.3378,0.4095,0.4461,0.4689,0.4826,0.4894,0.4882,0.4843,0.4981,0.4959,0.4637,0.4798,0.4706,0.4046,0.3856,0.359,0.3162,0.2666,0.2246,0.1907,0.1783,0.1584,0.1288,0.0963,0.0707,0.061,0.0482,0.0321,0.0225,0.026,0.0231,0.0132,0.0133,0.0135,0.0,0.0,0.0,0.0,0.0,0.0,0.0,0.0,0.0,0.0,0.0135,0.027,0.027,0.0371,0.0438,-1.1554,-1.0651,-0.9751,-0.9081,-0.8626,-0.7916,-0.7106,-0.6241,-0.5609,-0.4873,-0.4082,-0.3081,-0.2437,-0.1987,-0.1513,-0.1094,-0.0701,-0.0364,0.0112,0.0645,0.1099,0.1608,0.2171,0.252,0.2921,0.3344,0.3401,0.3457,0.3572,0.3457,0.3286,0.3058,0.2808,0.2497,0.2181,0.2065,0.2057,0.2156,0.2465,0.2772,0.3047,0.3388,0.3608,0.3771,0.4024,0.4107,0.3993,0.3824,0.3443,0.281,0.1836,0.0916,0.0092,-0.0908,-0.1569,0.0,-0.2004,0.0,0.0,0.0,0.0,0.0,0.0,0.0,0.0,0.3233,0.3998,0.484,0.4919,0.4943,0.5034,0.5159,0.5118,0.4872,0.5036,0.5038,0.4543,0.4679,0.4499,0.3797,0.3623,0.3346,0.2794,0.237,0.1931,0.1451,0.1157,0.0995,0.0961,0.0677,0.0473,0.0439,0.0337,0.0201,0.0,0.0,0.0,0.0,0.0,0.0,0.0,0.0,0.0,0.0,0.0,0.0,0.0,0.0,0.0,0.0,0.0,0.0,0.0,0.0135,0.0236,-1.2464,-1.1284,-1.0632,-0.9836,-0.9054,-0.8474,-0.7649,-0.6712,-0.5891,-0.4846,-0.3683,-0.2882,-0.2352,-0.1987,-0.1513,-0.1122,-0.0841,-0.0421,0.0,0.0309,0.0923,0.1489,0.1955,0.242,0.2813,0.3146,0.3327,0.342,0.345,0.342,0.3237,0.2933,0.2634,0.2301,0.1968,0.0,0.0,0.0,0.2158,0.2465,0.2772,0.3049,0.3327,0.3638,0.3799,0.0,0.3824,0.3605,0.3236,0.2717,0.1864,0.0,0.0,0.0,0.0,0.0,0.0,0.0,0.0,0.0,0.0,0.0,0.2346,0.2856,0.3095,0.3789,0.4451,0.5013,0.4913,0.4937,0.5213,0.5013,0.4897,0.4888,0.4854,0.4683,0.4391,0.4234,0.3903,0.3327,0.2976,0.2623,0.2192,0.1677,0.1313,0.1133,0.0765,0.0472,0.0467,0.0387,0.0276,0.0,0.0,0.0,0.0,0.0,0.0,0.0,0.0,0.0,0.0,0.0,0.0,0.0,0.0,0.0,0.0,0.0,0.0,0.0,0.0,0.0,0.0,0.0,0.0067,-1.3035,0.0,-1.1166,-1.0347,0.0,-0.8876,-0.809,-0.7219,-0.6295,-0.5136,-0.3866,-0.3182,-0.2638,-0.218,-0.1779,-0.1338,-0.0897,-0.0645,-0.0311,0.0115,0.0614,0.1099,0.1568,0.2017,0.2431,0.2772,0.2926,0.305,0.314,0.305,0.2866,0.2647,0.231,0.2002,0.1663,0.1264,0.1237,0.1612,0.1867,0.2079,0.2245,0.2661,0.3046,0.3351,0.0,0.0,0.0,0.0,0.0,0.0,0.0,0.0,0.0,0.0,0.0,-0.0465,-0.0228,0.005,0.0401,0.1071,0.1754,0.2418,0.3194,0.3764,0.3943,0.436,0.4811,0.5156,0.5003,0.4953,0.51,0.4956,0.4774,0.4618,0.4503,0.431,0.3994,0.3709,0.336,0.291,0.2569,0.223,0.1703,0.1439,0.106,0.0757,0.0492,0.0264,0.0186,0.0145,0.0106,0.0,0.0,0.0,0.0,0.0,0.0,0.0,0.0,0.0,0.0,0.0,0.0,0.0,0.0,0.0,0.0,0.0,0.0,0.0,0.0,0.0,0.0,0.0,0.0,-1.3527,-1.2626,-1.166,-1.0803,-0.9971,-0.9277,-0.8475,-0.7608,0.0,0.0,0.0,-0.3669,-0.3053,-0.2491,-0.2135,-0.1637,-0.1085,-0.097,-0.0637,-0.0178,0.0239,0.0668,0.1089,0.1563,0.1973,0.2318,0.2476,0.2599,0.2783,0.2599,0.2445,0.2287,0.2004,0.1658,0.1284,0.0878,0.0835,0.123,0.1488,0.1699,0.183,0.2368,0.277,0.3078,0.3522,0.3803,0.387,0.3875,0.3628,0.3107,0.2676,0.2096,0.1335,0.1095,0.0877,0.0656,0.097,0.1344,0.1579,0.2143,0.2718,0.3297,0.394,0.4463,0.4713,0.4856,0.5003,0.5208,0.5063,0.4878,0.4772,0.4734,0.4585,0.4196,0.4052,0.3873,0.3503,0.3133,0.2776,0.2393,0.2152,0.1844,0.1254,0.1137,0.0943,0.0432,0.0274,0.0195,0.0,0.0,0.0,0.0,0.0,0.0,0.0,0.0,0.0,0.0,0.0,0.0,0.0,0.0,0.0,0.0,0.0,0.0,0.0,0.0,0.0,0.0,0.0,0.0,0.0,0.0,0.0,-1.401,-1.3053,-1.2293,-1.1403,-1.0464,-0.9843,-0.8829,-0.752,-0.6267,-0.5378,-0.4844,-0.4058,-0.3423,-0.2875,-0.2448,-0.2108,-0.1825,-0.125,-0.0947,0.0,-0.0221,0.0256,0.061,0.1151,0.1595,0.1961,0.2161,0.2261,0.2294,0.2261,0.2161,0.196,0.1762,0.1395,0.0899,0.0666,0.0558,0.0638,0.087,0.1315,0.1887,0.2252,0.259,0.2934,0.3428,0.3709,0.3727,0.3725,0.3628,0.3451,0.3079,0.273,0.2414,0.2233,0.2071,0.1914,0.2427,0.2778,0.2782,0.3535,0.4188,0.4585,0.4597,0.4616,0.4776,0.4904,0.4973,0.4956,0.4764,0.4576,0.4316,0.4159,0.3938,0.3627,0.338,0.3156,0.2922,0.2579,0.2196,0.1806,0.1532,0.1257,0.0825,0.0589,0.0471,0.0314,0.0157,0.0,0.0,0.0,0.0,0.0,0.0,0.0,0.0,0.0,0.0,0.0,0.0,0.0,0.0,0.0,0.0,0.0,0.0,0.0,0.0,0.0,0.0,0.0,0.0,0.0,0.0,0.0,0.0,-1.4447,-1.3588,-1.2786,-1.1899,-1.0931,-0.971,-0.8664,-0.778,-0.6713,-0.591,-0.5271,-0.4559,-0.3906,-0.3371,-0.2933,-0.2471,-0.1971,-0.1573,-0.1246,-0.095,-0.0385,0.0033,0.0265,0.0769,0.1176,0.1479,0.1648,0.1748,0.1884,0.1884,0.1715,0.148,0.1144,0.0842,0.0539,0.0438,0.0402,0.0397,0.0771,0.1099,0.1359,0.185,0.2329,0.2741,0.3155,0.3532,0.3843,0.3934,0.3934,0.3871,0.3789,0.3684,0.3482,0.348,0.341,0.328,0.3694,0.3927,0.3785,0.4084,0.4311,0.4398,0.4386,0.4379,0.4311,0.4506,0.4582,0.4512,0.4343,0.4087,0.38,0.3582,0.3367,0.3132,0.2823,0.2586,0.2431,0.2002,0.1649,0.1414,0.114,0.0786,0.0471,0.0354,0.0236,0.0157,0.0,0.0,0.0,0.0,0.0,0.0,0.0,0.0,0.0,0.0,0.0,0.0,0.0,0.0,0.0,0.0,0.0,0.0,0.0,0.0,0.0,0.0,0.0,0.0,0.0,0.0,0.0,0.0,0.0,-1.4765,-1.398,-1.3164,-1.2279,-1.1195,-0.9631,-0.8701,-0.8184,-0.7337,-0.6542,-0.5786,-0.5054,-0.4379,-0.3831,-0.3381,-0.2827,-0.2238,-0.1918,-0.1561,-0.1107,-0.0619,-0.0297,-0.0034,0.0404,0.074,0.0975,0.1076,0.1211,0.1345,0.1345,0.1215,0.0949,0.0612,0.0409,0.0309,0.024,0.024,0.0274,0.0638,0.0849,0.0978,0.1541,0.2034,0.2497,0.2845,0.3284,0.383,0.4003,0.4132,0.4204,0.4316,0.4364,0.4331,0.4398,0.4434,0.4367,0.4572,0.4632,0.447,0.4331,0.4186,0.4038,0.4033,0.3926,0.3766,0.3854,0.3948,0.3942,0.3808,0.357,0.3196,0.2974,0.2782,0.2552,0.2198,0.1961,0.1883,0.1452,0.114,0.1061,0.0746,0.0432,0.0275,0.0236,0.0157,0.0,0.0,0.0,0.0,0.0,0.0,0.0,0.0,0.0,0.0,0.0,0.0,0.0,0.0,0.0,0.0,0.0,0.0,0.0,0.0,0.0,0.0,0.0,0.0,0.0,0.0,0.0,0.0,0.0,0.0,-1.4913,-1.4121,-1.3316,-1.2259,-1.1058,-1.0077,-0.9325,-0.8656,-0.7817,-0.7135,-0.6506,-0.55,-0.477,-0.4217,-0.3716,-0.3268,-0.286,-0.2369,-0.1936,-0.1539,-0.1173,-0.0739,-0.027,-0.0034,0.0236,0.0539,0.0573,0.064,0.0642,0.0642,0.0614,0.0557,0.0384,0.0318,0.0288,0.0144,0.0,0.0036,0.0253,0.0598,0.1072,0.1435,0.1839,0.2245,0.2641,0.3028,0.3457,0.3648,0.3914,0.4246,0.4295,0.4406,0.4623,0.4656,0.4656,0.4664,0.4723,0.475,0.4653,0.4324,0.4083,0.4053,0.3659,0.3391,0.3196,0.3037,0.3037,0.3119,0.3159,0.2927,0.239,0.2313,0.2118,0.1807,0.1532,0.1297,0.11,0.0825,0.0589,0.0432,0.0393,0.0275,0.0079,0.0,0.0,0.0,0.0,0.0,0.0,0.0,0.0,0.0,0.0,0.0,0.0,0.0,0.0,0.0,0.0,0.0,0.0,0.0,0.0,0.0,0.0,0.0,0.0,0.0,0.0,0.0,0.0,0.0,0.0,0.0,0.0,-1.5059,-1.4291,-1.3519,-1.2351,-1.109,-1.0263,-0.953,-0.8861,-0.8144,-0.7433,-0.6773,-0.5951,-0.5226,-0.4564,-0.4167,-0.3663,-0.3092,-0.269,-0.2218,-0.1748,-0.1311,-0.0875,-0.0438,-0.027,0.0,0.0371,0.0371,0.0442,0.0483,0.042,0.0391,0.0358,0.0215,0.0108,0.0109,0.0036,0.0,0.0,0.0182,0.0433,0.0637,0.1058,0.1482,0.1873,0.2177,0.2581,0.2983,0.3196,0.3538,0.4024,0.4152,0.4339,0.4674,0.4712,0.4715,0.4679,0.449,0.4305,0.4151,0.3763,0.3448,0.3335,0.3057,0.2784,0.2586,0.247,0.2353,0.2118,0.2353,0.2352,0.1923,0.1727,0.1532,0.1218,0.1022,0.0864,0.0746,0.055,0.0393,0.0275,0.0196,0.0,0.0,0.0,0.0,0.0,0.0,0.0,0.0,0.0,0.0,0.0,0.0,0.0,0.0,0.0,0.0,0.0,0.0,0.0,0.0,0.0,0.0,0.0,0.0,0.0,0.0,0.0,0.0,0.0,0.0,0.0,0.0,0.0,0.0,-1.5672,-1.486,-1.3942,-1.2822,-1.1585,-1.0669,-0.9897,-0.9173,-0.837,-0.7661,-0.7007,-0.6317,-0.569,-0.5063,-0.4567,-0.393,-0.336,-0.2989,-0.252,-0.1985,-0.1513,-0.108,-0.0681,-0.0443,-0.0171,0.0103,0.0207,0.0278,0.0354,0.0289,0.0219,0.0184,0.0074,0.0,0.0,0.0,0.0,0.0,0.0149,0.026,0.0335,0.067,0.1109,0.1498,0.1689,0.2063,0.2576,0.2715,0.3056,0.3667,0.3767,0.3997,0.4426,0.4465,0.4426,0.4348,0.4038,0.3724,0.3528,0.3095,0.2782,0.2628,0.2433,0.2158,0.2,0.1883,0.1609,0.1218,0.1492,0.1608,0.1375,0.1179,0.1022,0.0786,0.0589,0.0511,0.0432,0.0275,0.0196,0.0196,0.0079,0.0,0.0,0.0,0.0,0.0,0.0,0.0,0.0,0.0,0.0,0.0,0.0,0.0,0.0,0.0,0.0,0.0,0.0,0.0,0.0,0.0,0.0,0.0,0.0,0.0,0.0,0.0,0.0,0.0,0.0,0.0,0.0,0.0,0.0,-1.6901,-1.5957,-1.4696,-1.3678,-1.2899,-1.1598,-1.0626,-0.9853,-0.8614,-0.7834,-0.7456,-0.6733,-0.6197,-0.5778,-0.4825,-0.4136,-0.3758,-0.336,-0.2827,-0.2225,-0.1955,-0.157,-0.1084,-0.0664,-0.0389,-0.0216,-0.0072,0.0036,0.0036,0.0,0.0,0.0,0.0,0.0,0.0,0.0,0.0,0.0,0.0,0.0117,0.0274,0.0313,0.0611,0.1069,0.1195,0.1511,0.2043,0.2201,0.2503,0.3127,0.3129,0.3368,0.3763,0.3841,0.3763,0.3565,0.329,0.3056,0.2863,0.247,0.2234,0.2157,0.1846,0.1571,0.1375,0.1178,0.0943,0.0668,0.0746,0.0746,0.0668,0.0668,0.0589,0.0393,0.0314,0.0236,0.0,0.0,0.0,0.0,0.0,0.0,0.0,0.0,0.0,0.0,0.0,0.0,0.0,0.0,0.0,0.0,0.0,0.0,0.0,0.0,0.0,0.0,0.0,0.0,0.0,0.0,0.0,0.0,0.0,0.0,0.0,0.0,0.0,0.0,0.0,0.0,0.0,0.0,0.0,-1.6741,-1.5495,-1.456,-1.3792,-1.3027,-1.2078,-1.1269,-1.0504,-0.957,-0.8816,-0.8206,-0.7513,-0.6961,-0.6553,-0.5678,-0.4852,-0.4138,-0.3761,-0.329,-0.2756,-0.2315,-0.1823,-0.1363,-0.1078,-0.0685,-0.0327,-0.0255,-0.011,0.0,0.0,0.0,0.0,0.0,0.0,0.0,0.0,0.0,0.0,0.0,0.0039,0.0,0.0118,0.0272,0.0575,0.0733,0.1047,0.1589,0.1602,0.1922,0.2508,0.2508,0.2665,0.2942,0.2979,0.2979,0.302,0.2704,0.2469,0.2392,0.1923,0.161,0.161,0.1218,0.0943,0.0864,0.0786,0.0629,0.0471,0.0432,0.0354,0.0275,0.0314,0.0314,0.0,0.0,0.0,0.0,0.0,0.0,0.0,0.0,0.0,0.0,0.0,0.0,0.0,0.0,0.0,0.0,0.0,0.0,0.0,0.0,0.0,0.0,0.0,0.0,0.0,0.0,0.0,0.0,0.0,0.0,0.0,0.0,0.0,0.0,0.0,0.0,0.0,0.0,0.0,0.0,0.0,0.0,-1.6902,-1.5719,-1.4993,-1.4274,-1.35,-1.264,-1.1847,-1.1112,-1.0253,-0.9521,-0.886,-0.815,-0.7619,-0.7126,-0.6405,-0.5631,-0.48,-0.4309,-0.3797,-0.3223,-0.2769,-0.2303,-0.1802,-0.144,-0.1075,-0.0635,-0.0373,-0.0188,0.0,0.0,0.0,0.0,0.0,0.0,0.0,0.0,0.0,0.0,0.0,0.0,0.0,0.0,0.0079,0.0196,0.0354,0.0629,0.1061,0.1061,0.1335,0.1805,0.1923,0.204,0.2277,0.2276,0.2356,0.2435,0.212,0.1923,0.1844,0.1375,0.1061,0.1061,0.0746,0.0511,0.0511,0.0471,0.0354,0.0236,0.0196,0.0118,0.0079,0.0118,0.0157,0.0,0.0,0.0,0.0,0.0,0.0,0.0,0.0,0.0,0.0,0.0,0.0,0.0,0.0,0.0,0.0,0.0,0.0,0.0,0.0,0.0,0.0,0.0,0.0,0.0,0.0,0.0,0.0,0.0,0.0,0.0,0.0,0.0,0.0,0.0,0.0,0.0,0.0,0.0,0.0,0.0,0.0,-1.7526,-1.6766,-1.607,-1.5228,-1.4356,-1.3281,-1.2396,-1.1617,-1.0641,-0.9915,-0.9338,-0.868,-0.8115,-0.7579,-0.6969,-0.6352,-0.5699,-0.509,-0.4359,-0.3636,-0.335,-0.2955,-0.2417,-0.1855,-0.1416,-0.1169,-0.0627,-0.0235,0.0,0.0,0.0,0.0,0.0,0.0,0.0,0.0,0.0,0.0,0.0,0.0,0.0,0.0,0.0,0.0,0.0,0.0236,0.0589,0.0589,0.0864,0.1257,0.1296,0.1493,0.1768,0.1847,0.1887,0.1848,0.1532,0.1297,0.1258,0.0904,0.0629,0.0629,0.0432,0.0275,0.0275,0.0157,0.0,0.0,0.0,0.0,0.0,0.0,0.0,0.0,0.0,0.0,0.0,0.0,0.0,0.0,0.0,0.0,0.0,0.0,0.0,0.0,0.0,0.0,0.0,0.0,0.0,0.0,0.0,0.0,0.0,0.0,0.0,0.0,0.0,0.0,0.0,0.0,0.0,0.0,0.0,0.0,0.0,0.0,0.0,0.0,0.0,0.0,0.0,0.0,0.0,-1.7564,-1.6839,-1.6123,-1.5346,-1.4561,-1.3807,-1.3049,-1.228,-1.1507,-1.0791,-1.0101,-0.9326,-0.8701,-0.8095,-0.7501,-0.6934,-0.6342,-0.5964,-0.5272,-0.4412,-0.3808,-0.3366,-0.3009,-0.2442,-0.1871,-0.1295,-0.0629,-0.0275,-0.0196,-0.0079,0.0,0.0,0.0,0.0,0.0,0.0,0.0,0.0,0.0,0.0,0.0,0.0,0.0,0.0,0.0,0.0079,0.0157,0.0314,0.0511,0.0825,0.0825,0.0943,0.114,0.11,0.1061,0.114,0.0982,0.0825,0.0786,0.055,0.0393,0.0354,0.0196,0.0118,0.0079,0.0,0.0,0.0,0.0,0.0,0.0,0.0,0.0,0.0,0.0,0.0,0.0,0.0,0.0,0.0,0.0,0.0,0.0,0.0,0.0,0.0,0.0,0.0,0.0,0.0,0.0,0.0,0.0,0.0,0.0,0.0,0.0,0.0,0.0,0.0,0.0,0.0,0.0,0.0,0.0,0.0,0.0,0.0,0.0,0.0,0.0,0.0,0.0,0.0,0.0,-1.7691,-1.6978,-1.6263,-1.5559,-1.4776,-1.4173,-1.3448,-1.2673,-1.2083,-1.1372,-1.0588,-0.9916,-0.9241,-0.8589,-0.7978,-0.7407,-0.6834,-0.6451,-0.5899,-0.5173,-0.4477,-0.3938,-0.3483,-0.2823,-0.2119,-0.1453,-0.0904,-0.055,-0.0314,-0.0157,0.0,0.0,0.0,0.0,0.0,0.0,0.0,0.0,0.0,0.0,0.0,0.0,0.0,0.0,0.0,0.0,0.0,0.0118,0.0275,0.0471,0.055,0.0668,0.0746,0.0668,0.0668,0.0707,0.0629,0.0511,0.0471,0.0314,0.0196,0.0157,0.0079,0.0,0.0,0.0,0.0,0.0,0.0,0.0,0.0,0.0,0.0,0.0,0.0,0.0,0.0,0.0,0.0,0.0,0.0,0.0,0.0,0.0,0.0,0.0,0.0,0.0,0.0,0.0,0.0,0.0,0.0,0.0,0.0,0.0,0.0,0.0,0.0,0.0,0.0,0.0,0.0,0.0,0.0,0.0,0.0,0.0,0.0,0.0,0.0,0.0,0.0,0.0,0.0,-1.7906,-1.7204,-1.6587,-1.5928,-1.5248,-1.4527,-1.377,-1.2935,-1.2345,-1.1627,-1.0899,-1.0368,-0.9722,-0.9003,-0.8322,-0.7757,-0.7184,-0.6644,-0.6215,-0.5809,-0.522,-0.4611,-0.3722,-0.2979,-0.2315,-0.1767,-0.1375,-0.0943,-0.0432,-0.0314,-0.0196,0.0,0.0,0.0,0.0,0.0,0.0,0.0,0.0,0.0,0.0,0.0,0.0,0.0,0.0,0.0,0.0,0.0,0.0079,0.0275,0.0432,0.0511,0.055,0.0589,0.055,0.055,0.0393,0.0314,0.0236,0.0118,0.0,0.0,0.0,0.0,0.0,0.0,0.0,0.0,0.0,0.0,0.0,0.0,0.0,0.0,0.0,0.0,0.0,0.0,0.0,0.0,0.0,0.0,0.0,0.0,0.0,0.0,0.0,0.0,0.0,0.0,0.0,0.0,0.0,0.0,0.0,0.0,0.0,0.0,0.0,0.0,0.0,0.0,0.0,0.0,0.0,0.0,0.0,0.0,0.0,0.0,0.0,0.0,0.0,0.0,0.0,-1.8189,-1.7746,-1.7045,-1.6446,-1.5943,-1.5336,-1.4434,-1.352,-1.3003,-1.2185,-1.1297,-1.0663,-0.9992,-0.9203,-0.8594,-0.7983,-0.7446,-0.6945,-0.6525,-0.6177,-0.5825,-0.4968,-0.3917,-0.3212,-0.2704,-0.2237,-0.1649,-0.11,-0.0746,-0.0471,-0.0196,0.0,0.0,0.0,0.0,0.0,0.0,0.0,0.0,0.0,0.0,0.0,0.0,0.0,0.0,0.0,0.0,0.0,0.0,0.0079,0.0118,0.0157,0.0,0.0,0.0,0.0,0.0,0.0,0.0,0.0,0.0,0.0,0.0,0.0,0.0,0.0,0.0,0.0,0.0,0.0,0.0,0.0,0.0,0.0,0.0,0.0,0.0,0.0,0.0,0.0,0.0,0.0,0.0,0.0,0.0,0.0,0.0,0.0,0.0,0.0,0.0,0.0,0.0,0.0,0.0,0.0,0.0,0.0,0.0,0.0,0.0,0.0,0.0,0.0,0.0,0.0,0.0,0.0,0.0,0.0,0.0,0.0,0.0,0.0,0.0,-1.8607,-1.8086,-1.7597,-1.7068,-1.6505,-1.592,-1.5004,-1.4011,-1.3431,-1.2579,-1.1565,-1.0887,-1.018,-0.9392,-0.8784,-0.8169,-0.7633,-0.713,-0.6749,-0.637,-0.5944,-0.5204,-0.4345,-0.372,-0.3173,-0.2705,-0.2041,-0.1492,-0.1061,-0.0629,-0.0354,0.0,-0.0039,0.0,0.0,0.0,0.0,0.0,0.0,0.0,0.0,0.0,0.0,0.0,0.0,0.0,0.0,0.0,0.0,0.0,0.0,0.0,0.0,0.0,0.0,0.0,0.0,0.0,0.0,0.0,0.0,0.0,0.0,0.0,0.0,0.0,0.0,0.0,0.0,0.0,0.0,0.0,0.0,0.0,0.0,0.0,0.0,0.0,0.0,0.0,0.0,0.0,0.0,0.0,0.0,0.0,0.0,0.0,0.0,0.0,0.0,0.0,0.0,0.0,0.0,0.0,0.0,0.0,0.0,0.0,0.0,0.0,0.0,0.0,0.0,0.0,0.0,0.0,0.0,0.0,0.0,0.0,0.0,0.0,0.0,-1.9124,-1.8452,-1.8267,-1.7771,-1.7055,-1.6379,-1.5511,-1.4441,-1.3782,-1.2852,-1.1795,-1.1111,-1.0406,-0.962,-0.9046,-0.8432,-0.7821,-0.7246,-0.6852,-0.645,-0.6045,-0.5502,-0.5003,-0.4157,-0.3565,-0.3056,-0.2508,-0.1883,-0.1296,-0.0825,-0.0511,-0.0275,-0.0118,0.0,0.0,0.0,0.0,0.0,0.0,0.0,0.0,0.0,0.0,0.0,0.0,0.0,0.0,0.0,0.0,0.0,0.0,0.0,0.0,0.0,0.0,0.0,0.0,0.0,0.0,0.0,0.0,0.0,0.0,0.0,0.0,0.0,0.0,0.0,0.0,0.0,0.0,0.0,0.0,0.0,0.0,0.0,0.0,0.0,0.0,0.0,0.0,0.0,0.0,0.0,0.0,0.0,0.0,0.0,0.0,0.0,0.0,0.0,0.0,0.0,0.0,0.0,0.0,0.0,0.0,0.0,0.0,0.0,0.0,0.0,0.0,0.0,0.0,0.0,0.0,0.0,0.0,0.0,0.0,0.0,0.0,-1.9621,-1.95,-1.9024,-1.852,-1.8013,-1.7393,-1.6261,-1.4881,-1.4302,-1.3244,-1.2019,-1.1298,-1.0663,-1.003,-0.9268,-0.8699,-0.8174,-0.7496,-0.6932,-0.6513,-0.635,-0.6031,-0.5508,-0.4599,-0.3806,-0.3253,-0.2586,-0.2,-0.1492,-0.0943,-0.0511,-0.0314,0.0,0.0,0.0,0.0,0.0,0.0,0.0,0.0,0.0,0.0,0.0,0.0,0.0,0.0,0.0,0.0,0.0,0.0,0.0,0.0,0.0,0.0,0.0,0.0,0.0,0.0,0.0,0.0,0.0,0.0,0.0,0.0,0.0,0.0,0.0,0.0,0.0,0.0,0.0,0.0,0.0,0.0,0.0,0.0,0.0,0.0,0.0,0.0,0.0,0.0,0.0,0.0,0.0,0.0,0.0,0.0,0.0,0.0,0.0,0.0,0.0,0.0,0.0,0.0,0.0,0.0,0.0,0.0,0.0,0.0,0.0,0.0,0.0,0.0,0.0,0.0,0.0,0.0,0.0,0.0,0.0,0.0,0.0,-2.0042,-1.9969,-1.9486,-1.9,-1.8447,-1.7821,-1.6644,-1.5304,-1.4606,-1.3543,-1.2317,-1.1558,-1.0887,-1.0293,-0.9496,-0.8861,-0.8277,-0.7543,-0.7034,-0.6766,-0.6531,-0.6233,-0.5858,-0.5038,-0.4257,-0.3545,-0.2743,-0.2158,-0.165,-0.1023,-0.055,-0.0432,-0.0157,0.0,0.0,0.0,0.0,0.0,0.0,0.0,0.0,0.0,0.0,0.0,0.0,0.0,0.0,0.0,0.0,0.0,0.0,0.0,0.0,0.0,0.0,0.0,0.0,0.0,0.0,0.0,0.0,0.0,0.0,0.0,0.0,0.0,0.0,0.0,0.0,0.0,0.0,0.0,0.0,0.0,0.0,0.0,0.0,0.0,0.0,0.0,0.0,0.0,0.0,0.0,0.0,0.0,0.0,0.0,0.0,0.0,0.0,0.0,0.0,0.0,0.0,0.0,0.0,0.0,0.0,0.0,0.0,0.0,0.0,0.0,0.0,0.0,0.0,0.0,0.0,0.0,0.0,0.0,0.0,0.0,0.0,-2.0388,-2.0295,-1.9887,-1.9359,-1.8687,-1.7946,-1.6817,-1.549,-1.4764,-1.3701,-1.26,-1.1781,-1.1111,-1.0475,-0.9695,-0.8989,-0.828,-0.7684,-0.7256,-0.7054,-0.6741,-0.6399,-0.599,-0.5407,-0.4707,-0.3857,-0.2948,-0.2313,-0.1755,-0.1112,-0.0642,-0.0558,-0.0199,0.0,0.0,0.0,0.0,0.0,0.0,0.0,0.0,0.0,0.0,0.0,0.0,0.0,0.0,0.0,0.0,0.0,0.0,0.0,0.0,0.0,0.0,0.0,0.0,0.0,0.0,0.0,0.0,0.0,0.0,0.0,0.0,0.0,0.0,0.0,0.0,0.0,0.0,0.0,0.0,0.0,0.0,0.0,0.0,0.0,0.0,0.0,0.0,0.0,0.0,0.0,0.0,0.0,0.0,0.0,0.0,0.0,0.0,0.0,0.0,0.0,0.0,0.0,0.0,0.0,0.0,0.0,0.0,0.0,0.0,0.0,0.0,0.0,0.0,0.0,0.0,0.0,0.0,0.0,0.0,0.0,0.0,-2.0708,-2.0767,-2.0352,-1.9706,-1.8859,-1.7935,-1.6854,-1.5674,-1.4729,-1.3686,-1.2597,-1.1929,-1.1335,-1.0663,-0.9916,-0.9067,-0.8335,-0.7865,-0.7555,-0.7328,-0.7052,-0.6727,-0.6172,-0.5729,-0.5056,-0.4222,-0.324,-0.2493,-0.1905,-0.1165,-0.0744,-0.0581,-0.0207,0.0,0.0,0.0,0.0,0.0,0.0,0.0,0.0,0.0,0.0,0.0,0.0,0.0,0.0,0.0,0.0,0.0,0.0,0.0,0.0,0.0,0.0,0.0,0.0,0.0,0.0,0.0,0.0,0.0,0.0,0.0,0.0,0.0,0.0,0.0,0.0,0.0,0.0,0.0,0.0,0.0,0.0,0.0,0.0,0.0,0.0,0.0,0.0,0.0,0.0,0.0,0.0,0.0,0.0,0.0,0.0,0.0,0.0,0.0,0.0,0.0,0.0,0.0,0.0,0.0,0.0,0.0,0.0,0.0,0.0,0.0,0.0,0.0,0.0,0.0,0.0,0.0,0.0,0.0,0.0,0.0,0.0,-2.0843,-2.0982,-2.0547,-1.974,-1.8795,-1.7865,-1.6748,-1.5503,-1.4622,-1.374,-1.2815,-1.212,-1.1595,-1.0999,-1.0255,-0.9411,-0.8635,-0.8196,-0.7905,-0.7646,-0.7369,-0.6943,-0.638,-0.5987,-0.5349,-0.4528,-0.3608,-0.2787,-0.2148,-0.1303,-0.0844,-0.0589,0.0,0.0,0.0,0.0,0.0,0.0,0.0,0.0,0.0,0.0,0.0,0.0,0.0,0.0,0.0,0.0,0.0,0.0,0.0,0.0,0.0,0.0,0.0,0.0,0.0,0.0,0.0,0.0,0.0,0.0,0.0,0.0,0.0,0.0,0.0,0.0,0.0,0.0,0.0,0.0,0.0,0.0,0.0,0.0,0.0,0.0,0.0,0.0,0.0,0.0,0.0,0.0,0.0,0.0,0.0,0.0,0.0,0.0,0.0,0.0,0.0,0.0,0.0,0.0,0.0,0.0,0.0,0.0,0.0,0.0,0.0,0.0,0.0,0.0,0.0,0.0,0.0,0.0,0.0,0.0,0.0,0.0,0.0,-2.072,-2.0867,-2.0284,-1.9468,-1.8528,-1.7646,-1.6476,-1.525,-1.4551,-1.3748,-1.2884,-1.2378,-1.1855,-1.1291,-1.0558,-0.9734,-0.8941,-0.8531,-0.8249,-0.7859,-0.7584,-0.7098,-0.652,-0.6124,-0.562,-0.4761,-0.3962,-0.3216,-0.233,-0.1458,-0.094,-0.0643,0.0,0.0,0.0,0.0,0.0,0.0,0.0,0.0,0.0,0.0,0.0,0.0,0.0,0.0,0.0,0.0,0.0,0.0,0.0,0.0,0.0,0.0,0.0,0.0,0.0,0.0,0.0,0.0,0.0,0.0,0.0,0.0,0.0,0.0,0.0,0.0,0.0,0.0,0.0,0.0,0.0,0.0,0.0,0.0,0.0,0.0,0.0,0.0,0.0,0.0,0.0,0.0,0.0,0.0,0.0,0.0,0.0,0.0,0.0,0.0,0.0,0.0,0.0,0.0,0.0,0.0,0.0,0.0,0.0,0.0,0.0,0.0,0.0,0.0,0.0,0.0,0.0,0.0,0.0,0.0,0.0,0.0,0.0,-2.006,-2.0012,-1.9426,-1.8778,-1.8035,-1.7024,-1.6042,-1.5147,-1.4431,-1.3674,-1.29,-1.2606,-1.2083,-1.1377,-1.0594,-0.9741,-0.9147,-0.8858,-0.8511,-0.7984,-0.7635,-0.7146,-0.6476,-0.6213,-0.5727,-0.4968,-0.4251,-0.3355,-0.2523,-0.1593,-0.0976,-0.0665,0.0,0.0,0.0,0.0,0.0,0.0,0.0,0.0,0.0,0.0,0.0,0.0,0.0,0.0,0.0,0.0,0.0,0.0,0.0,0.0,0.0,0.0,0.0,0.0,0.0,0.0,0.0,0.0,0.0,0.0,0.0,0.0,0.0,0.0,0.0,0.0,0.0,0.0,0.0,0.0,0.0,0.0,0.0,0.0,0.0,0.0,0.0,0.0,0.0,0.0,0.0,0.0,0.0,0.0,0.0,0.0,0.0,0.0,0.0,0.0,0.0,0.0,0.0,0.0,0.0,0.0,0.0,0.0,0.0,0.0,0.0,0.0,0.0,0.0,0.0,0.0,0.0,0.0,0.0,0.0,0.0,0.0,0.0,-1.9557,-1.9815,-1.926,-1.8523,-1.767,-1.6771,-1.5816,-1.4892,-1.4299,-1.3659,-1.2973,-1.2716,-1.2168,-1.1433,-1.0811,-1.029,-0.9716,-0.9388,-0.8811,-0.8157,-0.7764,-0.7323,-0.6748,-0.6346,-0.5899,-0.5191,-0.4476,-0.3626,-0.2734,-0.1929,-0.1256,-0.0718,-0.0404,0.0,0.0,0.0,0.0,0.0,0.0,0.0,0.0,0.0,0.0,0.0,0.0,0.0,0.0,0.0,0.0,0.0,0.0,0.0,0.0,0.0,0.0,0.0,0.0,0.0,0.0,0.0,0.0,0.0,0.0,0.0,0.0,0.0,0.0,0.0,0.0,0.0,0.0,0.0,0.0,0.0,0.0,0.0,0.0,0.0,0.0,0.0,0.0,0.0,0.0,0.0,0.0,0.0,0.0,0.0,0.0,0.0,0.0,0.0,0.0,0.0,0.0,0.0,0.0,0.0,0.0,0.0,0.0,0.0,0.0,0.0,0.0,0.0,0.0,0.0,0.0,0.0,0.0,0.0,0.0,0.0,0.0,-1.9113,-1.9474,-1.8867,-1.8137,-1.7286,-1.656,-1.5649,-1.4701,-1.4281,-1.3695,-1.301,-1.2576,-1.2022,-1.154,-1.1078,-1.0582,-1.0233,-0.9813,-0.9104,-0.8464,-0.7981,-0.7499,-0.6966,-0.6564,-0.6033,-0.5371,-0.4612,-0.3807,-0.3002,-0.2242,-0.148,-0.0762,-0.0448,-0.0269,0.0,0.0,0.0,0.0,0.0,0.0,0.0,0.0,0.0,0.0,0.0,0.0,0.0,0.0,0.0,0.0,0.0,0.0,0.0,0.0,0.0,0.0,0.0,0.0,0.0,0.0,0.0,0.0,0.0,0.0,0.0,0.0,0.0,0.0,0.0,0.0,0.0,0.0,0.0,0.0,0.0,0.0,0.0,0.0,0.0,0.0,0.0,0.0,0.0,0.0,0.0,0.0,0.0,0.0,0.0,0.0,0.0,0.0,0.0,0.0,0.0,0.0,0.0,0.0,0.0,0.0,0.0,0.0,0.0,0.0,0.0,0.0,0.0,0.0,0.0,0.0,0.0,0.0,0.0,0.0,0.0,-1.8714,-1.8538,-1.7919,-1.7392,-1.6894,-1.6158,-1.5486,-1.4828,-1.4317,-1.3768,-1.3039,-1.2281,-1.1878,-1.1668,-1.1221,-1.0772,-1.0295,-0.9813,-0.9187,-0.864,-0.8113,-0.7584,-0.7098,-0.6609,-0.6077,-0.5416,-0.4746,-0.3942,-0.3183,-0.2512,-0.166,-0.0807,-0.0583,-0.0314,0.0,0.0,0.0,0.0,0.0,0.0,0.0,0.0,0.0,0.0,0.0,0.0,0.0,0.0,0.0,0.0,0.0,0.0,0.0,0.0,0.0,0.0,0.0,0.0,0.0,0.0,0.0,0.0,0.0,0.0,0.0,0.0,0.0,0.0,0.0,0.0,0.0,0.0,0.0,0.0,0.0,0.0,0.0,0.0,0.0,0.0,0.0,0.0,0.0,0.0,0.0,0.0,0.0,0.0,0.0,0.0,0.0,0.0,0.0,0.0,0.0,0.0,0.0,0.0,0.0,0.0,0.0,0.0,0.0,0.0,0.0,0.0,0.0,0.0,0.0,0.0,0.0,0.0,0.0,0.0,0.0,-1.8549,-1.8313,-1.7745,-1.7254,-1.6864,-1.6237,-1.5568,-1.49,-1.4461,-1.3804,-1.2973,-1.2244,-1.2005,-1.1971,-1.1581,-1.1172,-1.082,-1.0159,-0.9467,-0.8775,-0.8204,-0.772,-0.7231,-0.6745,-0.6169,-0.5683,-0.4968,-0.4166,-0.3451,-0.2736,-0.1973,-0.1256,-0.0807,-0.0359,0.0,0.0,0.0,0.0,0.0,0.0,0.0,0.0,0.0,0.0,0.0,0.0,0.0,0.0,0.0,0.0,0.0,0.0,0.0,0.0,0.0,0.0,0.0,0.0,0.0,0.0,0.0,0.0,0.0,0.0,0.0,0.0,0.0,0.0,0.0,0.0,0.0,0.0,0.0,0.0,0.0,0.0,0.0,0.0,0.0,0.0,0.0,0.0,0.0,0.0,0.0,0.0,0.0,0.0,0.0,0.0,0.0,0.0,0.0,0.0,0.0,0.0,0.0,0.0,0.0,0.0,0.0,0.0,0.0,0.0,0.0,0.0,0.0,0.0,0.0,0.0,0.0,0.0,0.0,0.0,0.0,-1.8381,-1.8245,-1.7745,-1.7289,-1.6934,-1.6342,-1.5718,-1.5078,-1.4613,-1.3848,-1.2856,-1.2355,-1.2194,-1.2192,-1.1788,-1.1396,-1.1043,-1.0461,-0.9767,-0.9078,-0.8424,-0.7896,-0.7455,-0.6925,-0.639,-0.5949,-0.5235,-0.4433,-0.3674,-0.2959,-0.2242,-0.157,-0.1032,-0.0583,-0.0224,0.0,0.0,0.0,0.0,0.0,0.0,0.0,0.0,0.0,0.0,0.0,0.0,0.0,0.0,0.0,0.0,0.0,0.0,0.0,0.0,0.0,0.0,0.0,0.0,0.0,0.0,0.0,0.0,0.0,0.0,0.0,0.0,0.0,0.0,0.0,0.0,0.0,0.0,0.0,0.0,0.0,0.0,0.0,0.0,0.0,0.0,0.0,0.0,0.0,0.0,0.0,0.0,0.0,0.0,0.0,0.0,0.0,0.0,0.0,0.0,0.0,0.0,0.0,0.0,0.0,0.0,0.0,0.0,0.0,0.0,0.0,0.0,0.0,0.0,0.0,0.0,0.0,0.0,0.0,0.0,-1.8303,-1.8245,-1.7745,-1.7392,-1.7107,-1.6412,-1.585,-1.5328,-1.4649,-1.3811,-1.2936,-1.2459,-1.221,-1.2067,-1.1696,-1.1485,-1.1146,-1.0573,-0.9971,-0.9375,-0.8552,-0.8116,-0.768,-0.7146,-0.6523,-0.5991,-0.5366,-0.4699,-0.3941,-0.327,-0.2555,-0.1839,-0.1256,-0.0762,-0.0404,-0.0135,0.0,0.0,0.0,0.0,0.0,0.0,0.0,0.0,0.0,0.0,0.0,0.0,0.0,0.0,0.0,0.0,0.0,0.0,0.0,0.0,0.0,0.0,0.0,0.0,0.0,0.0,0.0,0.0,0.0,0.0,0.0,0.0,0.0,0.0,0.0,0.0,0.0,0.0,0.0,0.0,0.0,0.0,0.0,0.0,0.0,0.0,0.0,0.0,0.0,0.0,0.0,0.0,0.0,0.0,0.0,0.0,0.0,0.0,0.0,0.0,0.0,0.0,0.0,0.0,0.0,0.0,0.0,0.0,0.0,0.0,0.0,0.0,0.0,0.0,0.0,0.0,0.0,0.0,0.0,-1.8202,-1.8076,-1.7676,-1.7461,-1.7289,-1.6551,-1.5964,-1.5363,-1.4469,-1.3601,-1.2929,-1.2599,-1.2322,-1.2075,-1.1832,-1.1536,-1.1183,-1.0558,-0.999,-0.9501,-0.8667,-0.816,-0.7724,-0.7234,-0.6659,-0.6254,-0.5675,-0.5099,-0.4433,-0.3673,-0.2959,-0.2243,-0.1301,-0.0583,-0.0225,0.0,0.0,0.0,0.0,0.0,0.0,0.0,0.0,0.0,0.0,0.0,0.0,0.0,0.0,0.0,0.0,0.0,0.0,0.0,0.0,0.0,0.0,0.0,0.0,0.0,0.0,0.0,0.0,0.0,0.0,0.0,0.0,0.0,0.0,0.0,0.0,0.0,0.0,0.0,0.0,0.0,0.0,0.0,0.0,0.0,0.0,0.0,0.0,0.0,0.0,0.0,0.0,0.0,0.0,0.0,0.0,0.0,0.0,0.0,0.0,0.0,0.0,0.0,0.0,0.0,0.0,0.0,0.0,0.0,0.0,0.0,0.0,0.0,0.0,0.0,0.0,0.0,0.0,0.0,0.0,-1.811,-1.7974,-1.7642,-1.7495,-1.7367,-1.6621,-1.5885,-1.5141,-1.4253,-1.3528,-1.2973,-1.276,-1.2472,-1.2132,-1.1869,-1.1603,-1.1189,-1.0548,-0.9981,-0.9522,-0.8719,-0.8233,-0.7786,-0.7323,-0.6833,-0.6432,-0.5988,-0.5458,-0.4659,-0.4032,-0.3138,-0.2153,-0.1256,-0.0628,-0.0224,0.0,0.0,0.0,0.0,0.0,0.0,0.0,0.0,0.0,0.0,0.0,0.0,0.0,0.0,0.0,0.0,0.0,0.0,0.0,0.0,0.0,0.0,0.0,0.0,0.0,0.0,0.0,0.0,0.0,0.0,0.0,0.0,0.0,0.0,0.0,0.0,0.0,0.0,0.0,0.0,0.0,0.0,0.0,0.0,0.0,0.0,0.0,0.0,0.0,0.0,0.0,0.0,0.0,0.0,0.0,0.0,0.0,0.0,0.0,0.0,0.0,0.0,0.0,0.0,0.0,0.0,0.0,0.0,0.0,0.0,0.0,0.0,0.0,0.0,0.0,0.0,0.0,0.0,0.0,0.0,-1.8008,-1.794,-1.7642,-1.7495,-1.7358,-1.6586,-1.5638,-1.4641,-1.4245,-1.3622,-1.29,-1.29,-1.256,-1.2044,-1.1853,-1.1579,-1.1155,-1.0552,-1.0013,-0.9513,-0.8824,-0.8363,-0.7928,-0.7533,-0.7054,-0.6567,-0.6124,-0.568,-0.4748,-0.3987,-0.3047,-0.2063,-0.1211,-0.0718,-0.0404,0.0,0.0,0.0,0.0,0.0,0.0,0.0,0.0,0.0,0.0,0.0,0.0,0.0,0.0,0.0,0.0,0.0,0.0,0.0,0.0,0.0,0.0,0.0,0.0,0.0,0.0,0.0,0.0,0.0,0.0,0.0,0.0,0.0,0.0,0.0,0.0,0.0,0.0,0.0,0.0,0.0,0.0,0.0,0.0,0.0,0.0,0.0,0.0,0.0,0.0,0.0,0.0,0.0,0.0,0.0,0.0,0.0,0.0,0.0,0.0,0.0,0.0,0.0,0.0,0.0,0.0,0.0,0.0,0.0,0.0,0.0,0.0,0.0,0.0,0.0,0.0,0.0,0.0,0.0,0.0,-1.8008,-1.7974,-1.7642,-1.7426,-1.7141,-1.6167,-1.5275,-1.4605,-1.4238,-1.3622,-1.29,-1.29,-1.2562,-1.2016,-1.1802,-1.1505,-1.1061,-1.0521,-0.9918,-0.9374,-0.8853,-0.8288,-0.7872,-0.7567,-0.7173,-0.6792,-0.6346,-0.5902,-0.5057,-0.4164,-0.3183,-0.2288,-0.1391,-0.0942,-0.0538,-0.0225,0.0,0.0,0.0,0.0,0.0,0.0,0.0,0.0,0.0,0.0,0.0,0.0,0.0,0.0,0.0,0.0,0.0,0.0,0.0,0.0,0.0,0.0,0.0,0.0,0.0,0.0,0.0,0.0,0.0,0.0,0.0,0.0,0.0,0.0,0.0,0.0,0.0,0.0,0.0,0.0,0.0,0.0,0.0,0.0,0.0,0.0,0.0,0.0,0.0,0.0,0.0,0.0,0.0,0.0,0.0,0.0,0.0,0.0,0.0,0.0,0.0,0.0,0.0,0.0,0.0,0.0,0.0,0.0,0.0,0.0,0.0,0.0,0.0,0.0,0.0,0.0,0.0,0.0,0.0,-1.794,-1.7828,-1.7608,-1.722,-1.6647,-1.5771,-1.5034,-1.4533,-1.4238,-1.3659,-1.2973,-1.29,-1.2636,-1.2114,-1.1837,-1.1502,-1.1112,-1.0511,-0.986,-0.9316,-0.8859,-0.833,-0.7897,-0.7577,-0.7257,-0.6895,-0.6476,-0.6077,-0.5277,-0.4166,-0.3094,-0.2424,-0.1615,-0.1121,-0.0718,-0.0359,-0.0135,0.0,0.0,0.0,0.0,0.0,0.0,0.0,0.0,0.0,0.0,0.0,0.0,0.0,0.0,0.0,0.0,0.0,0.0,0.0,0.0,0.0,0.0,0.0,0.0,0.0,0.0,0.0,0.0,0.0,0.0,0.0,0.0,0.0,0.0,0.0,0.0,0.0,0.0,0.0,0.0,0.0,0.0,0.0,0.0,0.0,0.0,0.0,0.0,0.0,0.0,0.0,0.0,0.0,0.0,0.0,0.0,0.0,0.0,0.0,0.0,0.0,0.0,0.0,0.0,0.0,0.0,0.0,0.0,0.0,0.0,0.0,0.0,0.0,0.0,0.0,0.0,0.0,0.0,-1.7862,-1.7672,-1.7486,-1.6874,-1.6061,-1.5417,-1.4848,-1.4389,-1.4137,-1.363,-1.301,-1.2893,-1.2636,-1.2231,-1.1855,-1.1521,-1.1065,-1.0506,-0.9865,-0.9277,-0.8897,-0.8363,-0.7875,-0.7641,-0.731,-0.6869,-0.6473,-0.6077,-0.5364,-0.4297,-0.3227,-0.2513,-0.1795,-0.1211,-0.0718,-0.0493,0.0,0.0,0.0,0.0,0.0,0.0,0.0,0.0,0.0,0.0,0.0,0.0,0.0,0.0,0.0,0.0,0.0,0.0,0.0,0.0,0.0,0.0,0.0,0.0,0.0,0.0,0.0,0.0,0.0,0.0,0.0,0.0,0.0,0.0,0.0,0.0,0.0,0.0,0.0,0.0,0.0,0.0,0.0,0.0,0.0,0.0,0.0,0.0,0.0,0.0,0.0,0.0,0.0,0.0,0.0,0.0,0.0,0.0,0.0,0.0,0.0,0.0,0.0,0.0,0.0,0.0,0.0,0.0,0.0,0.0,0.0,0.0,0.0,0.0,0.0,0.0,0.0,0.0,0.0,-1.7691,-1.7486,-1.6874,-1.6316,-1.5797,-1.507,-1.4605,-1.4361,-1.3855,-1.3375,-1.2936,-1.2716,-1.2526,-1.2261,-1.1885,-1.1521,-1.1186,-1.055,-0.9873,-0.9347,-0.8896,-0.8299,-0.769,-0.7548,-0.73,-0.6914,-0.6496,-0.5985,-0.5186,-0.4295,-0.3494,-0.278,-0.2063,-0.1391,-0.0718,-0.0493,0.0,0.0,0.0,0.0,0.0,0.0,0.0,0.0,0.0,0.0,0.0,0.0,0.0,0.0,0.0,0.0,0.0,0.0,0.0,0.0,0.0,0.0,0.0,0.0,0.0,0.0,0.0,0.0,0.0,0.0,0.0,0.0,0.0,0.0,0.0,0.0,0.0,0.0,0.0,0.0,0.0,0.0,0.0,0.0,0.0,0.0,0.0,0.0,0.0,0.0,0.0,0.0,0.0,0.0,0.0,0.0,0.0,0.0,0.0,0.0,0.0,0.0,0.0,0.0,0.0,0.0,0.0,0.0,0.0,0.0,0.0,0.0,0.0,0.0,0.0,0.0,0.0,0.0,0.0,-1.7461,-1.7151,-1.6386,-1.5815,-1.5319,-1.4748,-1.4325,-1.3964,-1.3455,-1.3046,-1.279,-1.2643,-1.2489,-1.2261,-1.1892,-1.1521,-1.1223,-1.0631,-0.9965,-0.9377,-0.8826,-0.8265,-0.7821,-0.7439,-0.7186,-0.6869,-0.649,-0.5941,-0.5045,-0.4387,-0.3717,-0.2913,-0.2242,-0.157,-0.0807,-0.0538,-0.0359,0.0,0.0,0.0,0.0,0.0,0.0,0.0,0.0,0.0,0.0,0.0,0.0,0.0,0.0,0.0,0.0,0.0,0.0,0.0,0.0,0.0,0.0,0.0,0.0,0.0,0.0,0.0,0.0,0.0,0.0,0.0,0.0,0.0,0.0,0.0,0.0,0.0,0.0,0.0,0.0,0.0,0.0,0.0,0.0,0.0,0.0,0.0,0.0,0.0,0.0,0.0,0.0,0.0,0.0,0.0,0.0,0.0,0.0,0.0,0.0,0.0,0.0,0.0,0.0,0.0,0.0,0.0,0.0,0.0,0.0,0.0,0.0,0.0,0.0,0.0,0.0,0.0101,0.0,-1.7151,-1.67,-1.6,-1.539,-1.484,-1.4425,-1.4,-1.3492,-1.3046,-1.2783,-1.2606,-1.2526,-1.2415,-1.2194,-1.1898,-1.1484,-1.1037,-1.0594,-0.9954,-0.9354,-0.8832,-0.816,-0.7627,-0.7301,-0.7005,-0.6724,-0.6446,-0.575,-0.4972,-0.4417,-0.3807,-0.3002,-0.2331,-0.1705,-0.0987,-0.0628,0.0,0.0,0.0,0.0,0.0,0.0,0.0,0.0,0.0,0.0,0.0,0.0,0.0,0.0,0.0,0.0,0.0,0.0,0.0,0.0,0.0,0.0,0.0,0.0,0.0,0.0,0.0,0.0,0.0,0.0,0.0,0.0,0.0,0.0,0.0,0.0,0.0,0.0,0.0,0.0,0.0,0.0,0.0,0.0,0.0,0.0,0.0,0.0,0.0,0.0,0.0,0.0,0.0,0.0,0.0,0.0,0.0,0.0,0.0,0.0,0.0,0.0,0.0,0.0,0.0,0.0,0.0,0.0,0.0,0.0,0.0,0.0,0.0,0.0,0.0,0.0,0.0,0.0303,0.0455,-1.663,-1.5938,-1.5311,-1.4911,-1.4561,-1.3964,-1.3608,-1.3419,-1.2893,-1.2636,-1.2526,-1.2224,-1.2077,-1.204,-1.1818,-1.1484,-1.0999,-1.0513,-0.9916,-0.9279,-0.8742,-0.8013,-0.7465,-0.7117,-0.6702,-0.6402,-0.6154,-0.5659,-0.4922,-0.4444,-0.3805,-0.2911,-0.2423,-0.175,-0.0897,-0.0628,0.0,0.0,0.0,0.0,0.0,0.0,0.0,0.0,0.0,0.0,0.0,0.0,0.0,0.0,0.0,0.0,0.0,0.0,0.0,0.0,0.0,0.0,0.0,0.0,0.0,0.0,0.0,0.0,0.0,0.0,0.0,0.0,0.0,0.0,0.0,0.0,0.0,0.0,0.0,0.0,0.0,0.0,0.0,0.0,0.0,0.0,0.0,0.0,0.0,0.0,0.0,0.0,0.0,0.0,0.0,0.0,0.0,0.0,0.0,0.0,0.0,0.0,0.0,0.0,0.0,0.0,0.0,0.0,0.0,0.0,0.0,0.0,0.0,0.0,0.0,0.0,0.0404,0.0556,0.0808]},{"header":{"parameterUnit":"m.s-1","parameterCategory":1,"la1":31.0,"la2":29.5877,"lo1":-88.7671,"lo2":-86.6584,"dy":0.0162,"dx":0.0185,"nx":115,"ny":88,"refTime":"2023-06-02T06:00:00:Z","depth":0,"parameterNumber":3,"parameterNumberName":"V-component_of_WINDS"},"data":[0.0,0.0,0.0,0.0,0.0,0.0,0.0,0.0,0.0,0.0,0.0,0.0,0.0,0.0,0.0,0.0,0.0,0.0,0.0,0.0,0.0,0.0,0.0,0.0,0.0,0.0,0.0,0.0,0.0,0.0,0.0,0.0,0.0,0.0,0.0,0.0,0.0,0.0,0.0,0.0,0.0,0.0,0.0,0.0,0.0,0.0,0.0,0.0,0.0,0.0,0.0,0.0,0.0,0.0,0.0,0.0,0.0,0.0,0.0,0.0,0.0,0.0,0.0,0.0,0.0,0.0,0.0,0.0,0.0,0.0,0.0,0.0,0.0,0.0,0.0,0.0,0.0,0.0,0.0,0.0,0.0,0.0,0.0,0.0,0.0,0.0,0.0,0.0,0.0,0.0,0.0,0.0,0.0,0.0,0.0,0.0,0.0,0.0,0.0,0.0,0.0,0.0,0.0,0.0,0.0,0.0,0.0,0.0,0.0,0.0,0.0,0.0,0.0,0.0,0.0,0.0,0.0,0.0,0.0,0.0,0.0,0.0,0.0,0.0,0.0,0.0,0.0,0.0,0.0,0.0,0.0,0.0,0.0,0.0,0.0,0.0,0.0,0.0,0.0,0.0,0.0,0.0,0.0,0.0,0.0,0.0,0.0,0.0,0.0,0.0,0.0,0.0,0.0,0.0,0.0,0.0,0.0,0.0,0.0,0.0,0.0,0.0,0.0,0.0,0.0,0.0,0.0,0.0,0.0,0.0,0.0,0.0,0.0,0.0,0.0,0.0,0.0,0.0,0.0,0.0,0.0,0.0,0.0,0.0,0.0,0.0,0.0,0.0,0.0,0.0,0.0,0.0,0.0,0.0,0.0,0.0,0.0,0.0,0.0,0.0,0.0,0.0,0.0,0.0,0.0,0.0,0.0,0.0,0.0,0.0,0.0,0.0,0.0,0.0,0.0,0.0,0.0,0.0,0.0,0.0,0.0,0.0,0.0,0.0,0.0,0.0,0.0,0.0,0.0,0.0,0.0,0.0,0.0,0.0,0.0,0.0,0.0,0.0,0.0,0.0,0.0,0.0,0.0,0.0,0.0,0.0,0.0,0.0,0.0,0.0,0.0,0.0,0.0,0.0,0.0,0.0,0.0,0.0,0.0,0.0,0.0,0.0,0.0,0.0,0.0,0.0,0.0,0.0,0.0,0.0,0.0,0.0,0.0,0.0,0.0,0.0,0.0,0.0,0.0,0.0,0.0,0.0,0.0,0.0,0.0,0.0,0.0,0.0,0.0,0.0,0.0,0.0,0.0,0.0,0.0,0.0,0.0,0.0,0.0,0.0,0.0,0.0,0.0,0.0,0.0,0.0,0.0,0.0,0.0,0.0,0.0,0.0,0.0,0.0,0.0,0.0,0.0,0.0,0.0,0.0,0.0,0.0,0.0,0.0,0.0,0.0,0.0,0.0,0.0,0.0,0.0,0.0,0.0,0.0,0.0,0.0,0.0,0.0,0.0,0.0,0.0,0.0,0.0,0.0,0.0,0.0,0.0,0.0,0.0,0.0,0.0,0.0,0.0,0.0,0.0,0.0,0.0,0.0,0.0,0.0,0.0,0.0,0.0,0.0,0.0,0.0,0.0,0.0,0.0,0.0,0.0,0.0,0.0,0.0,0.0,0.0,0.0,0.0,0.0,0.0,0.0,0.0,0.0,0.0,0.0,0.0,0.0,0.0,0.0,0.0,0.0,0.0,0.0,0.0,0.0,0.0,0.0,0.0,0.0,0.0,0.0,0.0,0.0,0.0,0.0,0.0,0.0,0.0,0.0,0.0,0.0,0.0,0.0,0.0,0.0,0.0,0.0,0.0,0.0,0.0,0.0,0.0,0.0,0.0,0.0,0.0,0.0,0.0,0.0,0.0,0.0,0.0,0.0,0.0,0.0,0.0,0.0,0.0,0.0,0.0,0.0,0.0,0.0,0.0,0.0,0.0,0.0,0.0,0.0,0.0,0.0,0.0,0.0,0.0,0.0,0.0,0.0,0.0,0.0,0.0,0.0,0.0,0.0,0.0,0.0,0.0,0.0,0.0,0.0,0.0,0.0,0.0,0.0,0.0,0.0,0.0,0.0,0.0,0.0,0.0,0.0,0.0,0.0,0.0,0.0,0.0,0.0,0.0,0.0,0.0,0.0,0.0,0.0,0.0,0.0,0.0,0.0,0.0,0.0,0.0,0.0,0.0,0.0,0.0,0.0,0.0,0.0,0.0,0.0,0.0,0.0,0.0,0.0,0.0,0.0,0.0,0.0,0.0,0.0,0.0,0.0,0.0,0.0,0.0,0.0,0.0,0.0,0.0,0.0,0.0,0.0,0.0,0.0,0.0,0.0,0.0,0.0,0.0,0.0,0.0,0.0,0.0,0.0,0.0,0.0,0.0,0.0,0.0,0.0,0.0,0.0,0.0,0.0,0.0,0.0,0.0,0.0,0.0,0.0,0.0,0.0,0.0,0.0,0.0,0.0,0.0,0.0,0.0,0.0,0.0,0.0,0.0,0.0,0.0,0.0,0.0,0.0,0.0,0.0,0.0,0.0,0.0,0.0,0.0,0.0,0.0,0.0,0.0,0.0,0.0,0.0,0.0,0.0,0.0,0.0,0.0,0.0,0.0,0.0,0.0,0.0,0.0,0.0,0.0,0.0,0.0,0.0,0.0,0.0,0.0,0.0,0.0,0.0,0.0,0.0,0.0,0.0,0.0,0.0,0.0,0.0,0.0,0.0,0.0,0.0,0.0,0.0,0.0,0.0,0.0,0.0,0.0,0.0,0.0,0.0,0.0,0.0,0.0,0.0,0.0,0.0,0.0,0.0,0.0,0.0,0.0,0.0,0.0,0.0,0.0,0.0,0.0,0.0,0.0,0.0,0.0,0.0,0.0,0.0,0.0,0.0,0.0,0.0,0.0,0.0,0.0,0.0,0.0,0.0,0.0,0.0,0.0,0.0,0.0,0.0,0.0,0.0,0.0,0.0,0.0,0.0,0.0,0.0,0.0,0.0,0.0,0.0,0.0,0.0,0.0,0.0,0.0,0.0,0.0,0.0,0.0,0.0,0.0,0.0,0.0,0.0,0.0,0.0,0.0,0.0,0.0,0.0,0.0,0.0,0.0,0.0,0.0,0.0,0.0,0.0,0.0,0.0,0.0,0.0,0.0,0.0,0.0,0.0,0.0,0.0,0.0,0.0,0.0,0.0,0.0,0.0,0.0,0.0,0.0,0.0,0.0,0.0,0.0,0.0,0.0,0.0,0.0,0.0,0.0,0.0,0.0,0.0,0.0,0.0,0.0,0.0,0.0,0.0,0.0,0.0,0.0,0.0,0.0,0.0,0.0,0.0,0.0,0.0,0.0,0.0,0.0,0.0,0.0,0.0,0.0,0.0,0.0,0.0,0.0,0.0,0.0,0.0,0.0,0.0,0.0,0.0,0.0,0.0,0.0,0.0,0.0,0.0,0.0,0.0,0.0,0.0,0.0,0.0,0.0,0.0,0.0,0.0,0.0,0.0,0.0,0.0,0.0,0.0,0.0,0.0,0.0,0.0,0.0,0.0,0.0,0.0,0.0,0.0,0.0,0.0,0.0,0.0,0.0,0.0,0.0,0.0,0.0,0.0,0.0,0.0,0.0,0.0,0.0,0.0,0.0,0.0,0.0,0.0,0.0,0.0,0.0,0.0,0.0,0.0,0.0,0.0,0.0,0.0,0.0,0.0,0.0,0.0,0.0,0.0,0.0,0.0,0.0,0.0,0.0,0.0,0.0,0.0,0.0,0.0,0.0,0.0,0.0,0.0,0.0,0.0,0.0,0.0,0.0,0.0,0.0,0.0,0.0,0.0,0.0,0.0,0.0,0.0,0.0,0.0,0.0,0.0,0.0,0.0,0.0,0.0,0.0,0.0,0.0,0.0,0.0,0.0,0.0,0.0,0.0,0.0,0.0,0.0,0.0,0.0,0.0,0.0,0.0,0.0,0.0,0.0,0.0,0.0,0.0,0.0,0.0,0.0,0.0,0.0,0.0,0.0,0.0,0.0,0.0,0.0,0.0,0.0,0.0,0.0,0.0,0.0,0.0,0.0,0.0,0.0,0.0,0.0,0.0,0.0,0.0,0.0,0.0,0.0,0.0,0.0,0.0,0.0,0.0,0.0,0.0,0.0,0.0,0.0,0.0,0.0,0.0,0.0,0.0,0.0,0.0,0.0,0.0,0.0,0.0,0.0,0.0,0.0,0.0,0.0,0.0,0.0,0.0,1.6501,0.0,0.0,0.0,0.0,0.0,0.0,0.0,0.0,0.0,0.0,0.0,0.0,0.0,0.0,0.0,0.0,0.0,0.0,0.0,0.0,0.0,0.0,0.0,0.0,0.0,0.0,0.0,0.0,0.0,0.0,0.0,0.0,0.0,0.0,0.0,0.0,0.0,0.0,0.0,0.0,0.0,0.0,0.0,0.0,0.0,0.0,0.0,0.0,0.0,0.0,0.0,0.0,0.0,0.0,0.0,0.0,0.0,0.0,0.0,0.0,0.0,0.0,0.0,0.0,0.0,0.0,0.0,0.0,0.0,0.0,0.0,0.0,0.0,0.0,0.0,0.0,0.0,0.0,0.0,0.0,0.0,0.0,0.0,0.0,0.0,0.0,0.0,0.0,0.0,0.0,0.0,0.0,0.0,0.0,0.0,0.0,0.0,0.0,0.0,0.0,0.0,0.0,0.0,0.0,0.0,0.0,0.0,0.0,0.0,0.0,1.7109,1.7949,1.7148,1.6696,1.6673,0.0,0.0,0.0,0.0,0.0,0.0,0.0,0.0,0.0,0.0,0.0,0.0,0.0,0.0,0.0,0.0,0.0,0.0,0.0,0.0,0.0,0.0,0.0,0.0,0.0,0.0,0.0,0.0,0.0,0.0,0.0,0.0,0.0,0.0,0.0,0.0,0.0,0.0,0.0,0.0,0.0,0.0,0.0,0.0,0.0,0.0,0.0,0.0,0.0,0.0,0.0,0.0,0.0,0.0,0.0,0.0,0.0,0.0,0.0,0.0,0.0,0.0,0.0,0.0,0.0,0.0,0.0,0.0,0.0,0.0,0.0,0.0,0.0,0.0,0.0,0.0,0.0,0.0,0.0,0.0,0.0,0.0,0.0,0.0,0.0,0.0,0.0,0.0,0.0,0.0,0.0,0.0,0.0,0.0,0.0,0.0,0.0,0.0,0.0,0.0,0.0,0.0,0.0,0.0,0.0,0.0,0.0,0.0,0.0,0.0,0.0,0.0,1.7731,1.7109,1.6699,0.0,0.0,0.0,0.0,0.0,0.0,0.0,0.0,0.0,0.0,0.0,0.0,0.0,0.0,0.0,0.0,0.0,0.0,0.0,0.0,0.0,0.0,0.0,0.0,0.0,0.0,0.0,0.0,0.0,0.0,0.0,0.0,0.0,0.0,0.0,0.0,0.0,0.0,0.0,0.0,0.0,0.0,0.0,0.0,0.0,0.0,0.0,0.0,0.0,0.0,0.0,0.0,0.0,0.0,0.0,0.0,0.0,0.0,0.0,0.0,0.0,0.0,0.0,0.0,0.0,0.0,0.0,0.0,0.0,0.0,0.0,0.0,0.0,0.0,0.0,0.0,0.0,0.0,0.0,0.0,0.0,0.0,0.0,0.0,0.0,0.0,0.0,0.0,0.0,0.0,0.0,0.0,0.0,0.0,0.0,0.0,0.0,0.0,0.0,0.0,0.0,0.0,0.0,0.0,0.0,0.0,0.0,0.0,0.0,0.0,1.8649,2.0208,1.9471,0.0,1.6812,0.0,0.0,0.0,0.0,0.0,0.0,0.0,0.0,0.0,0.0,0.0,0.0,0.0,0.0,0.0,0.0,0.0,0.0,0.0,0.0,0.0,0.0,0.0,0.0,0.0,0.0,0.0,0.0,0.0,0.0,0.0,0.0,0.0,0.0,0.0,0.0,0.0,0.0,0.0,0.0,0.0,0.0,0.0,0.0,0.0,0.0,0.0,0.0,0.0,0.0,0.0,0.0,0.0,0.0,0.0,0.0,0.0,0.0,0.0,0.0,0.0,0.0,0.0,0.0,0.0,0.0,0.0,0.0,0.0,0.0,0.0,0.0,0.0,0.0,0.0,0.0,0.0,0.0,0.0,0.0,0.0,0.0,0.0,0.0,0.0,0.0,0.0,0.0,0.0,0.0,0.0,0.0,0.0,0.0,0.0,0.0,0.0,0.0,0.0,0.0,0.0,0.0,0.0,0.0,0.0,0.0,0.0,0.0,0.0,0.0,1.8761,2.044,1.9226,1.7949,0.0,0.0,0.0,0.0,0.0,0.0,0.0,0.0,0.0,0.0,0.0,0.0,0.0,0.0,0.0,0.0,0.0,0.0,0.0,0.0,0.0,0.0,0.0,0.0,0.0,0.0,0.0,0.0,0.0,0.0,0.0,0.0,0.0,0.0,0.0,0.0,0.0,0.0,0.0,0.0,0.0,0.0,0.0,0.0,0.0,0.0,0.0,0.0,0.0,0.0,0.0,0.0,0.0,0.0,0.0,0.0,0.0,0.0,0.0,0.0,0.0,0.0,0.0,0.0,0.0,0.0,0.0,0.0,0.0,0.0,0.0,0.0,0.0,0.0,0.0,0.0,0.0,0.0,0.0,0.0,0.0,0.0,0.0,0.0,0.0,0.0,0.0,0.0,0.0,0.0,0.0,0.0,0.0,0.0,0.0,0.0,0.0,0.0,0.0,0.0,0.0,0.0,0.0,0.0,0.0,0.0,0.0,0.0,0.0,0.0,1.7801,1.8732,2.0315,1.888,1.7705,1.7064,0.0,0.0,0.0,0.0,0.0,0.0,0.0,0.0,0.0,0.0,0.0,0.0,0.0,0.0,0.0,0.0,0.0,0.0,0.0,0.0,0.0,0.0,0.0,0.0,0.0,0.0,0.0,0.0,0.0,0.0,0.0,0.0,0.0,0.0,0.0,0.0,0.0,0.0,0.0,0.0,0.0,0.0,0.0,0.0,0.0,0.0,0.0,0.0,0.0,0.0,0.0,0.0,0.0,0.0,0.0,0.0,0.0,0.0,0.0,0.0,0.0,0.0,0.0,0.0,0.0,0.0,0.0,0.0,0.0,0.0,0.0,0.0,0.0,0.0,0.0,0.0,0.0,0.0,0.0,0.0,0.0,0.0,0.0,0.0,0.0,0.0,0.0,0.0,0.0,0.0,0.0,0.0,0.0,0.0,0.0,0.0,0.0,0.0,0.0,0.0,0.0,0.0,0.0,0.0,0.0,0.0,0.0,0.0,0.0,1.7484,1.8742,2.0395,1.8878,1.7963,0.0,0.0,0.0,0.0,0.0,0.0,0.0,0.0,0.0,0.0,0.0,0.0,0.0,0.0,0.0,0.0,0.0,0.0,0.0,0.0,0.0,0.0,0.0,0.0,0.0,0.0,0.0,0.0,0.0,0.0,0.0,0.0,0.0,0.0,0.0,0.0,0.0,0.0,0.0,0.0,0.0,0.0,0.0,0.0,0.0,0.0,0.0,0.0,0.0,0.0,0.0,0.0,0.0,0.0,0.0,0.0,0.0,0.0,0.0,0.0,0.0,0.0,0.0,0.0,0.0,0.0,0.0,0.0,0.0,0.0,0.0,0.0,0.0,0.0,0.0,0.0,0.0,0.0,0.0,0.0,0.0,0.0,0.0,0.0,0.0,0.0,0.0,0.0,0.0,0.0,0.0,0.0,0.0,0.0,0.0,0.0,0.0,0.0,0.0,0.0,0.0,0.0,0.0,0.0,0.0,0.0,0.0,0.0,0.0,1.6599,1.7991,1.9288,2.0393,1.8841,1.7944,0.0,0.0,0.0,0.0,0.0,0.0,0.0,0.0,0.0,0.0,0.0,0.0,0.0,0.0,0.0,0.0,0.0,0.0,0.0,0.0,0.0,0.0,0.0,0.0,0.0,0.0,0.0,0.0,0.0,0.0,0.0,0.0,0.0,0.0,0.0,0.0,0.0,0.0,0.0,0.0,0.0,0.0,0.0,0.0,0.0,0.0,0.0,0.0,0.0,0.0,0.0,0.0,0.0,0.0,0.0,0.0,0.0,0.0,0.0,0.0,0.0,0.0,0.0,0.0,0.0,0.0,0.0,0.0,0.0,0.0,0.0,0.0,0.0,0.0,0.0,0.0,0.0,0.0,0.0,0.0,0.0,0.0,0.0,0.0,0.0,0.0,0.0,0.0,0.0,0.0,0.0,0.0,0.0,0.0,0.0,0.0,0.0,0.0,0.0,0.0,0.0,0.0,0.0,0.0,0.0,0.0,0.0,0.0,0.0,1.7018,0.0,1.9594,0.0,1.9064,1.8183,0.0,0.0,0.0,0.0,0.0,0.0,0.0,0.0,0.0,0.0,0.0,0.0,0.0,0.0,0.0,0.0,0.0,0.0,0.0,0.0,0.0,0.0,0.0,0.0,0.0,0.0,0.0,0.0,0.0,0.0,0.0,0.0,0.0,0.0,0.0,0.0,0.0,0.0,0.0,0.0,0.0,0.0,0.0,0.0,0.0,0.0,0.0,0.0,0.0,0.0,0.0,0.0,0.0,0.0,0.0,0.0,0.0,0.0,0.0,0.0,0.0,0.0,0.0,0.0,0.0,0.0,0.0,0.0,0.0,0.0,0.0,0.0,0.0,0.0,0.0,0.0,0.0,0.0,0.0,0.0,0.0,0.0,0.0,0.0,0.0,0.0,0.0,0.0,0.0,0.0,0.0,0.0,0.0,0.0,0.0,0.0,0.0,0.0,0.0,0.0,0.0,0.0,0.0,0.0,0.0,0.0,0.0,0.0,1.6253,1.7829,1.8724,1.958,2.0359,1.9582,1.878,0.0,0.0,0.0,0.0,0.0,0.0,0.0,0.0,0.0,0.0,0.0,0.0,0.0,0.0,0.0,0.0,0.0,0.0,0.0,0.0,0.0,0.0,0.0,0.0,0.0,0.0,0.0,0.0,0.0,0.0,0.0,0.0,0.0,0.0,0.0,0.0,0.0,0.0,0.0,0.0,0.0,0.0,0.0,0.0,0.0,0.0,0.0,0.0,0.0,0.0,0.0,0.0,0.0,0.0,0.0,0.0,0.0,0.0,0.0,0.0,0.0,0.0,0.0,0.0,0.0,0.0,0.0,0.0,0.0,0.0,0.0,0.0,0.0,0.0,0.0,0.0,0.0,0.0,0.0,0.0,0.0,0.0,0.0,0.0,0.0,0.0,0.0,0.0,0.0,0.0,0.0,0.0,0.0,0.0,0.0,0.0,0.0,0.0,0.0,0.0,0.0,0.0,0.0,0.0,0.0,0.0,0.0,0.0,0.0,1.7901,1.8759,1.9614,2.0388,1.9638,1.8794,0.0,0.0,0.0,0.0,0.0,0.0,0.0,0.0,0.0,0.0,0.0,0.0,0.0,0.0,0.0,0.0,0.0,0.0,0.0,0.0,0.0,0.0,0.0,0.0,0.0,0.0,0.0,0.0,0.0,0.0,0.0,0.0,0.0,0.0,0.0,0.0,0.0,0.0,0.0,0.0,0.0,0.0,0.0,0.0,0.0,0.0,0.0,0.0,0.0,0.0,0.0,0.0,0.0,0.0,0.0,0.0,0.0,0.0,0.0,0.0,0.0,0.0,0.0,0.0,0.0,0.0,0.0,0.0,0.0,0.0,0.0,0.0,0.0,0.0,0.0,0.0,0.0,0.0,0.0,0.0,0.0,0.0,0.0,0.0,0.0,0.0,0.0,0.0,0.0,0.0,0.0,0.0,0.0,0.0,0.0,0.0,0.0,0.0,0.0,0.0,0.0,0.0,0.0,0.0,0.0,0.0,0.0,0.0,0.0,1.8395,1.923,1.9966,2.0488,1.9985,1.9118,1.7966,0.0,0.0,0.0,0.0,0.0,0.0,0.0,0.0,0.0,0.0,0.0,0.0,0.0,0.0,0.0,0.0,0.0,0.0,0.0,0.0,0.0,0.0,0.0,0.0,0.0,0.0,0.0,0.0,0.0,0.0,0.0,0.0,0.0,0.0,0.0,0.0,0.0,0.0,0.0,0.0,0.0,0.0,0.0,0.0,0.0,0.0,0.0,0.0,0.0,0.0,0.0,0.0,0.0,0.0,0.0,0.0,0.0,0.0,0.0,0.0,0.0,0.0,0.0,0.0,0.0,0.0,0.0,0.0,0.0,0.0,0.0,0.0,0.0,0.0,0.0,0.0,0.0,0.0,0.0,0.0,0.0,0.0,0.0,0.0,0.0,0.0,0.0,0.0,0.0,0.0,0.0,0.0,0.0,0.0,0.0,0.0,0.0,0.0,0.0,0.0,0.0,0.0,0.0,0.0,0.0,0.0,0.0,0.0,1.931,2.0158,2.0544,2.0468,2.0468,1.9679,0.0,0.0,0.0,0.0,0.0,0.0,0.0,0.0,0.0,0.0,0.0,0.0,0.0,0.0,0.0,0.0,0.0,0.0,0.0,0.0,0.0,0.0,0.0,0.0,0.0,0.0,0.0,0.0,0.0,0.0,0.0,0.0,0.0,0.0,0.0,0.0,0.0,0.0,0.0,0.0,0.0,0.0,0.0,0.0,0.0,0.0,0.0,0.0,0.0,0.0,0.0,0.0,0.0,0.0,0.0,0.0,0.0,0.0,0.0,0.0,0.0,0.0,0.0,0.0,0.0,0.0,0.0,0.0,0.0,0.0,0.0,0.0,0.0,0.0,0.0,0.0,0.0,0.0,0.0,0.0,0.0,0.0,0.0,0.0,0.0,0.0,0.0,0.0,0.0,0.0,0.0,0.0,0.0,0.0,0.0,0.0,0.0,0.0,0.0,0.0,0.0,0.0,0.0,0.0,0.0,0.0,0.0,0.0,0.0,2.0959,2.1276,2.1077,2.0459,2.042,1.9641,0.0,0.0,0.0,0.0,0.0,0.0,0.0,0.0,0.0,0.0,0.0,0.0,0.0,0.0,0.0,0.0,0.0,0.0,0.0,0.0,0.0,0.0,0.0,0.0,0.0,0.0,0.0,0.0,0.0,0.0,0.0,0.0,0.0,0.0,0.0,0.0,0.0,0.0,0.0,0.0,0.0,0.0,0.0,0.0,0.0,0.0,0.0,0.0,0.0,0.0,0.0,0.0,0.0,0.0,0.0,0.0,0.0,0.0,0.0,0.0,0.0,0.0,0.0,0.0,0.0,0.0,0.0,0.0,0.0,0.0,0.0,0.0,0.0,0.0,0.0,0.0,0.0,0.0,0.0,0.0,0.0,0.0,0.0,0.0,0.0,0.0,0.0,0.0,0.0,0.0,0.0,0.0,0.0,0.0,0.0,0.0,0.0,0.0,0.0,0.0,0.0,0.0,0.0,0.0,0.0,0.0,0.0,0.0,1.9128,2.1628,2.1698,2.1435,2.0911,2.0923,1.9972,0.0,0.0,0.0,0.0,0.0,0.0,0.0,0.0,0.0,0.0,0.0,0.0,0.0,0.0,0.0,0.0,0.0,0.0,0.0,0.0,0.0,0.0,0.0,0.0,0.0,0.0,0.0,0.0,0.0,0.0,0.0,0.0,0.0,0.0,0.0,0.0,0.0,0.0,0.0,0.0,0.0,0.0,0.0,0.0,0.0,0.0,0.0,0.0,0.0,0.0,0.0,0.0,0.0,0.0,0.0,0.0,0.0,0.0,0.0,0.0,0.0,0.0,0.0,0.0,0.0,0.0,0.0,0.0,0.0,0.0,0.0,0.0,0.0,0.0,0.0,0.0,0.0,0.0,0.0,0.0,0.0,0.0,0.0,0.0,0.0,0.0,0.0,0.0,0.0,0.0,0.0,0.0,0.0,0.0,0.0,0.0,0.0,0.0,0.0,0.0,0.0,0.0,0.0,0.0,0.0,0.0,0.0,0.0,1.9182,2.177,2.1823,2.1803,2.173,2.171,2.0457,0.0,0.0,0.0,0.0,0.0,0.0,0.0,0.0,0.0,0.0,0.0,0.0,0.0,0.0,0.0,0.0,0.0,0.0,0.0,0.0,0.0,0.0,0.0,0.0,0.0,0.0,0.0,0.0,0.0,0.0,0.0,0.0,0.0,0.0,0.0,0.0,0.0,0.0,0.0,0.0,0.0,0.0,0.0,0.0,0.0,0.0,0.0,0.0,0.0,0.0,0.0,0.0,0.0,0.0,0.0,0.0,0.0,0.0,0.0,0.0,0.0,0.0,0.0,0.0,0.0,0.0,0.0,0.0,0.0,0.0,0.0,0.0,0.0,0.0,0.0,0.0,0.0,0.0,0.0,0.0,0.0,0.0,0.0,0.0,0.0,0.0,0.0,0.0,0.0,0.0,0.0,0.0,0.0,0.0,0.0,0.0,0.0,0.0,0.0,0.0,0.0,0.0,0.0,0.0,0.0,0.0,0.0,0.0,1.9465,2.2608,2.2682,2.2636,2.2633,2.1982,2.0405,0.0,0.0,0.0,0.0,0.0,0.0,0.0,0.0,0.0,0.0,0.0,0.0,0.0,0.0,0.0,0.0,0.0,0.0,0.0,0.0,0.0,0.0,0.0,0.0,0.0,0.0,0.0,0.0,0.0,0.0,0.0,0.0,0.0,0.0,0.0,0.0,0.0,0.0,0.0,0.0,0.0,0.0,0.0,0.0,0.0,0.0,0.0,0.0,1.9007,0.0,0.0,0.0,0.0,0.0,0.0,0.0,0.0,0.0,0.0,0.0,0.0,0.0,0.0,0.0,0.0,0.0,0.0,0.0,0.0,0.0,0.0,0.0,0.0,0.0,0.0,0.0,0.0,0.0,0.0,0.0,0.0,0.0,0.0,0.0,0.0,0.0,0.0,0.0,0.0,0.0,0.0,0.0,0.0,0.0,0.0,0.0,0.0,0.0,0.0,0.0,0.0,0.0,0.0,0.0,0.0,0.0,0.0,0.0,1.9942,2.2836,2.291,2.2882,2.2844,2.2396,2.0787,0.0,0.0,0.0,0.0,0.0,0.0,0.0,0.0,0.0,0.0,0.0,0.0,0.0,0.0,0.0,0.0,0.0,0.0,0.0,0.0,0.0,0.0,0.0,0.0,0.0,0.0,0.0,0.0,0.0,0.0,0.0,0.0,0.0,0.0,0.0,0.0,0.0,0.0,0.0,0.0,0.0,0.0,0.0,0.0,0.0,0.0,0.0,0.0,0.0,0.0,0.0,0.0,0.0,0.0,0.0,0.0,0.0,0.0,0.0,0.0,0.0,0.0,0.0,0.0,0.0,0.0,0.0,0.0,0.0,0.0,0.0,0.0,0.0,0.0,0.0,0.0,0.0,0.0,0.0,0.0,0.0,0.0,0.0,0.0,0.0,0.0,0.0,0.0,0.0,0.0,0.0,0.0,0.0,0.0,0.0,0.0,0.0,0.0,0.0,0.0,0.0,0.0,0.0,0.0,0.0,0.0,0.0,1.8877,2.0534,2.2782,2.3028,2.2975,2.2812,2.2808,2.1209,1.7941,0.0,0.0,0.0,0.0,0.0,0.0,0.0,0.0,0.0,0.0,0.0,0.0,0.0,0.0,0.0,0.0,0.0,0.0,0.0,0.0,0.0,0.0,0.0,0.0,0.0,0.0,0.0,0.0,0.0,0.0,0.0,0.0,0.0,0.0,0.0,0.0,0.0,0.0,1.3332,1.5234,0.0,0.0,0.0,0.0,0.0,0.0,0.0,0.0,2.0288,0.0,0.0,0.0,0.0,0.0,0.0,0.0,0.0,0.0,0.0,0.0,0.0,0.0,0.0,0.0,0.0,0.0,0.0,0.0,0.0,0.0,0.0,0.0,0.0,0.0,0.0,0.0,0.0,0.0,0.0,0.0,0.0,0.0,0.0,0.0,0.0,0.0,0.0,0.0,0.0,0.0,0.0,0.0,0.0,0.0,0.0,0.0,0.0,0.0,0.0,0.0,0.0,0.0,0.0,0.0,0.0,1.7899,1.9414,2.1069,2.2859,2.3547,2.3535,2.2831,2.2791,2.1205,1.7956,0.0,0.0,0.0,0.0,0.0,0.0,0.0,0.0,0.0,0.0,0.0,0.0,0.0,0.0,0.0,0.0,0.0,0.0,0.0,0.0,0.0,0.0,0.0,0.0,0.0,0.0,0.0,0.0,0.0,0.0,0.0,0.0,0.0,0.0,0.0,0.0,0.0,0.0,0.0,1.683,1.7818,0.0,0.0,0.0,0.0,0.0,0.0,0.0,0.0,2.0285,0.0,0.0,0.0,0.0,0.0,0.0,0.0,0.0,0.0,0.0,0.0,0.0,0.0,0.0,0.0,0.0,0.0,0.0,0.0,0.0,0.0,0.0,0.0,0.0,0.0,0.0,0.0,0.0,0.0,0.0,0.0,0.0,0.0,0.0,0.0,0.0,0.0,0.0,0.0,0.0,0.0,0.0,0.0,0.0,0.0,0.0,0.0,0.0,0.0,0.0,0.0,0.0,0.0,0.0,0.0,1.7985,1.9985,2.1673,2.287,2.369,2.3677,2.2849,2.2802,2.1181,0.0,0.0,0.0,0.0,0.0,0.0,0.0,0.0,0.0,0.0,0.0,0.0,0.0,0.0,0.0,0.0,0.0,0.0,0.0,0.0,0.0,0.0,0.0,0.0,0.0,0.0,0.0,0.0,0.0,0.0,0.0,0.0,0.0,0.0,0.0,0.0,0.0,0.0,0.0,0.0,1.7199,1.8026,1.8895,0.0,0.0,0.0,0.0,0.0,0.0,2.0261,2.0238,0.0,0.0,0.0,0.0,0.0,0.0,0.0,0.0,0.0,0.0,0.0,0.0,0.0,0.0,0.0,0.0,0.0,0.0,0.0,0.0,0.0,0.0,0.0,0.0,0.0,0.0,0.0,0.0,0.0,0.0,0.0,0.0,0.0,0.0,0.0,0.0,0.0,0.0,0.0,0.0,0.0,0.0,0.0,0.0,0.0,0.0,0.0,0.0,0.0,0.0,0.0,0.0,0.0,0.0,0.0,1.823,2.0675,2.2278,2.2921,2.3852,2.3865,2.2855,2.2797,2.12,0.0,0.0,0.0,0.0,0.0,0.0,0.0,0.0,0.0,0.0,0.0,0.0,0.0,0.0,0.0,0.0,0.0,0.0,0.0,0.0,0.0,0.0,0.0,0.0,0.0,0.0,0.0,0.0,0.0,0.0,0.0,0.0,0.0,0.0,0.0,0.0,0.0,0.0,0.0,0.0,0.0,1.8084,1.9104,1.9869,0.0,0.0,0.0,0.0,2.0288,2.0238,0.0,0.0,0.0,0.0,0.0,0.0,0.0,0.0,0.0,0.0,0.0,0.0,0.0,0.0,0.0,0.0,0.0,0.0,0.0,0.0,0.0,0.0,0.0,0.0,0.0,0.0,0.0,0.0,0.0,0.0,0.0,0.0,0.0,0.0,0.0,0.0,0.0,0.0,0.0,0.0,0.0,0.0,0.0,0.0,0.0,0.0,0.0,0.0,0.0,0.0,0.0,0.0,0.0,0.0,0.0,0.0,1.9126,2.1565,2.2856,2.296,2.445,2.4463,2.2855,2.2797,2.12,0.0,0.0,0.0,0.0,0.0,0.0,0.0,0.0,0.0,0.0,0.0,0.0,0.0,0.0,0.0,0.0,0.0,0.0,0.0,0.0,0.0,0.0,0.0,0.0,0.0,0.0,0.0,0.0,0.0,0.0,0.0,0.0,0.0,0.0,0.0,0.0,0.0,0.0,0.0,0.0,0.0,1.8292,1.9923,2.025,2.0288,0.0,0.0,2.0288,2.0288,2.0238,0.0,0.0,0.0,0.0,0.0,0.0,0.0,0.0,0.0,0.0,0.0,0.0,0.0,0.0,0.0,0.0,0.0,0.0,0.0,0.0,0.0,0.0,0.0,0.0,0.0,0.0,0.0,0.0,0.0,0.0,0.0,0.0,0.0,0.0,0.0,0.0,0.0,0.0,0.0,0.0,0.0,0.0,0.0,0.0,0.0,0.0,0.0,0.0,0.0,0.0,0.0,0.0,0.0,0.0,0.0,1.8356,1.9252,2.1709,2.2982,2.2964,2.4542,2.4559,2.2855,2.2797,2.12,0.0,0.0,0.0,0.0,0.0,0.0,0.0,0.0,0.0,0.0,0.0,0.0,0.0,0.0,0.0,0.0,0.0,0.0,0.0,0.0,0.0,0.0,0.0,0.0,0.0,0.0,0.0,0.0,0.0,0.0,0.0,0.0,0.0,0.0,0.0,0.0,0.0,0.0,0.0,0.0,0.0,0.0,2.0754,2.0981,0.0,0.0,0.0,2.172,2.1716,0.0,0.0,0.0,0.0,0.0,0.0,0.0,0.0,0.0,0.0,0.0,0.0,0.0,0.0,0.0,0.0,0.0,0.0,0.0,0.0,0.0,0.0,0.0,0.0,0.0,0.0,0.0,0.0,0.0,0.0,0.0,0.0,0.0,0.0,0.0,0.0,0.0,0.0,0.0,0.0,0.0,0.0,0.0,0.0,0.0,0.0,0.0,0.0,0.0,0.0,0.0,0.0,0.0,0.0,0.0,0.0,0.0,1.9536,2.1815,2.2968,2.2948,2.4538,2.4675,2.3186,2.2908,0.0,0.0,0.0,0.0,0.0,0.0,0.0,0.0,0.0,0.0,0.0,0.0,0.0,0.0,0.0,0.0,0.0,0.0,0.0,0.0,0.0,0.0,0.0,0.0,0.0,0.0,0.0,0.9897,0.0,0.0,0.0,0.0,0.0,0.0,0.0,0.0,0.0,0.0,0.0,0.0,0.0,0.0,1.9831,2.1308,2.1696,2.2062,0.0,0.0,2.272,2.2504,2.1921,2.1414,0.0,0.0,0.0,0.0,0.0,0.0,0.0,0.0,0.0,0.0,0.0,0.0,0.0,0.0,0.0,0.0,0.0,0.0,0.0,0.0,0.0,0.0,0.0,0.0,0.0,0.0,0.0,0.0,0.0,0.0,0.0,0.0,0.0,0.0,0.0,0.0,0.0,0.0,0.0,0.0,0.0,0.0,0.0,0.0,0.0,0.0,0.0,0.0,0.0,0.0,0.0,0.0,0.0,0.0,0.0,2.0402,2.2131,2.2968,2.2967,2.4538,2.4968,2.4033,2.322,2.1951,0.0,0.0,0.0,0.0,0.0,0.0,0.0,0.0,0.0,0.0,0.0,0.0,0.0,0.0,0.0,0.0,0.0,0.0,0.0,0.0,0.0,0.0,0.0,0.0,0.0,0.0,0.0,0.0,0.0,0.0,0.0,0.0,0.0,0.0,0.0,0.0,0.0,0.0,0.0,0.0,0.0,2.0446,2.1365,2.2197,2.274,0.0,0.0,2.2524,2.1716,2.156,2.1227,2.0427,0.0,0.0,0.0,0.0,0.0,0.0,0.0,0.0,0.0,0.0,0.0,0.0,0.0,0.0,0.0,0.0,0.0,0.0,0.0,0.0,0.0,0.0,0.0,0.0,0.0,0.0,0.0,0.0,0.0,0.0,0.0,0.0,0.0,0.0,0.0,0.0,0.0,0.0,0.0,0.0,0.0,0.0,0.0,0.0,0.0,0.0,0.0,0.0,0.0,0.0,0.0,0.0,0.0,1.8763,2.0478,2.21,2.2916,2.2948,2.4544,2.497,2.4129,2.3263,2.2028,0.0,0.0,0.0,0.0,0.0,0.0,0.0,0.0,0.0,0.0,0.0,0.0,0.0,0.0,0.0,0.0,0.0,0.0,0.0,0.0,0.0,0.0,0.0,0.0,0.0,0.0,0.0,0.0,0.9894,1.0235,1.1104,0.0,0.0,0.0,0.0,0.0,0.0,0.0,0.0,0.0,0.0,2.1513,2.2908,2.3379,0.0,0.0,2.3614,2.3291,2.2429,2.185,2.1372,2.1056,2.0544,0.0,0.0,0.0,0.0,0.0,0.0,0.0,0.0,0.0,0.0,0.0,0.0,0.0,0.0,0.0,0.0,0.0,0.0,0.0,0.0,0.0,0.0,0.0,0.0,0.0,0.0,0.0,0.0,0.0,0.0,0.0,0.0,0.0,0.0,0.0,0.0,0.0,0.0,0.0,0.0,0.0,0.0,0.0,0.0,0.0,0.0,0.0,0.0,0.0,0.0,0.0,0.0,1.8762,2.0497,2.2094,2.2889,2.2905,2.4536,2.5096,2.4452,2.3394,2.2235,0.0,0.0,0.0,0.0,0.0,0.0,0.0,0.0,0.0,0.0,0.0,0.0,0.0,0.0,0.0,0.0,0.0,0.0,0.0,0.0,0.0,0.0,0.0,0.0,0.0,0.0,0.0,0.0,0.9863,1.0135,1.074,0.0,0.0,0.0,0.0,0.0,0.0,0.0,0.0,0.0,0.0,2.2717,2.3941,2.4321,2.4402,2.4128,2.4118,2.3717,2.2608,2.1937,2.1424,2.1185,0.0,0.0,0.0,0.0,0.0,0.0,0.0,0.0,0.0,0.0,0.0,0.0,0.0,0.0,0.0,0.0,0.0,0.0,0.0,0.0,0.0,0.0,0.0,0.0,0.0,0.0,0.0,0.0,0.0,0.0,1.7711,0.0,0.0,0.0,0.0,0.0,0.0,0.0,0.0,0.0,0.0,0.0,0.0,0.0,0.0,0.0,0.0,0.0,0.0,0.0,0.0,0.0,0.0,0.0,2.0478,2.2094,2.2909,2.2967,2.4536,2.5341,2.5212,2.3678,2.2778,2.2643,0.0,0.0,0.0,0.0,0.0,0.0,0.0,0.0,0.0,0.0,0.0,0.0,0.0,0.0,0.0,0.0,0.0,0.0,0.0,0.0,0.0,0.0,0.0,0.0,0.0,0.0,0.9894,0.9894,0.9922,0.0,0.0,0.0,0.0,0.0,0.0,0.0,0.0,0.0,0.0,2.2425,2.4042,2.4122,2.4819,2.502,2.4191,2.4075,2.3519,2.1879,2.159,2.1313,0.0,0.0,0.0,0.0,0.0,0.0,0.0,0.0,0.0,0.0,0.0,0.0,0.0,0.0,0.0,0.0,0.0,0.0,0.0,0.0,0.0,0.0,0.0,0.0,0.0,0.0,0.0,1.7397,1.7526,0.0,0.0,0.0,0.0,0.0,0.0,0.0,0.0,0.0,0.0,0.0,2.1391,2.191,0.0,0.0,0.0,0.0,0.0,0.0,0.0,0.0,0.0,0.0,0.0,0.0,1.9609,2.125,2.2353,2.3168,2.3708,2.4768,2.5337,2.5308,2.424,2.2874,2.1196,0.0,0.0,0.0,0.0,0.0,0.0,0.0,0.0,0.0,0.0,0.0,0.0,0.0,0.0,0.0,0.0,0.0,0.0,0.0,0.0,0.0,0.0,0.0,0.0,0.0,0.9872,0.0,0.0,0.0,0.0,0.0,0.0,0.0,0.0,0.0,0.0,0.0,2.0305,2.1726,2.3183,2.4301,2.4874,2.5196,2.4914,0.0,0.0,0.0,0.0,0.0,0.0,0.0,0.0,0.0,0.0,0.0,0.0,0.0,0.0,2.6068,2.5931,2.6352,2.674,2.668,0.0,0.0,0.0,0.0,0.0,0.0,0.0,0.0,0.0,0.0,0.0,0.0,0.0,0.0,0.0,0.0,1.8531,0.0,0.0,0.0,0.0,0.0,0.0,0.0,0.0,2.186,2.2241,2.2231,2.2765,2.2705,0.0,2.2145,2.1432,0.0,0.0,0.0,0.0,0.0,0.0,0.0,0.0,2.0033,2.1667,2.2498,2.328,2.4098,2.487,2.5308,2.5288,2.4524,2.3028,2.0792,1.935,1.7696,0.0,0.0,0.0,0.0,0.0,0.0,0.0,0.0,0.0,0.0,0.0,0.0,0.0,0.0,0.0,0.0,0.0,0.0,0.0,0.0,0.0,0.0,0.0,1.0769,0.0,0.0,0.0,0.0,0.0,0.0,0.0,0.0,0.0,1.8387,1.9738,2.1309,2.302,2.4013,2.4789,2.5367,0.0,0.0,0.0,0.0,0.0,0.0,0.0,2.1316,2.1313,2.1773,2.2358,2.2957,2.3947,2.5071,2.6252,0.0,0.0,2.7036,2.7404,2.7772,2.7722,2.771,2.7698,2.7707,2.7693,2.7813,0.0,0.0,0.0,0.0,0.0,0.0,0.0,0.0,1.9667,1.9921,0.0,2.0255,0.0,0.0,0.0,0.0,0.0,2.1445,0.0,0.0,2.2734,2.3113,2.3047,2.309,2.3065,2.3043,2.3036,2.2588,2.1655,2.0083,0.0,0.0,0.0,0.0,0.0,0.0,2.0085,2.1732,2.2553,2.3338,2.4137,2.4913,2.5308,2.5288,2.4524,2.3317,2.1677,2.0731,1.9161,1.6731,1.5702,0.0,0.0,0.0,0.0,0.0,0.0,0.0,0.0,0.0,0.0,0.0,0.0,0.0,0.0,0.0,0.0,0.0,0.0,0.0,0.0,1.194,0.0,0.0,0.0,0.0,0.0,0.0,0.0,0.0,0.0,0.0,2.0232,2.1038,2.2194,2.3879,0.0,0.0,0.0,0.0,2.5211,2.4402,2.43,2.3978,2.3108,2.2975,2.298,2.303,0.0,0.0,2.5405,2.568,2.6245,2.7919,2.8809,2.9132,2.8257,2.8171,2.8135,2.8076,2.8106,2.8019,2.7996,2.8164,2.8319,1.9555,0.0,0.0,0.0,0.0,1.9567,2.0302,2.1258,2.1505,2.1722,2.1885,2.2015,0.0,0.0,0.0,0.0,0.0,0.0,2.2732,2.277,2.3625,2.3992,2.3955,2.4529,2.4458,2.3862,2.3841,2.3408,2.2542,2.15,2.0385,1.9239,0.0,0.0,0.0,0.0,2.1571,2.2602,2.3437,2.4208,2.5005,2.5244,2.537,2.5288,2.4505,2.3855,2.3336,2.1382,1.9988,1.9225,1.6679,0.0,0.0,0.0,0.0,0.0,0.0,0.0,0.0,0.0,0.0,0.0,0.0,0.0,0.0,0.0,0.0,0.0,0.0,0.0,1.1977,1.2817,1.3312,0.0,0.0,0.0,0.0,0.0,0.0,0.0,0.0,0.0,2.2724,2.315,2.3546,0.0,0.0,2.5506,2.5567,2.5568,2.5282,2.4474,0.0,0.0,0.0,2.3079,2.3297,2.3891,2.5035,2.6235,2.7335,2.7531,2.7861,2.8952,2.9302,2.9551,2.9944,2.9953,2.9885,2.9896,2.9892,2.9885,2.9831,2.9873,2.9959,2.1397,2.0143,1.9887,2.0012,2.0341,2.0671,2.133,2.2128,2.2363,2.2536,2.2676,2.2788,2.257,2.213,2.2161,0.0,0.0,0.0,2.3612,2.3665,2.4479,2.4864,2.486,2.5279,2.5223,2.4718,2.471,2.4272,2.3431,2.2936,2.2014,2.0744,0.0,0.0,2.0272,2.1275,2.236,2.3456,2.3967,2.459,2.5417,2.5421,2.5361,2.5288,2.4812,2.4432,2.4091,2.2626,2.1332,2.0322,1.8393,1.6719,0.0,0.0,0.0,0.0,0.0,0.0,0.0,0.0,0.0,0.0,0.0,1.0567,1.0536,0.0,0.0,0.0,1.2226,1.3096,1.4299,1.5186,0.0,0.0,0.0,0.0,0.0,0.0,0.0,2.101,2.2518,2.3861,2.4941,2.543,2.5584,2.5267,2.5718,2.6204,2.6571,0.0,2.645,2.597,2.5925,2.5758,2.5254,2.5162,2.534,2.5854,2.6779,2.78,2.8642,2.8819,2.9111,2.9814,3.0048,3.0223,3.0749,3.0807,3.0759,3.0757,3.0752,3.0728,3.0698,3.0695,3.0753,2.2923,2.2436,2.1593,2.1347,2.1551,2.1818,2.2155,2.2512,2.2682,2.2818,2.3,2.3068,2.3086,2.3021,2.3151,0.0,2.3232,2.4093,2.4492,2.454,2.5278,2.5604,2.5601,2.5531,2.5513,2.5507,2.5507,2.5074,2.4337,2.4244,2.3815,2.3073,2.1497,2.1102,2.1852,2.1947,2.2751,2.4254,2.4303,2.4701,2.5468,2.543,2.5365,2.5293,2.5293,2.4971,2.4225,2.4137,2.3025,2.0762,2.0485,1.8971,1.5939,0.0,0.0,0.0,0.0,0.0,0.0,0.0,0.0,0.0,0.0,0.0,0.0,0.0,0.0,0.0,1.4257,0.0,1.7544,1.8426,0.0,0.0,0.0,2.0432,2.0499,2.1932,2.2938,2.3007,0.0,0.0,2.6818,0.0,2.7849,2.7105,2.7019,2.7293,2.8087,2.8139,2.8195,2.806,2.8211,2.8258,2.7947,2.8108,2.8171,2.8214,2.8453,2.8844,2.9528,2.9703,3.0055,3.0699,3.0914,3.0895,3.0914,3.0894,3.0872,3.0838,3.0815,3.0812,3.0803,3.0815,3.081,2.378,2.3332,2.3301,2.3038,2.2629,2.2903,2.3502,2.4279,2.4478,2.4603,2.4715,2.4833,2.4541,2.3978,2.4062,2.4097,2.4138,2.4995,2.539,2.54,2.5546,2.5598,2.5601,2.5531,2.5513,2.5511,2.5507,2.5376,2.517,2.4524,2.4099,2.3867,2.2896,2.2501,2.2734,2.3366,2.39,2.4293,2.4939,2.5321,2.5492,2.5427,2.5393,2.5384,2.5384,2.5288,2.5081,2.4499,2.3899,2.3262,2.1488,2.0109,1.9283,1.6796,0.0,0.0,0.0,0.0,0.0,0.0,0.0,0.0,0.0,1.2733,1.3341,0.0,1.4074,0.0,1.6901,1.8289,1.9286,2.0207,0.0,0.0,2.2462,2.3287,2.399,2.4949,2.5613,2.5735,2.6889,2.7681,2.7764,2.8003,2.8357,2.8757,2.8301,2.7987,2.8172,2.825,2.8262,2.8304,2.8369,2.8295,2.8392,2.888,2.9292,2.9275,2.9822,3.035,3.0566,3.0586,3.0683,3.0859,3.0918,3.0918,3.0918,3.0918,3.0898,3.0877,3.0875,3.0871,3.087,3.0888,3.0887,2.4247,2.4118,2.4029,2.382,2.3547,2.3816,2.4306,2.4914,2.5087,2.5228,2.5364,2.5484,2.5292,2.4888,2.496,2.4967,2.5025,2.5485,2.5703,2.5693,2.5669,2.5632,2.5604,2.5573,2.5531,2.5523,2.5519,2.5515,2.5492,2.5027,2.4774,2.4755,2.4363,2.4152,2.4149,2.4251,2.4482,2.4871,2.5349,2.5577,2.5503,2.548,2.5427,2.5387,2.5388,2.5384,2.5393,2.4983,2.4559,2.4187,2.2903,2.1672,2.0544,1.8701,1.7115,0.0,0.0,0.0,0.0,0.0,0.0,0.0,0.0,0.0,0.0,0.0,1.6792,1.8377,1.9716,2.0826,2.1656,2.2901,2.3861,2.4347,2.5475,2.6433,2.6987,2.8109,2.8897,2.9016,2.979,3.0335,3.0402,3.0469,3.068,3.1172,3.0808,3.0232,2.9503,2.9418,2.9464,2.9447,2.9449,2.9451,2.9452,2.9843,3.0194,3.0234,3.0586,3.0918,3.0918,3.0918,3.0918,3.0918,3.0918,3.0918,3.0918,3.0918,3.0918,3.0918,3.0918,3.0917,3.0917,3.0916,3.0915,2.4567,2.4717,2.4287,2.4129,2.4192,2.4454,2.4681,2.4914,2.5043,2.5217,2.5416,2.5557,2.5607,2.5607,2.5658,2.5699,2.5694,2.57,2.5703,2.5695,2.5816,2.5829,2.5788,2.5874,2.589,2.5839,2.5832,2.5824,2.5828,2.5824,2.5827,2.5835,2.5903,2.5935,2.5904,2.5189,2.5092,2.5612,2.5604,2.5573,2.5502,2.5518,2.5468,2.5425,2.5406,2.5393,2.5391,2.5397,2.5097,2.4429,2.4345,2.3322,2.1152,2.08,1.9664,0.0,1.709,0.0,0.0,0.0,0.0,0.0,0.0,0.0,0.0,1.9064,2.0214,2.1833,2.2656,2.3509,2.4468,2.5937,2.696,2.7283,2.8563,2.9514,2.9733,3.1075,3.201,3.2081,3.2749,3.323,3.3183,3.3373,3.3362,3.323,3.3144,3.2582,3.147,3.1047,3.0953,3.0954,3.0916,3.0702,3.0742,3.084,3.0859,3.0879,3.0879,3.0918,3.0918,3.0918,3.0918,3.0918,3.0918,3.0918,3.0918,3.0918,3.0918,3.0918,3.0918,3.0918,3.0918,3.0918,3.0917,2.5343,2.4477,2.4598,2.4422,2.4056,2.4266,2.4539,2.4832,2.5019,2.5222,2.5398,2.5541,2.5595,2.5607,2.5658,2.5698,2.5689,2.57,2.5703,2.5721,2.6429,2.6736,2.6706,2.7315,2.7631,2.7614,2.7593,2.7601,2.7598,2.7601,2.7604,2.7618,2.7668,2.7697,2.7704,0.0,0.0,0.0,2.5632,2.5604,2.5573,2.5522,2.5487,2.5484,2.5421,0.0,2.5397,2.5449,2.5439,2.5323,2.4715,0.0,0.0,0.0,0.0,0.0,0.0,0.0,0.0,0.0,0.0,0.0,2.2318,2.2062,2.1023,2.2198,2.3727,2.5349,2.5726,2.6477,2.7956,2.8429,2.9261,3.0648,3.1088,3.1569,3.2261,3.2715,3.2973,3.3036,3.3187,3.3334,3.3444,3.3395,3.3412,3.3496,3.339,3.3258,3.2946,3.2283,3.1659,3.1074,3.0957,3.0918,3.0918,3.0918,3.0918,3.0918,3.0918,3.0918,3.0918,3.0918,3.0918,3.0918,3.0918,3.0918,3.0918,3.0918,3.0918,3.0918,3.0918,3.0918,3.0918,3.0918,3.0918,2.5931,0.0,2.5451,2.5057,0.0,2.4807,2.4808,2.4668,2.49,2.5384,2.6062,2.6155,2.6196,2.6238,2.6268,2.6079,2.5687,2.5695,2.5936,2.6367,2.679,2.7224,2.7612,2.7974,2.8137,2.8145,2.8129,2.8136,2.8106,2.8136,2.8155,2.8137,2.8167,2.8191,2.8193,2.8253,2.7648,2.6357,2.6281,2.605,2.5664,2.5585,2.5738,2.6114,0.0,0.0,0.0,0.0,0.0,0.0,0.0,0.0,0.0,0.0,0.0,2.3687,2.3202,2.2949,2.2985,2.3354,2.3959,2.4824,2.6016,2.5959,2.4212,2.5212,2.6441,2.7648,2.8192,2.9014,3.0276,3.0854,3.1476,3.2348,3.2817,3.3296,3.3749,3.4214,3.4505,3.4565,3.4573,3.4596,3.4665,3.4697,3.4691,3.4699,3.4684,3.4511,3.4042,3.33,3.2461,3.166,3.1133,3.0918,3.0918,3.0918,3.0918,3.0918,3.0918,3.0918,3.0918,3.0918,3.0918,3.0918,3.0918,3.0918,3.0918,3.0918,3.0918,3.0918,3.0918,3.0918,3.0918,3.0918,3.0918,2.6405,2.6696,2.6343,2.5841,2.5314,2.5576,2.5421,2.4981,0.0,0.0,0.0,2.6958,2.7055,2.7112,2.7123,2.6766,2.6149,2.6154,2.6535,2.7226,2.7401,2.7824,2.8514,2.8629,2.8663,2.8656,2.8663,2.8632,2.8576,2.8632,2.8665,2.8659,2.866,2.8643,2.8682,2.8737,2.8327,2.7492,2.7264,2.6821,2.6167,2.6084,2.6359,2.7013,2.6978,2.7275,2.7976,2.8014,2.8028,2.809,2.8115,2.7792,2.7174,2.7107,2.6802,2.6125,2.6134,2.6196,2.6281,2.6495,2.6992,2.7852,2.9188,2.9212,2.743,2.8079,2.8926,2.9723,3.0461,3.1242,3.2167,3.2903,3.3417,3.3567,3.4234,3.4667,3.4785,3.5369,3.5771,3.5916,3.5834,3.5929,3.5916,3.5919,3.6003,3.5993,3.5858,3.5781,3.498,3.4004,3.3105,3.248,3.1777,3.1172,3.1133,3.0976,3.0937,3.0918,3.0918,3.0918,3.0918,3.0918,3.0918,3.0918,3.0918,3.0918,3.0918,3.0918,3.0918,3.0918,3.0918,3.0918,3.0918,3.0918,3.0918,2.677,2.6468,2.6743,2.6541,2.6064,2.6326,2.658,2.6776,2.6355,2.673,2.7645,2.7771,2.7877,2.7938,2.7979,2.7948,2.785,2.7921,2.7992,0.0,2.8886,2.9296,2.9447,3.0134,3.0427,3.0425,3.0431,3.0424,3.0421,3.0424,3.0431,3.0406,3.0437,3.0437,3.0514,3.054,3.0112,2.9231,2.8483,2.8016,2.7866,2.7839,2.7849,2.7913,2.7915,2.7938,2.8074,2.8055,2.8028,2.8109,2.8113,2.8031,2.7943,2.7977,2.7872,2.7805,2.8451,2.8851,2.889,3.0145,3.1283,3.2116,3.2449,3.1835,3.0151,3.0744,3.1623,3.2436,3.2603,3.3083,3.3926,3.4181,3.4561,3.5244,3.5503,3.5622,3.5642,3.5766,3.5909,3.597,3.5983,3.5994,3.6006,3.6011,3.6012,3.6014,3.6015,3.5937,3.5566,3.4414,3.3476,3.3164,3.2539,3.209,3.1953,3.1348,3.1055,3.0918,3.0937,3.0937,3.1016,3.1016,3.1035,3.0957,3.1035,3.0976,3.0976,3.0918,3.0918,3.0918,3.0918,3.0918,3.0918,3.0918,3.0918,2.6959,2.7031,2.7419,2.7284,2.6802,2.677,2.7168,2.7819,2.7694,2.7956,2.8441,2.8584,2.87,2.8748,2.8816,2.8604,2.8193,2.8237,2.8527,2.9027,2.9411,2.9844,3.0311,3.0654,3.0798,3.0785,3.0796,3.079,3.0802,3.0802,3.0792,3.0804,3.0838,3.0867,3.0894,3.0915,3.07,3.031,2.9443,2.8768,2.8288,2.8221,2.8401,2.8796,2.8812,2.9024,2.9438,2.9879,3.0135,3.0163,3.0586,3.0835,3.0859,3.0839,3.0828,3.0881,3.1208,3.1416,3.1394,3.2104,3.2745,3.3127,3.3602,3.3543,3.2745,3.258,3.2866,3.3703,3.3843,3.421,3.5048,3.5189,3.5367,3.5801,3.5866,3.5864,3.5894,3.594,3.5978,3.5988,3.6017,3.6007,3.6012,3.6014,3.6015,3.6015,3.6016,3.6016,3.6016,3.5332,3.4609,3.416,3.3418,3.291,3.2812,3.2168,3.168,3.1601,3.1191,3.1152,3.1445,3.1601,3.1777,3.2129,3.1934,3.1641,3.1601,3.1191,3.0976,3.0918,3.0918,3.0918,3.0918,3.0918,3.0918,2.7053,2.7511,2.7911,2.7906,2.7622,2.7482,2.7914,2.8659,2.8888,2.9058,2.9257,2.9413,2.9521,2.9597,2.9671,2.9356,2.8839,2.8784,2.9177,2.9823,2.9876,3.0233,3.084,3.0837,3.0811,3.0805,3.0801,3.0816,3.081,3.081,3.0914,3.106,3.1146,3.1267,3.1463,3.1464,3.1464,3.1425,3.0794,2.9929,2.8909,2.8806,2.9089,2.9661,2.9884,3.0291,3.0916,3.1741,3.2197,3.2207,3.2783,3.3151,3.3175,3.3127,3.3122,3.3171,3.3321,3.349,3.3669,3.3747,3.3785,3.3803,3.4393,3.4799,3.4738,3.4158,3.399,3.46,3.4772,3.5073,3.5638,3.5795,3.5849,3.5925,3.5929,3.5923,3.5927,3.5967,3.6017,3.6019,3.6008,3.6013,3.6014,3.6015,3.6015,3.6016,3.6016,3.6016,3.6016,3.6016,3.5684,3.5078,3.4258,3.375,3.3652,3.2988,3.2539,3.2461,3.1973,3.1934,3.2324,3.2461,3.2637,3.3105,3.2871,3.2519,3.2402,3.1816,3.1348,3.1269,3.1113,3.0918,3.0918,3.0918,3.0918,2.6972,2.7417,2.7839,2.8277,2.8621,2.8857,2.913,2.9458,2.9691,2.9863,2.9966,3.0226,3.033,3.0491,3.0536,3.045,3.0393,3.0533,3.0564,3.0645,3.07,3.0772,3.0897,3.0898,3.0897,3.0894,3.0893,3.0892,3.097,3.097,3.1283,3.1909,3.199,3.2381,3.3046,3.3105,3.3144,3.3144,3.3085,3.226,3.0684,3.0572,3.0609,3.066,3.1373,3.1809,3.1883,3.2648,3.307,3.3088,3.318,3.3185,3.3156,3.3131,3.3131,3.3189,3.3871,3.4617,3.534,3.5539,3.5489,3.5571,3.5554,3.562,3.5638,3.5613,3.5613,3.5645,3.5661,3.57,3.5858,3.5883,3.5914,3.599,3.5983,3.6012,3.5999,3.6006,3.6011,3.6013,3.6013,3.6014,3.6015,3.6016,3.6016,3.6016,3.6016,3.6016,3.6016,3.6016,3.5996,3.5723,3.5137,3.4648,3.4473,3.3848,3.3379,3.3301,3.3223,3.3144,3.3223,3.3301,3.3398,3.3769,3.3457,3.332,3.3144,3.2656,3.2129,3.1973,3.1562,3.0937,3.0918,3.0918,3.0918,2.6891,2.7307,2.7719,2.8237,2.8798,2.9082,2.933,2.956,2.9745,2.9951,3.0087,3.026,3.0414,3.054,3.0616,3.0661,3.0704,3.0742,3.076,3.079,3.0792,3.0847,3.0915,3.0917,3.0918,3.0916,3.0916,3.1149,3.1617,3.2107,3.2556,3.283,3.287,3.3047,3.3379,3.3379,3.3379,3.3379,3.3378,3.3044,3.2435,3.2326,3.2329,3.2368,3.2662,3.2789,3.2853,3.3579,3.4016,3.4001,3.4438,3.471,3.4627,3.4622,3.4642,3.4666,3.4986,3.5383,3.5736,3.5799,3.5811,3.5861,3.5846,3.5869,3.5864,3.5892,3.5899,3.5914,3.5899,3.588,3.5945,3.5955,3.5983,3.5995,3.6021,3.6005,3.6008,3.6011,3.6013,3.6014,3.6015,3.6016,3.6016,3.6016,3.6016,3.6016,3.6016,3.6016,3.6016,3.6016,3.6016,3.5976,3.5664,3.5508,3.5371,3.4726,3.4277,3.4082,3.3711,3.3496,3.4082,3.416,3.4297,3.4785,3.4453,3.4199,3.418,3.3516,3.291,3.2734,3.2246,3.1543,3.1035,3.0918,3.0918,2.7351,2.7801,2.8272,2.8798,2.9317,2.9414,2.9579,2.9771,2.9804,2.9893,3.0053,3.0206,3.033,3.0461,3.0559,3.0628,3.0676,3.0695,3.0737,3.0795,3.0803,3.0938,3.1203,3.1227,3.1347,3.1562,3.162,3.1893,3.2478,3.3065,3.3515,3.371,3.3769,3.3867,3.4101,3.4121,3.4121,3.4121,3.4101,3.41,3.4119,3.4095,3.3888,3.3482,3.3629,3.3726,3.3671,3.4503,3.4925,3.4886,3.5465,3.5773,3.5723,3.5718,3.5723,3.5732,3.5788,3.5803,3.5823,3.5824,3.5849,3.59,3.5914,3.5931,3.5921,3.5927,3.596,3.5995,3.5965,3.5941,3.6009,3.6016,3.6021,3.6007,3.6011,3.6012,3.6013,3.6014,3.6015,3.6015,3.6015,3.6016,3.6016,3.6016,3.6016,3.6016,3.6016,3.6016,3.6016,3.6016,3.6016,3.6016,3.5996,3.5996,3.5957,3.5508,3.5098,3.4941,3.4531,3.4492,3.4941,3.5019,3.5078,3.5391,3.5215,3.5078,3.498,3.4394,3.3594,3.334,3.291,3.2344,3.1934,3.1543,3.1328,2.8693,2.9162,2.9883,3.0276,3.0574,3.0214,3.0217,3.0437,3.0039,2.9889,3.0046,3.0216,3.029,3.0433,3.0678,3.064,3.061,3.0676,3.0769,3.0857,3.0856,3.1269,3.2032,3.2044,3.2459,3.3027,3.3047,3.3183,3.334,3.3437,3.3828,3.4609,3.4629,3.5059,3.5625,3.5703,3.584,3.5703,3.5703,3.5801,3.5819,3.5819,3.5014,3.3772,3.4217,3.4615,3.4647,3.5361,3.5791,3.5742,3.5762,3.5799,3.5799,3.5791,3.5799,3.5799,3.5806,3.5827,3.5882,3.5892,3.5887,3.5912,3.5968,3.5981,3.5989,3.5996,3.6003,3.6009,3.5988,3.5988,3.6009,3.6009,3.6011,3.6013,3.6014,3.6015,3.6016,3.6016,3.6016,3.6016,3.6016,3.6016,3.6016,3.6016,3.6016,3.6016,3.6016,3.6016,3.6016,3.6016,3.6016,3.6016,3.6016,3.6016,3.5996,3.582,3.584,3.5703,3.5527,3.5703,3.5859,3.5957,3.5957,3.5957,3.582,3.5723,3.5723,3.5254,3.4394,3.3926,3.3633,3.3164,3.2734,3.2461,3.2246,2.8922,2.9608,3.0101,3.0439,3.0689,3.0761,3.0962,3.1168,3.1181,3.1261,3.1447,3.1599,3.1726,3.1852,3.2,3.1523,3.0659,3.0629,3.0978,3.1501,3.1615,3.2097,3.2862,3.2931,3.3059,3.3338,3.3397,3.3711,3.4277,3.4766,3.5215,3.5469,3.5547,3.5703,3.5957,3.6016,3.6016,3.6016,3.6016,3.6016,3.6016,3.6015,3.5663,3.5151,3.5363,3.5531,3.5511,3.5804,3.5925,3.5869,3.5869,3.5858,3.5876,3.5853,3.5853,3.5869,3.5855,3.5872,3.5897,3.5945,3.598,3.598,3.5995,3.6003,3.6005,3.6007,3.601,3.6012,3.6013,3.6014,3.6014,3.6014,3.6014,3.6016,3.6016,3.6016,3.6016,3.6016,3.6016,3.6016,3.6016,3.6016,3.6016,3.6016,3.6016,3.6016,3.6016,3.6016,3.6016,3.6016,3.6016,3.6016,3.6016,3.6016,3.6016,3.6016,3.5996,3.5996,3.5957,3.5918,3.5996,3.5996,3.5996,3.5976,3.6016,3.5996,3.5859,3.5781,3.5,3.4551,3.4238,3.4023,3.3496,3.3262,3.3086,2.9798,3.0439,3.0825,3.1142,3.1422,3.1483,3.1686,3.193,3.1909,3.2013,3.2222,3.2389,3.2518,3.2649,3.2759,3.2346,3.1413,3.1405,3.1786,3.2359,3.246,3.2927,3.3682,3.3817,3.3967,3.4213,3.4236,3.455,3.5098,3.5703,3.5996,3.5996,3.6016,3.6016,3.6016,3.6016,3.6016,3.6016,3.6016,3.6016,3.6016,3.6016,3.6015,3.6015,3.6014,3.601,3.6019,3.6019,3.5971,3.5951,3.5945,3.5919,3.5943,3.5924,3.5938,3.5953,3.5953,3.5945,3.5929,3.5989,3.6019,3.6019,3.6008,3.6012,3.6012,3.6012,3.6014,3.6015,3.6015,3.6015,3.6015,3.6015,3.6015,3.6016,3.6016,3.6016,3.6016,3.6016,3.6016,3.6016,3.6016,3.6016,3.6016,3.6016,3.6016,3.6016,3.6016,3.6016,3.6016,3.6016,3.6016,3.6016,3.6016,3.6016,3.6016,3.6016,3.6016,3.6016,3.6016,3.6016,3.6016,3.6016,3.6016,3.6016,3.6016,3.6016,3.6016,3.6016,3.5684,3.5195,3.5117,3.498,3.4512,3.4082,3.3926,3.1374,3.1699,3.2144,3.2379,3.2626,3.2361,3.2397,3.258,3.2152,3.2179,3.2432,3.2392,3.2699,3.2667,3.2963,3.2868,3.2948,3.3068,3.3113,3.32,3.3269,3.3777,3.4564,3.4677,3.5069,3.5723,3.5893,3.5917,3.5898,3.5957,3.6016,3.6016,3.6016,3.6016,3.6016,3.6016,3.6016,3.6016,3.6016,3.6016,3.6016,3.6016,3.6016,3.6016,3.6016,3.6015,3.6011,3.6011,3.5986,3.5994,3.5992,3.6004,3.5992,3.5988,3.6005,3.6007,3.5983,3.6012,3.6013,3.6004,3.601,3.601,3.6013,3.6014,3.6014,3.6015,3.6016,3.6016,3.6016,3.6016,3.6016,3.6016,3.6016,3.6016,3.6016,3.6016,3.6016,3.6016,3.6016,3.6016,3.6016,3.6016,3.6016,3.6016,3.6016,3.6016,3.6016,3.6016,3.6016,3.6016,3.6016,3.6016,3.6016,3.6016,3.6016,3.6016,3.6016,3.6016,3.6016,3.6016,3.6016,3.6016,3.6016,3.6016,3.6016,3.6016,3.6016,3.6016,3.6016,3.5703,3.5801,3.5762,3.5391,3.4941,3.4785,3.1443,3.1837,3.2161,3.2539,3.2898,3.2925,3.3128,3.34,3.3302,3.3459,3.3694,3.3917,3.4103,3.4211,3.4367,3.4466,3.4639,3.4706,3.4502,3.4091,3.4085,3.4563,3.5282,3.5482,3.5693,3.5953,3.601,3.6014,3.6015,3.6015,3.6016,3.6016,3.6016,3.6016,3.6016,3.6016,3.6016,3.6016,3.6016,3.6016,3.6016,3.6016,3.6016,3.6016,3.6016,3.6015,3.6015,3.6014,3.6012,3.6006,3.6006,3.6003,3.6017,3.6018,3.6019,3.6017,3.6002,3.6006,3.6007,3.6011,3.6013,3.6014,3.6015,3.6015,3.6015,3.6035,3.6055,3.6055,3.6016,3.6016,3.6016,3.6016,3.6094,3.6016,3.6016,3.6016,3.6016,3.6016,3.6016,3.6016,3.6016,3.6016,3.6016,3.6016,3.6016,3.6016,3.6016,3.6016,3.6016,3.6016,3.6016,3.6016,3.6016,3.6016,3.6016,3.6016,3.6016,3.6016,3.6016,3.6016,3.6016,3.6016,3.6016,3.6016,3.6016,3.6016,3.6016,3.6016,3.6016,3.6016,3.5937,3.5918,3.5937,3.5742,3.5449,3.1349,3.1763,3.2091,3.2438,3.2802,3.3088,3.339,3.3671,3.3887,3.4111,3.4363,3.4583,3.479,3.4936,3.5081,3.5226,3.5361,3.5453,3.5252,3.4872,3.489,3.5249,3.5768,3.5866,3.5934,3.5986,3.6004,3.6011,3.6014,3.6015,3.6016,3.6016,3.6016,3.6016,3.6016,3.6016,3.6016,3.6016,3.6016,3.6016,3.6016,3.6016,3.6016,3.6016,3.6016,3.6016,3.6016,3.6015,3.6014,3.6012,3.6011,3.6009,3.6008,3.6009,3.6009,3.6009,3.601,3.6012,3.6012,3.6014,3.6015,3.6015,3.6015,3.6191,3.6387,3.6484,3.6562,3.6914,3.7012,3.6973,3.6992,3.6973,3.6973,3.6953,3.6367,3.6074,3.6016,3.6016,3.6016,3.6016,3.6016,3.6016,3.6016,3.6016,3.6016,3.6016,3.6016,3.6016,3.6016,3.6016,3.6016,3.6016,3.6016,3.6016,3.6016,3.6016,3.6016,3.6016,3.6016,3.6016,3.6016,3.6016,3.6016,3.6016,3.6016,3.6016,3.6016,3.6016,3.6016,3.6016,3.6016,3.5996,3.5976,3.5996,3.5781,3.1249,3.1685,3.2034,3.2476,3.2887,3.3212,3.3554,3.3696,3.3917,3.4129,3.4306,3.445,3.4618,3.4812,3.5001,3.517,3.5312,3.5417,3.5475,3.5425,3.5458,3.5621,3.5783,3.5853,3.5921,3.5972,3.6009,3.6003,3.6013,3.6014,3.6015,3.6016,3.6016,3.6016,3.6016,3.6016,3.6016,3.6016,3.6016,3.6016,3.6016,3.6016,3.6016,3.6016,3.6016,3.6016,3.6016,3.6016,3.6015,3.6014,3.6013,3.6012,3.6011,3.6011,3.6011,3.6011,3.6013,3.6014,3.6015,3.6015,3.6094,3.6191,3.625,3.6426,3.7207,3.7383,3.7617,3.8223,3.834,3.8437,3.8418,3.8379,3.8398,3.834,3.7109,3.6289,3.6035,3.6016,3.6016,3.6016,3.6016,3.6016,3.6016,3.6016,3.6016,3.6016,3.6016,3.6016,3.6016,3.6016,3.6016,3.6016,3.6016,3.6016,3.6016,3.6016,3.6016,3.6016,3.6016,3.6016,3.6016,3.6016,3.6016,3.6016,3.6016,3.6016,3.6016,3.6016,3.6016,3.6016,3.6016,3.6016,3.6016,3.6016,3.6016,3.1424,3.2346,3.2743,3.344,3.4287,3.4648,3.4632,3.4433,3.4548,3.441,3.426,3.434,3.4561,3.48,3.4955,3.51,3.5218,3.532,3.542,3.5482,3.5522,3.5632,3.5763,3.5813,3.5855,3.5926,3.5978,3.6018,3.6008,3.6012,3.6015,3.6016,3.6016,3.6016,3.6016,3.6016,3.6016,3.6016,3.6016,3.6016,3.6016,3.6016,3.6016,3.6016,3.6016,3.6016,3.6016,3.6016,3.6016,3.6015,3.6015,3.6015,3.6016,3.6016,3.6016,3.6016,3.6016,3.6035,3.6035,3.6035,3.6309,3.6875,3.6953,3.7344,3.8164,3.8242,3.8379,3.8613,3.8613,3.8672,3.8652,3.8691,3.8672,3.8476,3.7676,3.6797,3.6269,3.6016,3.6016,3.6016,3.6035,3.6016,3.6016,3.6016,3.6016,3.6016,3.6016,3.6016,3.6016,3.6016,3.6016,3.6016,3.6016,3.6016,3.6016,3.6016,3.6016,3.6016,3.6016,3.6016,3.6016,3.6016,3.6016,3.6016,3.6016,3.6016,3.6016,3.6016,3.6016,3.6016,3.6016,3.6016,3.6016,3.6016,3.6016,3.1746,3.2627,3.327,3.4047,3.48,3.5136,3.5027,3.4679,3.4761,3.4559,3.4191,3.4269,3.4506,3.4749,3.4908,3.5037,3.5157,3.5243,3.5338,3.5448,3.5522,3.5618,3.5713,3.5764,3.5817,3.5875,3.5938,3.5985,3.6,3.601,3.6014,3.6016,3.6016,3.6016,3.6016,3.6016,3.6016,3.6016,3.6016,3.6016,3.6016,3.6016,3.6016,3.6016,3.6016,3.6016,3.6016,3.6016,3.6016,3.6016,3.6016,3.6016,3.6016,3.6016,3.6016,3.6016,3.6016,3.6113,3.6484,3.6562,3.6953,3.7637,3.7851,3.8301,3.8926,3.9141,3.9199,3.9707,3.9687,3.9707,3.9707,3.9707,3.9512,3.9199,3.8691,3.8027,3.7187,3.6816,3.6582,3.6484,3.625,3.6016,3.6016,3.6016,3.6016,3.6016,3.6016,3.6016,3.6016,3.6016,3.6016,3.6016,3.6016,3.6016,3.6016,3.6016,3.6016,3.6016,3.6016,3.6016,3.6016,3.6016,3.6016,3.6016,3.6016,3.6016,3.6016,3.6016,3.6016,3.6016,3.6016,3.6016,3.6016,3.6016,3.6016,3.2144,3.2781,3.3731,3.4413,3.4969,3.5226,3.5147,3.465,3.4876,3.4604,3.4133,3.4197,3.4439,3.4687,3.4821,3.4954,3.5096,3.5219,3.5457,3.5671,3.5881,3.6008,3.5883,3.5794,3.5799,3.5827,3.5869,3.5927,3.5992,3.6006,3.6012,3.6014,3.6015,3.6016,3.6016,3.6016,3.6016,3.6016,3.6016,3.6016,3.6016,3.6016,3.6016,3.6016,3.6016,3.6016,3.6016,3.6016,3.6016,3.6016,3.6016,3.6016,3.6016,3.6016,3.6016,3.6074,3.6191,3.6562,3.7148,3.7324,3.7812,3.8535,3.873,3.9121,3.9805,4.0059,4.0273,4.082,4.1172,4.0976,4.0957,4.1094,4.0723,4.0156,3.9961,3.9609,3.8926,3.8027,3.7441,3.7363,3.668,3.623,3.6113,3.6055,3.6016,3.6016,3.6016,3.6016,3.6016,3.6016,3.6016,3.6016,3.6016,3.6016,3.6016,3.6016,3.6016,3.6016,3.6016,3.6016,3.6016,3.6016,3.6016,3.6016,3.6016,3.6016,3.6016,3.6016,3.6016,3.6016,3.6016,3.6016,3.6016,3.6016,3.6016,3.2574,3.4117,3.4586,3.5388,3.6326,3.667,3.6203,3.5271,3.5509,3.4958,3.4179,3.4136,3.434,3.455,3.4742,3.4889,3.5056,3.5267,3.5661,3.6474,3.7196,3.7032,3.658,3.6154,3.5834,3.5829,3.5864,3.5921,3.5985,3.6003,3.6012,3.6014,3.6016,3.6035,3.6074,3.6133,3.6016,3.6016,3.6074,3.6113,3.6094,3.6094,3.6055,3.6016,3.6016,3.6016,3.6016,3.6016,3.6016,3.6016,3.6094,3.6211,3.6133,3.6094,3.6133,3.6328,3.6738,3.7109,3.7402,3.8027,3.8691,3.9492,3.9668,4.0,4.0801,4.0879,4.0957,4.1191,4.1191,4.1191,4.1191,4.1191,4.1074,4.0859,4.082,4.0781,4.041,3.9238,3.8437,3.8144,3.7578,3.7031,3.6992,3.6445,3.6269,3.6094,3.6094,3.6055,3.6133,3.625,3.6387,3.6582,3.6562,3.666,3.666,3.668,3.668,3.666,3.6582,3.6523,3.6523,3.6328,3.6445,3.6269,3.6016,3.6016,3.6016,3.6016,3.6016,3.6016,3.6016,3.6016,3.6016,3.6016,3.6016,3.3028,3.4501,3.5245,3.6018,3.6698,3.705,3.6523,3.5621,3.5702,3.5053,3.4072,3.4049,3.4269,3.4473,3.468,3.4888,3.5152,3.5676,3.6397,3.7182,3.776,3.7751,3.7514,3.7022,3.6648,3.5998,3.5852,3.5931,3.5997,3.606,3.6011,3.6013,3.6054,3.6289,3.6562,3.6621,3.6894,3.7226,3.7207,3.7051,3.668,3.6621,3.6328,3.6074,3.6035,3.6133,3.6601,3.6641,3.6855,3.709,3.7187,3.6992,3.668,3.6621,3.6777,3.7266,3.7578,3.8164,3.8555,3.8965,3.959,4.043,4.0488,4.0723,4.1074,4.1191,4.1191,4.1191,4.1191,4.1191,4.1191,4.1191,4.1191,4.1191,4.1191,4.1191,4.0976,4.0019,3.9219,3.9043,3.8437,3.8047,3.7695,3.7246,3.7266,3.7383,3.7422,3.7402,3.748,3.7559,3.748,3.7539,3.7441,3.7402,3.7402,3.7441,3.7539,3.7598,3.7656,3.7617,3.7617,3.7324,3.7031,3.6719,3.6348,3.6035,3.6016,3.6016,3.6094,3.6016,3.6035,3.6016,3.6016,3.6016,3.6016,3.3434,3.4627,3.5693,3.6314,3.6577,3.6794,3.6271,3.5413,3.5425,3.4782,3.3927,3.3972,3.4197,3.4397,3.4666,3.4916,3.5512,3.6544,3.7547,3.8063,3.8476,3.8495,3.8363,3.8174,3.7656,3.6319,3.6443,3.6509,3.654,3.6409,3.6752,3.6519,3.6464,3.6934,3.7402,3.7519,3.7734,3.8242,3.8301,3.8125,3.7598,3.75,3.7168,3.6777,3.668,3.6914,3.7383,3.7539,3.7793,3.8535,3.8613,3.8281,3.7891,3.7559,3.7754,3.8535,3.8633,3.9023,3.9512,3.9941,4.043,4.1172,4.1172,4.1152,4.1191,4.1191,4.1191,4.1191,4.1191,4.1191,4.1191,4.1191,4.1191,4.1191,4.1191,4.1191,4.1074,4.0527,4.0176,3.998,3.9375,3.8867,3.8691,3.8418,3.8535,3.8633,3.8652,3.8672,3.8691,3.8613,3.8379,3.8203,3.8027,3.7969,3.7969,3.8027,3.8144,3.8301,3.8457,3.8476,3.8457,3.8086,3.7637,3.7109,3.6738,3.6582,3.6504,3.6582,3.6543,3.623,3.6035,3.6016,3.6016,3.6016,3.6016,3.3627,3.5256,3.57,3.6105,3.6422,3.6169,3.5736,3.5204,3.4805,3.4304,3.3803,3.3921,3.4124,3.434,3.4583,3.5219,3.6281,3.7604,3.8643,3.9065,3.9492,3.9668,3.9244,3.9212,3.8734,3.8166,3.7987,3.8043,3.794,3.8127,3.7864,3.8062,3.8027,3.8184,3.8281,3.8398,3.8496,3.8887,3.8906,3.8711,3.8457,3.8262,3.8203,3.7891,3.7871,3.8086,3.8281,3.8379,3.8457,3.8574,3.8613,3.8945,3.9141,3.8789,3.8633,3.8867,3.9375,3.9824,4.0039,4.0586,4.0937,4.1172,4.1191,4.1191,4.1191,4.1191,4.1191,4.1191,4.1191,4.1191,4.1191,4.1191,4.1191,4.1191,4.1191,4.1191,4.1152,4.1016,4.084,4.0723,4.0156,3.9687,3.957,3.9414,3.9297,3.9277,3.9258,3.9219,3.918,3.9043,3.8828,3.8652,3.8516,3.8496,3.8476,3.8574,3.8691,3.8848,3.8965,3.8984,3.8887,3.8652,3.8262,3.8184,3.7988,3.7851,3.7695,3.7383,3.7226,3.709,3.6621,3.6094,3.6152,3.625,3.6016,3.3682,3.5356,3.5678,3.5797,3.5817,3.5832,3.5311,3.4617,3.4447,3.4114,3.3826,3.3873,3.4036,3.4233,3.4484,3.5432,3.7034,3.8353,3.9291,3.9799,4.0249,4.0404,4.0002,4.0063,3.9956,3.9743,3.9739,3.9237,3.8573,3.8513,3.8682,3.8589,3.8613,3.8809,3.918,3.9277,3.9531,3.9746,3.9883,3.9668,3.9238,3.8906,3.8652,3.8633,3.8691,3.8848,3.9219,3.9258,3.9531,3.9883,3.998,4.0195,4.0273,4.0215,3.9902,3.9961,4.0293,4.0566,4.0566,4.1016,4.1152,4.1191,4.1191,4.1191,4.1191,4.1191,4.1191,4.1191,4.1191,4.1191,4.1191,4.1191,4.1191,4.1191,4.1191,4.1191,4.1191,4.1191,4.1191,4.1191,4.0801,4.0488,4.0547,4.0332,4.0078,3.9941,3.9883,3.9824,3.9746,3.9687,3.957,3.9629,3.9609,3.959,3.9551,3.9531,3.9512,3.957,3.9629,3.9648,3.9726,3.9668,3.9824,3.9941,3.9668,3.8984,3.8516,3.8086,3.8027,3.7891,3.7324,3.6836,3.6621,3.6445,3.6367,3.3321,3.4901,3.5221,3.5211,3.5031,3.52,3.4835,3.4152,3.4074,3.3921,3.3674,3.378,3.3947,3.4241,3.4944,3.6012,3.7604,3.868,3.9659,4.0196,4.0427,4.0516,4.0593,4.0674,4.0629,4.0601,4.0686,4.0301,3.9502,3.9289,3.9168,3.9311,3.9199,3.9414,4.0039,4.0156,4.0684,4.0957,4.1172,4.0781,4.0137,3.9512,3.9121,3.9121,3.9121,3.9531,4.0078,4.0156,4.043,4.084,4.1055,4.1133,4.1172,4.1191,4.1191,4.1191,4.1191,4.1191,4.1191,4.1152,4.1191,4.1191,4.1191,4.1191,4.1191,4.1191,4.1191,4.1191,4.1191,4.1191,4.1191,4.1191,4.1191,4.1191,4.1191,4.1191,4.1191,4.1191,4.1191,4.1191,4.1191,4.1133,4.0976,4.0957,4.0605,4.0605,4.0527,4.0586,4.0547,4.0684,4.0684,4.082,4.0879,4.0859,4.0801,4.0684,4.0605,4.0527,4.0566,4.0566,4.0762,4.0898,4.0976,4.0781,4.0371,3.9687,3.9219,3.8926,3.8887,3.8633,3.8027,3.7656,3.75,3.7324,3.7187,3.226,3.3388,3.3732,3.3963,3.4098,3.396,3.3917,3.392,3.3488,3.3424,3.3605,3.3716,3.3887,3.4501,3.6054,3.7001,3.7916,3.9147,4.0043,4.037,4.0458,4.0527,4.06,4.0661,4.0752,4.0832,4.0873,4.0917,4.0527,4.0535,4.0672,4.0619,4.0586,4.0898,4.082,4.084,4.1113,4.1191,4.1191,4.1133,4.0976,4.0801,4.0742,4.0742,4.0742,4.0723,4.0859,4.0879,4.1055,4.1113,4.1191,4.1191,4.1191,4.1191,4.1191,4.1191,4.1191,4.1191,4.1191,4.1191,4.1191,4.1191,4.1191,4.1191,4.1191,4.1191,4.1191,4.1191,4.1191,4.1191,4.1191,4.1191,4.1191,4.1191,4.1191,4.1191,4.1191,4.1191,4.1191,4.1191,4.1191,4.1191,4.1133,4.1152,4.1152,4.1191,4.1191,4.1191,4.1191,4.1191,4.1191,4.1191,4.1191,4.1191,4.1191,4.1191,4.1191,4.1191,4.1191,4.1191,4.1191,4.1191,4.1191,4.0976,4.0605,4.0508,4.0293,4.0039,3.9844,3.9453,3.8945,3.8652,3.8457,3.8242,3.7949,3.1836,3.3141,3.3444,3.3502,3.3408,3.3454,3.344,3.335,3.3183,3.3283,3.3577,3.3675,3.4126,3.5058,3.6499,3.742,3.8258,3.9485,4.0158,4.0316,4.0413,4.0495,4.0595,4.064,4.0688,4.0804,4.0869,4.0933,4.1022,4.1087,4.1114,4.1107,4.1131,4.1074,4.1191,4.1191,4.1191,4.1191,4.1191,4.1191,4.1191,4.1191,4.1191,4.1191,4.1191,4.1191,4.1191,4.1191,4.1191,4.1191,4.1191,4.1191,4.1191,4.1191,4.1191,4.1191,4.1191,4.1191,4.1191,4.1191,4.1191,4.1191,4.1191,4.1191,4.1191,4.1191,4.1191,4.1191,4.1191,4.1191,4.1191,4.1191,4.1191,4.1191,4.1191,4.1191,4.1191,4.1191,4.1191,4.1191,4.1191,4.1191,4.1191,4.1191,4.1191,4.1191,4.1191,4.1191,4.1191,4.1191,4.1191,4.1191,4.1191,4.1191,4.1191,4.1191,4.1191,4.1191,4.1191,4.1191,4.1191,4.1191,4.1191,4.1191,4.0996,4.0996,4.1152,4.0937,4.0527,4.0215,3.9941,3.9629,3.9277,3.873,3.8476,3.142,3.2571,3.2927,3.2889,3.2683,3.3034,3.3087,3.2922,3.3042,3.3268,3.3563,3.3748,3.4426,3.5516,3.6521,3.7521,3.8527,3.9543,4.0032,4.0252,4.0351,4.0463,4.0539,4.0586,4.0668,4.08,4.0873,4.0937,4.1003,4.1072,4.1106,4.1106,4.1111,4.1132,4.1191,4.1191,4.1191,4.1191,4.1191,4.1191,4.1191,4.1191,4.1191,4.1191,4.1191,4.1191,4.1191,4.1191,4.1191,4.1191,4.1191,4.1191,4.1191,4.1191,4.1191,4.1191,4.1191,4.1191,4.1191,4.1191,4.1191,4.1191,4.1191,4.1191,4.1191,4.1191,4.1191,4.1191,4.1191,4.1191,4.1191,4.1191,4.1191,4.1191,4.1191,4.1191,4.1191,4.1191,4.1191,4.1191,4.1191,4.1191,4.1191,4.1191,4.1191,4.1191,4.1191,4.1191,4.1191,4.1191,4.1191,4.1191,4.1191,4.1191,4.1191,4.1191,4.1191,4.1191,4.1191,4.1191,4.1191,4.1191,4.1191,4.1191,4.1191,4.1191,4.1172,4.1191,4.1172,4.082,4.0508,4.0391,4.0039,3.9473,3.9258,3.084,3.1083,3.1511,3.1783,3.194,3.2231,3.2559,3.2821,3.3026,3.3238,3.353,3.3857,3.4497,3.5515,3.6559,3.7568,3.8592,3.9543,3.9993,4.0215,4.0325,4.0427,4.0516,4.0579,4.0662,4.0794,4.0858,4.0943,4.1009,4.1075,4.1099,4.1105,4.1109,4.1151,4.1191,4.1191,4.1191,4.1191,4.1191,4.1191,4.1191,4.1191,4.1191,4.1191,4.1191,4.1191,4.1191,4.1191,4.1191,4.1191,4.1191,4.1191,4.1191,4.1191,4.1191,4.1191,4.1191,4.1191,4.1191,4.1191,4.1191,4.1191,4.1191,4.1191,4.1191,4.1191,4.1191,4.1191,4.1191,4.1191,4.1191,4.1191,4.1191,4.1191,4.1191,4.1191,4.1191,4.1191,4.1191,4.1191,4.1191,4.1191,4.1191,4.1191,4.1191,4.1191,4.1191,4.1191,4.1191,4.1191,4.1191,4.1191,4.1191,4.1191,4.1191,4.1191,4.1191,4.1191,4.1191,4.1191,4.1191,4.1191,4.1211,4.1191,4.1191,4.1191,4.1191,4.1191,4.1191,4.1191,4.1055,4.082,4.0762,4.0449,4.0449,3.0871,3.1012,3.1363,3.1614,3.1801,3.2126,3.2456,3.2789,3.2963,3.3223,3.3577,3.387,3.4742,3.5909,3.659,3.7716,3.9016,3.9637,4.0008,4.0206,4.0326,4.0422,4.0492,4.0576,4.0668,4.0758,4.0832,4.0921,4.0988,4.1061,4.1085,4.1114,4.1105,4.1151,4.1172,4.1191,4.1191,4.1191,4.1191,4.1191,4.1191,4.1191,4.1191,4.1191,4.1191,4.1191,4.1191,4.1191,4.1191,4.1191,4.1191,4.1191,4.1191,4.1191,4.1191,4.1191,4.1191,4.1191,4.1191,4.1191,4.1191,4.1191,4.1191,4.1191,4.1191,4.1191,4.1191,4.1191,4.1191,4.1191,4.1191,4.1191,4.1191,4.1191,4.1191,4.1191,4.1191,4.1191,4.1191,4.1191,4.1191,4.1191,4.1191,4.1191,4.1191,4.1191,4.1191,4.1191,4.1191,4.1191,4.1191,4.1191,4.1191,4.1191,4.1191,4.1191,4.123,4.1289,4.1328,4.1504,4.1601,4.1211,4.1211,4.1211,4.1289,4.1328,4.1328,4.123,4.1191,4.1191,4.1191,4.1133,4.1152,4.1191,4.1191,3.0972,3.1052,3.1363,3.1595,3.1764,3.2073,3.2405,3.2707,3.2918,3.3226,3.3601,3.383,3.4676,3.5917,3.6688,3.7567,3.8831,3.9558,3.9916,4.0118,4.0281,4.0388,4.0471,4.0565,4.0633,4.072,4.0798,4.0893,4.0968,4.1026,4.1072,4.1103,4.112,4.1129,4.1152,4.1191,4.1191,4.1191,4.1191,4.1191,4.1191,4.1191,4.1191,4.1191,4.1191,4.1191,4.1191,4.1191,4.1191,4.1191,4.1191,4.1191,4.1191,4.1191,4.1191,4.1191,4.1191,4.1191,4.1191,4.1191,4.1191,4.1191,4.1191,4.1191,4.1191,4.1191,4.1191,4.1191,4.1191,4.1211,4.123,4.1191,4.1191,4.1191,4.1191,4.1191,4.1191,4.1191,4.1191,4.1191,4.1211,4.123,4.125,4.1269,4.1348,4.1289,4.1191,4.1191,4.1191,4.1191,4.1191,4.1191,4.1191,4.1191,4.1191,4.1523,4.1855,4.1973,4.2051,4.2246,4.2226,4.1855,4.1855,4.2246,4.2187,4.1738,4.1523,4.1504,4.1348,4.1191,4.1191,4.1191,4.1191,4.1191,4.1191,3.0995,3.1052,3.1363,3.1538,3.1671,3.2037,3.2318,3.2591,3.2902,3.3241,3.3591,3.3771,3.436,3.5423,3.6266,3.7275,3.8395,3.9286,3.9805,4.001,4.0234,4.0344,4.0449,4.0527,4.0612,4.0694,4.0761,4.0844,4.0924,4.0983,4.1034,4.1092,4.1114,4.1106,4.1111,4.1172,4.1191,4.1191,4.1191,4.1191,4.1191,4.1191,4.1191,4.1191,4.1191,4.1191,4.1191,4.1191,4.1191,4.1191,4.1191,4.1191,4.1191,4.1191,4.1191,4.1191,4.1191,4.1191,4.1191,4.1191,4.1191,4.1191,4.1191,4.1191,4.1191,4.1191,4.1191,4.1191,4.1308,4.1308,4.1269,4.1348,4.1484,4.1582,4.1641,4.168,4.1758,4.1797,4.1914,4.1992,4.1582,4.1289,4.1308,4.1348,4.1465,4.1426,4.1269,4.1211,4.125,4.1426,4.1523,4.166,4.1719,4.1933,4.207,4.2246,4.2461,4.2598,4.2734,4.2891,4.3066,4.3008,4.3105,4.3359,4.3008,4.248,4.2109,4.1816,4.1582,4.1348,4.123,4.1191,4.1191,4.1191,4.1191,3.1055,3.1151,3.1402,3.15,3.1595,3.1965,3.2284,3.2574,3.2981,3.3349,3.3573,3.3698,3.432,3.5193,3.5749,3.6727,3.8059,3.8561,3.9156,3.996,4.0129,4.0335,4.0441,4.0511,4.061,4.0635,4.07,4.0796,4.0893,4.0949,4.1026,4.1091,4.1112,4.1129,4.1171,4.1191,4.1191,4.1191,4.1191,4.1191,4.1191,4.1191,4.1191,4.1191,4.1191,4.1191,4.1191,4.1191,4.1191,4.1191,4.1191,4.1191,4.1191,4.1191,4.1191,4.1191,4.1191,4.1191,4.1191,4.1191,4.1191,4.1191,4.1191,4.1191,4.1191,4.1191,4.1191,4.1367,4.168,4.1816,4.2012,4.2637,4.2891,4.2969,4.3008,4.3008,4.3047,4.3027,4.3066,4.3105,4.2871,4.2695,4.2637,4.2344,4.2305,4.2129,4.1992,4.1582,4.1504,4.1894,4.2129,4.2363,4.2539,4.2773,4.2988,4.3105,4.3223,4.3359,4.3398,4.3418,4.3613,4.4004,4.3906,4.3926,4.3594,4.3223,4.2851,4.2441,4.1816,4.1484,4.1601,4.1387,4.1191,4.1191,4.1191,3.1131,3.121,3.1421,3.1481,3.1574,3.1929,3.2301,3.2657,3.3075,3.3378,3.3577,3.3679,3.4037,3.4739,3.5345,3.5844,3.7324,3.7875,3.8593,3.9473,3.9738,4.0021,4.029,4.0495,4.0561,4.0607,4.0675,4.0769,4.0888,4.0935,4.1013,4.1076,4.1114,4.1108,4.1152,4.1191,4.1191,4.1191,4.1191,4.1191,4.1191,4.1191,4.1191,4.1191,4.1191,4.1191,4.1191,4.1191,4.1191,4.1191,4.1191,4.1191,4.1191,4.1191,4.1191,4.1191,4.1191,4.1191,4.1191,4.1191,4.1191,4.1191,4.1191,4.1191,4.1191,4.1191,4.1445,4.1719,4.2168,4.2558,4.293,4.3613,4.3789,4.3828,4.3808,4.3769,4.375,4.3691,4.3711,4.3789,4.3828,4.3808,4.3828,4.3613,4.334,4.3066,4.2773,4.2383,4.2051,4.2461,4.2871,4.3066,4.3223,4.3398,4.3652,4.3945,4.4043,4.4141,4.4238,4.4336,4.4668,4.5098,4.4785,4.4512,4.4336,4.4082,4.3613,4.3125,4.2676,4.2422,4.2402,4.2031,4.1367,4.125,4.1308,3.119,3.123,3.1421,3.1481,3.1557,3.1947,3.2422,3.2884,3.3057,3.3298,3.3605,3.3605,3.3817,3.4129,3.4918,3.5503,3.5925,3.6798,3.7697,3.851,3.8995,3.9555,4.0083,4.0397,4.0523,4.0605,4.0674,4.0739,4.0877,4.0939,4.1,4.1081,4.1115,4.1107,4.1131,4.1172,4.1191,4.1191,4.1191,4.1191,4.1191,4.1191,4.1191,4.1191,4.1191,4.1191,4.1191,4.1191,4.1191,4.1191,4.1191,4.1191,4.1191,4.1191,4.1191,4.1191,4.1191,4.1191,4.1191,4.1191,4.1367,4.1426,4.1387,4.1289,4.1348,4.1504,4.1836,4.2324,4.2851,4.3262,4.3691,4.3926,4.416,4.416,4.4141,4.4121,4.4101,4.4082,4.4121,4.416,4.4199,4.4219,4.4336,4.4238,4.4375,4.4316,4.4141,4.4043,4.373,4.3457,4.3789,4.3808,4.3926,4.3965,4.4277,4.4766,4.4922,4.5039,4.5449,4.5625,4.5957,4.5957,4.5664,4.5371,4.5254,4.4922,4.4297,4.3945,4.3691,4.3476,4.3125,4.2558,4.1875,4.1582,4.1523,3.119,3.121,3.1421,3.1519,3.1653,3.2161,3.2573,3.29,3.3039,3.3298,3.3605,3.3605,3.3712,3.3931,3.4275,3.489,3.5484,3.6096,3.6853,3.7599,3.8347,3.8992,3.9576,4.0093,4.0423,4.0588,4.064,4.0707,4.0821,4.0902,4.1009,4.1089,4.1109,4.1102,4.1129,4.1171,4.1191,4.1191,4.1191,4.1191,4.1191,4.1191,4.1191,4.1191,4.1191,4.1191,4.1191,4.1191,4.1191,4.1191,4.1191,4.1191,4.1191,4.1191,4.1191,4.1191,4.1191,4.1191,4.1191,4.1211,4.1426,4.1875,4.2031,4.2051,4.2051,4.2187,4.25,4.3066,4.3652,4.4141,4.457,4.4844,4.5019,4.5098,4.5078,4.5078,4.5078,4.5078,4.5078,4.5078,4.5078,4.5078,4.5137,4.5273,4.541,4.5488,4.5469,4.5351,4.5176,4.4824,4.4668,4.4687,4.4844,4.4941,4.5293,4.5762,4.584,4.5996,4.6211,4.6289,4.6211,4.6172,4.6269,4.6133,4.582,4.5371,4.4844,4.4609,4.4551,4.3945,4.3535,4.2969,4.248,4.2266,4.1953,3.123,3.1271,3.144,3.1632,3.1893,3.2335,3.2706,3.2932,3.3039,3.3283,3.3577,3.3605,3.3684,3.3855,3.4015,3.4377,3.4976,3.5202,3.5857,3.6848,3.7623,3.8364,3.9033,3.9673,4.013,4.0392,4.06,4.0662,4.0773,4.0921,4.1036,4.11,4.1101,4.1098,4.1107,4.1131,4.1172,4.1191,4.1191,4.1191,4.1191,4.1191,4.1191,4.1191,4.1191,4.1191,4.1191,4.1191,4.1191,4.1191,4.1191,4.1191,4.1191,4.1191,4.1191,4.1191,4.1191,4.1191,4.125,4.1601,4.1933,4.2344,4.2754,4.3144,4.3183,4.3281,4.3613,4.4043,4.459,4.5098,4.5527,4.5918,4.6074,4.623,4.623,4.623,4.623,4.623,4.6211,4.6191,4.6172,4.6152,4.6211,4.6289,4.6269,4.6074,4.5976,4.5957,4.5859,4.5683,4.5547,4.5547,4.5781,4.6016,4.6289,4.6289,4.623,4.6172,4.623,4.6289,4.6289,4.6289,4.6289,4.6289,4.625,4.582,4.541,4.5488,4.5371,4.4785,4.4433,4.4258,4.3789,4.3223,4.2871,3.1252,3.1315,3.1464,3.1818,3.2214,3.2506,3.277,3.2995,3.3104,3.3316,3.3563,3.3587,3.3684,3.3834,3.3947,3.4061,3.4438,3.4633,3.5125,3.6032,3.653,3.7337,3.828,3.9084,3.9684,4.0238,4.0581,4.0662,4.0742,4.0888,4.1006,4.1095,4.1113,4.1115,4.1107,4.111,4.1152,4.1191,4.1191,4.1191,4.1191,4.1191,4.1191,4.1191,4.1191,4.1191,4.1191,4.1191,4.1191,4.1191,4.1191,4.1191,4.1191,4.1191,4.1191,4.1328,4.1367,4.1484,4.1699,4.2129,4.2578,4.2988,4.3359,4.4101,4.4375,4.4121,4.4336,4.4863,4.541,4.5605,4.5957,4.6094,4.623,4.6289,4.6289,4.6289,4.6289,4.6289,4.6289,4.6289,4.6289,4.6289,4.6289,4.6289,4.6289,4.6289,4.6289,4.6289,4.6269,4.6191,4.6152,4.6113,4.6211,4.6289,4.6289,4.6289,4.6289,4.6289,4.6289,4.6289,4.6289,4.6289,4.6289,4.6289,4.6289,4.6289,4.6094,4.6035,4.5976,4.5879,4.5644,4.5683,4.5215,4.4414,4.3711,3.1349,3.1464,3.1818,3.2108,3.2388,3.269,3.29,3.3028,3.3244,3.3419,3.3591,3.3675,3.3726,3.3802,3.3915,3.4061,3.4173,3.4374,3.4717,3.5347,3.5846,3.649,3.7381,3.8386,3.9149,3.9715,4.0162,4.0655,4.0765,4.0869,4.0964,4.1039,4.1081,4.1109,4.1107,4.111,4.1133,4.1191,4.1191,4.1191,4.1191,4.1191,4.1191,4.1191,4.1191,4.1191,4.1191,4.1191,4.1191,4.1191,4.1191,4.1191,4.1191,4.1211,4.1211,4.1289,4.1797,4.2051,4.2363,4.291,4.3516,4.4101,4.4609,4.5195,4.5371,4.4961,4.5,4.5625,4.5996,4.6113,4.6191,4.625,4.6289,4.6289,4.6289,4.6289,4.6289,4.6289,4.6289,4.6289,4.6289,4.6289,4.6289,4.6289,4.6289,4.6289,4.6289,4.6289,4.6289,4.625,4.625,4.623,4.625,4.6289,4.6289,4.6289,4.6289,4.6289,4.6289,4.6289,4.6289,4.6289,4.6289,4.6289,4.6289,4.6289,4.6289,4.6269,4.625,4.6289,4.6269,4.6055,4.6074,4.5488,4.4687,3.15,3.167,3.2072,3.2336,3.2574,3.2836,3.3044,3.3198,3.3408,3.3549,3.3647,3.3703,3.3739,3.3802,3.3934,3.4061,3.4161,3.437,3.461,3.4996,3.5401,3.5977,3.6795,3.7611,3.8535,3.9207,4.0123,4.0662,4.0724,4.0878,4.0945,4.101,4.1072,4.1103,4.1105,4.111,4.1131,4.1191,4.1191,4.1191,4.1191,4.1191,4.1191,4.1191,4.1191,4.1191,4.1191,4.1191,4.1191,4.1191,4.1191,4.1191,4.1328,4.1582,4.1738,4.1992,4.2441,4.2969,4.3223,4.3769,4.4492,4.4941,4.5488,4.5918,4.5976,4.5625,4.5625,4.6133,4.6152,4.625,4.625,4.6289,4.6289,4.6289,4.6289,4.6289,4.6289,4.6289,4.6289,4.6289,4.6289,4.6289,4.6289,4.6289,4.6289,4.6289,4.6289,4.6289,4.6289,4.6289,4.6289,4.6289,4.6289,4.6289,4.6289,4.6289,4.6289,4.6289,4.6289,4.6289,4.6289,4.6289,4.6289,4.6289,4.6289,4.6289,4.6289,4.6289,4.6289,4.6289,4.6289,4.6269,4.6289,4.6289,4.5644,3.167,3.191,3.2267,3.254,3.2752,3.2979,3.3183,3.3393,3.3549,3.3629,3.3716,3.3726,3.3766,3.3847,3.3952,3.4074,3.4221,3.4381,3.4572,3.4759,3.4936,3.552,3.6077,3.6703,3.7794,3.8876,3.9853,4.0275,4.0497,4.0738,4.0937,4.1003,4.1047,4.1117,4.1101,4.1108,4.1133,4.1191,4.1191,4.1191,4.1191,4.1191,4.1191,4.1191,4.1191,4.1191,4.1191,4.1191,4.1191,4.1308,4.1406,4.168,4.1933,4.2324,4.248,4.2793,4.3398,4.3769,4.4043,4.4668,4.5058,4.541,4.5996,4.625,4.6289,4.6289,4.6269,4.6269,4.6289,4.6289,4.6289,4.6289,4.6289,4.6289,4.6289,4.6289,4.6289,4.6289,4.6289,4.6289,4.6289,4.6289,4.6289,4.6289,4.6289,4.6289,4.6289,4.6289,4.6289,4.6289,4.6289,4.6289,4.6289,4.6289,4.6289,4.6289,4.6289,4.6289,4.6289,4.6289,4.6289,4.6289,4.6289,4.6289,4.6289,4.6289,4.6289,4.6289,4.6289,4.6289,4.6289,4.6289,4.6289,4.6288,4.6306,3.1946,3.2319,3.2556,3.2719,3.2898,3.3198,3.3367,3.3422,3.3587,3.3684,3.3726,3.3815,3.3868,3.3881,3.3959,3.4074,3.4233,3.4386,3.4583,3.478,3.4898,3.5233,3.5693,3.6401,3.7293,3.8257,3.9128,3.9637,4.0089,4.0578,4.0917,4.099,4.1081,4.1115,4.1103,4.1108,4.1133,4.1191,4.1191,4.1191,4.1191,4.1191,4.1191,4.1191,4.1191,4.1191,4.1191,4.1191,4.1191,4.1387,4.1855,4.2422,4.2871,4.3203,4.3398,4.3652,4.4277,4.4648,4.5019,4.5469,4.5762,4.5859,4.6269,4.6269,4.6289,4.6289,4.6289,4.6289,4.6289,4.6289,4.6289,4.6289,4.6289,4.6289,4.6289,4.6289,4.6289,4.6289,4.6289,4.6289,4.6289,4.6289,4.6289,4.6289,4.6289,4.6289,4.6289,4.6289,4.6289,4.6289,4.6289,4.6289,4.6289,4.6289,4.6289,4.6289,4.6289,4.6289,4.6289,4.6289,4.6289,4.6289,4.6289,4.6289,4.6289,4.6289,4.6289,4.6289,4.6289,4.6289,4.6289,4.6289,4.6287,4.6305,4.6301]}]]